<?xml version="1.0" encoding="UTF-8" standalone="no" ?>
<gpx xmlns="http://www.topografix.com/GPX/1/1" xmlns:xsi="http://www.w3.org/2001/XMLSchema-instance" xsi:schemaLocation="http://www.topografix.com/GPX/1/1 http://www.topografix.com/GPX/1/1/gpx.xsd" version="1.1" creator="VisuGPX - https://www.visugpx.com">
  <metadata>
    <name>PB 2025 Gravel 85 km modifié</name>
    <desc><![CDATA[Rando Gravel Pierre BRETECHER 2025]]></desc>
  </metadata>
  <trk>
    <name><![CDATA[PB 2025 Gravel 85 km modifié]]></name>
    <trkseg>
      <trkpt lat="47.23497" lon="-1.71859">
        <ele>18.202358</ele>
        <time>2025-09-02T15:03:39.501Z</time>
      </trkpt>
      <trkpt lat="47.23495" lon="-1.71858">
        <ele>18.202358</ele>
        <time>2025-09-02T15:03:40.108Z</time>
      </trkpt>
      <trkpt lat="47.23404" lon="-1.71858">
        <ele>18.135335</ele>
        <time>2025-09-02T15:03:59.588Z</time>
      </trkpt>
      <trkpt lat="47.23395" lon="-1.71883">
        <ele>17.807718</ele>
        <time>2025-09-02T15:04:03.375Z</time>
      </trkpt>
      <trkpt lat="47.23394" lon="-1.71901">
        <ele>17.592099</ele>
        <time>2025-09-02T15:04:05.813Z</time>
      </trkpt>
      <trkpt lat="47.23394" lon="-1.71943">
        <ele>17.104344</ele>
        <time>2025-09-02T15:04:11.237Z</time>
      </trkpt>
      <trkpt lat="47.23402" lon="-1.71958">
        <ele>16.89846</ele>
        <time>2025-09-02T15:04:13.478Z</time>
      </trkpt>
      <trkpt lat="47.23405" lon="-1.72045">
        <ele>15.878669</ele>
        <time>2025-09-02T15:04:24.663Z</time>
      </trkpt>
      <trkpt lat="47.23406" lon="-1.72065">
        <ele>15.65031</ele>
        <time>2025-09-02T15:04:27.237Z</time>
      </trkpt>
      <trkpt lat="47.2341" lon="-1.72105">
        <ele>15.173447</ele>
        <time>2025-09-02T15:04:32.762Z</time>
      </trkpt>
      <trkpt lat="47.23414" lon="-1.72108">
        <ele>15.141302</ele>
        <time>2025-09-02T15:04:33.757Z</time>
      </trkpt>
      <trkpt lat="47.23444" lon="-1.72124">
        <ele>15.396236</ele>
        <time>2025-09-02T15:04:40.950Z</time>
      </trkpt>
      <trkpt lat="47.23512" lon="-1.72094">
        <ele>15.967845</ele>
        <time>2025-09-02T15:05:00.141Z</time>
      </trkpt>
      <trkpt lat="47.23584" lon="-1.72078">
        <ele>16.553332</ele>
        <time>2025-09-02T15:05:25.719Z</time>
      </trkpt>
      <trkpt lat="47.23607" lon="-1.72059">
        <ele>17.103633</ele>
        <time>2025-09-02T15:05:35.730Z</time>
      </trkpt>
      <trkpt lat="47.2365" lon="-1.72014">
        <ele>18.285169</ele>
        <time>2025-09-02T15:05:56.220Z</time>
      </trkpt>
      <trkpt lat="47.23684" lon="-1.71936">
        <ele>19.683146</ele>
        <time>2025-09-02T15:06:19.799Z</time>
      </trkpt>
      <trkpt lat="47.23722" lon="-1.71842">
        <ele>20.748395</ele>
        <time>2025-09-02T15:06:43.568Z</time>
      </trkpt>
      <trkpt lat="47.23758" lon="-1.71805">
        <ele>20.95987</ele>
        <time>2025-09-02T15:06:54.793Z</time>
      </trkpt>
      <trkpt lat="47.23778" lon="-1.7175">
        <ele>21.162959</ele>
        <time>2025-09-02T15:07:05.032Z</time>
      </trkpt>
      <trkpt lat="47.23795" lon="-1.71691">
        <ele>21.373462</ele>
        <time>2025-09-02T15:07:15.630Z</time>
      </trkpt>
      <trkpt lat="47.23811" lon="-1.71653">
        <ele>21.723663</ele>
        <time>2025-09-02T15:07:23.683Z</time>
      </trkpt>
      <trkpt lat="47.23822" lon="-1.71585">
        <ele>22.616447</ele>
        <time>2025-09-02T15:07:37.586Z</time>
      </trkpt>
      <trkpt lat="47.23849" lon="-1.71438">
        <ele>24.568978</ele>
        <time>2025-09-02T15:08:16.508Z</time>
      </trkpt>
      <trkpt lat="47.23851" lon="-1.71412">
        <ele>24.87542</ele>
        <time>2025-09-02T15:08:23.595Z</time>
      </trkpt>
      <trkpt lat="47.23863" lon="-1.71318">
        <ele>25.624975</ele>
        <time>2025-09-02T15:08:48.257Z</time>
      </trkpt>
      <trkpt lat="47.23872" lon="-1.71302">
        <ele>25.787452</ele>
        <time>2025-09-02T15:08:53.034Z</time>
      </trkpt>
      <trkpt lat="47.23887" lon="-1.71294">
        <ele>25.968437</ele>
        <time>2025-09-02T15:08:58.090Z</time>
      </trkpt>
      <trkpt lat="47.23911" lon="-1.71238">
        <ele>26.485938</ele>
        <time>2025-09-02T15:09:10.481Z</time>
      </trkpt>
      <trkpt lat="47.23931" lon="-1.71152">
        <ele>26.757475</ele>
        <time>2025-09-02T15:09:24.446Z</time>
      </trkpt>
      <trkpt lat="47.23945" lon="-1.71108">
        <ele>26.551827</ele>
        <time>2025-09-02T15:09:31.486Z</time>
      </trkpt>
      <trkpt lat="47.23958" lon="-1.71079">
        <ele>26.403837</ele>
        <time>2025-09-02T15:09:36.528Z</time>
      </trkpt>
      <trkpt lat="47.23966" lon="-1.71074">
        <ele>26.347397</ele>
        <time>2025-09-02T15:09:38.358Z</time>
      </trkpt>
      <trkpt lat="47.23988" lon="-1.71054">
        <ele>26.188808</ele>
        <time>2025-09-02T15:09:43.564Z</time>
      </trkpt>
      <trkpt lat="47.24036" lon="-1.70979">
        <ele>25.890328</ele>
        <time>2025-09-02T15:09:59.595Z</time>
      </trkpt>
      <trkpt lat="47.24067" lon="-1.70946">
        <ele>26.557924</ele>
        <time>2025-09-02T15:10:10.315Z</time>
      </trkpt>
      <trkpt lat="47.24069" lon="-1.70895">
        <ele>27.16712</ele>
        <time>2025-09-02T15:10:21.528Z</time>
      </trkpt>
      <trkpt lat="47.24065" lon="-1.7081">
        <ele>28.169167</ele>
        <time>2025-09-02T15:10:41.788Z</time>
      </trkpt>
      <trkpt lat="47.24079" lon="-1.70754">
        <ele>28.877644</ele>
        <time>2025-09-02T15:10:57.179Z</time>
      </trkpt>
      <trkpt lat="47.24093" lon="-1.70723">
        <ele>29.630296</ele>
        <time>2025-09-02T15:11:07.004Z</time>
      </trkpt>
      <trkpt lat="47.24102" lon="-1.7069">
        <ele>30.394138</ele>
        <time>2025-09-02T15:11:16.559Z</time>
      </trkpt>
      <trkpt lat="47.24112" lon="-1.70595">
        <ele>32.446741</ele>
        <time>2025-09-02T15:11:42.850Z</time>
      </trkpt>
      <trkpt lat="47.24115" lon="-1.70512">
        <ele>34.245691</ele>
        <time>2025-09-02T15:12:06.780Z</time>
      </trkpt>
      <trkpt lat="47.2413" lon="-1.70311">
        <ele>38.619359</ele>
        <time>2025-09-02T15:13:04.500Z</time>
      </trkpt>
      <trkpt lat="47.24136" lon="-1.70312">
        <ele>38.834048</ele>
        <time>2025-09-02T15:13:08.095Z</time>
      </trkpt>
      <trkpt lat="47.24255" lon="-1.70206">
        <ele>41.821983</ele>
        <time>2025-09-02T15:14:17.040Z</time>
      </trkpt>
      <trkpt lat="47.24275" lon="-1.70194">
        <ele>42.160603</ele>
        <time>2025-09-02T15:14:26.371Z</time>
      </trkpt>
      <trkpt lat="47.24224" lon="-1.70035">
        <ele>43.251508</ele>
        <time>2025-09-02T15:15:13.019Z</time>
      </trkpt>
      <trkpt lat="47.24319" lon="-1.69745">
        <ele>43.959494</ele>
        <time>2025-09-02T15:16:33.057Z</time>
      </trkpt>
      <trkpt lat="47.24321" lon="-1.69736">
        <ele>44.006634</ele>
        <time>2025-09-02T15:16:35.573Z</time>
      </trkpt>
      <trkpt lat="47.2437" lon="-1.69574">
        <ele>45.496407</ele>
        <time>2025-09-02T15:17:30.463Z</time>
      </trkpt>
      <trkpt lat="47.24377" lon="-1.6954">
        <ele>46.050011</ele>
        <time>2025-09-02T15:17:42.321Z</time>
      </trkpt>
      <trkpt lat="47.24384" lon="-1.69475">
        <ele>47.074218</ele>
        <time>2025-09-02T15:18:04.341Z</time>
      </trkpt>
      <trkpt lat="47.24389" lon="-1.69454">
        <ele>47.41814</ele>
        <time>2025-09-02T15:18:11.732Z</time>
      </trkpt>
      <trkpt lat="47.24379" lon="-1.69278">
        <ele>50.315967</ele>
        <time>2025-09-02T15:19:11.390Z</time>
      </trkpt>
      <trkpt lat="47.24372" lon="-1.69208">
        <ele>51.520388</ele>
        <time>2025-09-02T15:19:35.306Z</time>
      </trkpt>
      <trkpt lat="47.24407" lon="-1.69173">
        <ele>52.591655</ele>
        <time>2025-09-02T15:19:50.006Z</time>
      </trkpt>
      <trkpt lat="47.24443" lon="-1.69138">
        <ele>53.638139</ele>
        <time>2025-09-02T15:20:05.253Z</time>
      </trkpt>
      <trkpt lat="47.24455" lon="-1.69128">
        <ele>53.932421</ele>
        <time>2025-09-02T15:20:10.071Z</time>
      </trkpt>
      <trkpt lat="47.24463" lon="-1.69125">
        <ele>54.117696</ele>
        <time>2025-09-02T15:20:13.070Z</time>
      </trkpt>
      <trkpt lat="47.24467" lon="-1.69112">
        <ele>54.317744</ele>
        <time>2025-09-02T15:20:16.306Z</time>
      </trkpt>
      <trkpt lat="47.24473" lon="-1.69109">
        <ele>54.452956</ele>
        <time>2025-09-02T15:20:18.493Z</time>
      </trkpt>
      <trkpt lat="47.24478" lon="-1.69112">
        <ele>54.569737</ele>
        <time>2025-09-02T15:20:20.414Z</time>
      </trkpt>
      <trkpt lat="47.24482" lon="-1.69121">
        <ele>54.741958</ele>
        <time>2025-09-02T15:20:23.169Z</time>
      </trkpt>
      <trkpt lat="47.24506" lon="-1.69114">
        <ele>55.264294</ele>
        <time>2025-09-02T15:20:31.634Z</time>
      </trkpt>
      <trkpt lat="47.24517" lon="-1.69104">
        <ele>55.548839</ele>
        <time>2025-09-02T15:20:36.118Z</time>
      </trkpt>
      <trkpt lat="47.24544" lon="-1.69074">
        <ele>56.279783</ele>
        <time>2025-09-02T15:20:47.249Z</time>
      </trkpt>
      <trkpt lat="47.24601" lon="-1.69042">
        <ele>57.338586</ele>
        <time>2025-09-02T15:21:05.902Z</time>
      </trkpt>
      <trkpt lat="47.2462" lon="-1.69035">
        <ele>57.484053</ele>
        <time>2025-09-02T15:21:11.357Z</time>
      </trkpt>
      <trkpt lat="47.24632" lon="-1.69032">
        <ele>57.580847</ele>
        <time>2025-09-02T15:21:14.877Z</time>
      </trkpt>
      <trkpt lat="47.24659" lon="-1.69034">
        <ele>57.781981</ele>
        <time>2025-09-02T15:21:21.821Z</time>
      </trkpt>
      <trkpt lat="47.24702" lon="-1.69059">
        <ele>58.134059</ele>
        <time>2025-09-02T15:21:33.259Z</time>
      </trkpt>
      <trkpt lat="47.24813" lon="-1.69151">
        <ele>58.305486</ele>
        <time>2025-09-02T15:22:02.706Z</time>
      </trkpt>
      <trkpt lat="47.24887" lon="-1.69211">
        <ele>57.994433</ele>
        <time>2025-09-02T15:22:20.468Z</time>
      </trkpt>
      <trkpt lat="47.24904" lon="-1.69219">
        <ele>57.928877</ele>
        <time>2025-09-02T15:22:24.026Z</time>
      </trkpt>
      <trkpt lat="47.24923" lon="-1.69223">
        <ele>57.70375</ele>
        <time>2025-09-02T15:22:27.849Z</time>
      </trkpt>
      <trkpt lat="47.24945" lon="-1.69223">
        <ele>57.359219</ele>
        <time>2025-09-02T15:22:32.086Z</time>
      </trkpt>
      <trkpt lat="47.24979" lon="-1.69216">
        <ele>56.82013</ele>
        <time>2025-09-02T15:22:38.575Z</time>
      </trkpt>
      <trkpt lat="47.25089" lon="-1.69201">
        <ele>55.093821</ele>
        <time>2025-09-02T15:22:58.959Z</time>
      </trkpt>
      <trkpt lat="47.25132" lon="-1.69188">
        <ele>54.697351</ele>
        <time>2025-09-02T15:23:07.231Z</time>
      </trkpt>
      <trkpt lat="47.25243" lon="-1.69126">
        <ele>53.628962</ele>
        <time>2025-09-02T15:23:30.583Z</time>
      </trkpt>
      <trkpt lat="47.25257" lon="-1.69121">
        <ele>53.501018</ele>
        <time>2025-09-02T15:23:34.111Z</time>
      </trkpt>
      <trkpt lat="47.25277" lon="-1.69115">
        <ele>53.790799</ele>
        <time>2025-09-02T15:23:39.504Z</time>
      </trkpt>
      <trkpt lat="47.253" lon="-1.69241">
        <ele>55.437719</ele>
        <time>2025-09-02T15:24:08.655Z</time>
      </trkpt>
      <trkpt lat="47.25307" lon="-1.69309">
        <ele>56.311288</ele>
        <time>2025-09-02T15:24:27.053Z</time>
      </trkpt>
      <trkpt lat="47.25308" lon="-1.6933">
        <ele>56.57079</ele>
        <time>2025-09-02T15:24:32.230Z</time>
      </trkpt>
      <trkpt lat="47.25303" lon="-1.69368">
        <ele>56.934134</ele>
        <time>2025-09-02T15:24:41.400Z</time>
      </trkpt>
      <trkpt lat="47.2529" lon="-1.6944">
        <ele>57.398291</ele>
        <time>2025-09-02T15:24:56.850Z</time>
      </trkpt>
      <trkpt lat="47.25285" lon="-1.69487">
        <ele>57.696884</ele>
        <time>2025-09-02T15:25:05.536Z</time>
      </trkpt>
      <trkpt lat="47.25288" lon="-1.69521">
        <ele>57.909126</ele>
        <time>2025-09-02T15:25:11.305Z</time>
      </trkpt>
      <trkpt lat="47.25274" lon="-1.69509">
        <ele>58.065451</ele>
        <time>2025-09-02T15:25:15.406Z</time>
      </trkpt>
      <trkpt lat="47.25265" lon="-1.69519">
        <ele>58.168605</ele>
        <time>2025-09-02T15:25:18.035Z</time>
      </trkpt>
      <trkpt lat="47.25262" lon="-1.69536">
        <ele>58.280217</ele>
        <time>2025-09-02T15:25:20.847Z</time>
      </trkpt>
      <trkpt lat="47.25268" lon="-1.69582">
        <ele>58.543315</ele>
        <time>2025-09-02T15:25:28.049Z</time>
      </trkpt>
      <trkpt lat="47.25282" lon="-1.6965">
        <ele>58.877963</ele>
        <time>2025-09-02T15:25:39.334Z</time>
      </trkpt>
      <trkpt lat="47.2531" lon="-1.69766">
        <ele>59.463179</ele>
        <time>2025-09-02T15:26:01.738Z</time>
      </trkpt>
      <trkpt lat="47.25342" lon="-1.69898">
        <ele>60.747481</ele>
        <time>2025-09-02T15:26:31.056Z</time>
      </trkpt>
      <trkpt lat="47.25348" lon="-1.69917">
        <ele>60.993418</ele>
        <time>2025-09-02T15:26:35.722Z</time>
      </trkpt>
      <trkpt lat="47.2536" lon="-1.69957">
        <ele>61.522444</ele>
        <time>2025-09-02T15:26:50.162Z</time>
      </trkpt>
      <trkpt lat="47.25359" lon="-1.69983">
        <ele>61.833277</ele>
        <time>2025-09-02T15:26:58.571Z</time>
      </trkpt>
      <trkpt lat="47.25365" lon="-1.7005">
        <ele>62.64143</ele>
        <time>2025-09-02T15:27:19.901Z</time>
      </trkpt>
      <trkpt lat="47.25373" lon="-1.70066">
        <ele>62.877739</ele>
        <time>2025-09-02T15:27:25.980Z</time>
      </trkpt>
      <trkpt lat="47.25386" lon="-1.70078">
        <ele>63.053226</ele>
        <time>2025-09-02T15:27:33.112Z</time>
      </trkpt>
      <trkpt lat="47.2541" lon="-1.70092">
        <ele>63.347765</ele>
        <time>2025-09-02T15:27:44.740Z</time>
      </trkpt>
      <trkpt lat="47.25429" lon="-1.70109">
        <ele>63.603598</ele>
        <time>2025-09-02T15:27:54.673Z</time>
      </trkpt>
      <trkpt lat="47.25433" lon="-1.70117">
        <ele>63.682915</ele>
        <time>2025-09-02T15:27:57.727Z</time>
      </trkpt>
      <trkpt lat="47.25459" lon="-1.7011">
        <ele>63.983212</ele>
        <time>2025-09-02T15:28:09.184Z</time>
      </trkpt>
      <trkpt lat="47.25535" lon="-1.70055">
        <ele>64.939576</ele>
        <time>2025-09-02T15:28:44.485Z</time>
      </trkpt>
      <trkpt lat="47.25535" lon="-1.70055">
        <ele>64.939576</ele>
        <time>2025-09-02T15:28:44.492Z</time>
      </trkpt>
      <trkpt lat="47.25569" lon="-1.70052">
        <ele>64.636147</ele>
        <time>2025-09-02T15:28:57.579Z</time>
      </trkpt>
      <trkpt lat="47.25622" lon="-1.70034">
        <ele>64.156437</ele>
        <time>2025-09-02T15:29:16.621Z</time>
      </trkpt>
      <trkpt lat="47.25659" lon="-1.70012">
        <ele>63.806656</ele>
        <time>2025-09-02T15:29:30.077Z</time>
      </trkpt>
      <trkpt lat="47.25708" lon="-1.69988">
        <ele>63.346055</ele>
        <time>2025-09-02T15:29:47.157Z</time>
      </trkpt>
      <trkpt lat="47.25724" lon="-1.70044">
        <ele>62.804497</ele>
        <time>2025-09-02T15:29:55.179Z</time>
      </trkpt>
      <trkpt lat="47.2575" lon="-1.70119">
        <ele>62.068937</ele>
        <time>2025-09-02T15:30:06.187Z</time>
      </trkpt>
      <trkpt lat="47.258" lon="-1.70312">
        <ele>61.523224</ele>
        <time>2025-09-02T15:30:36.217Z</time>
      </trkpt>
      <trkpt lat="47.25797" lon="-1.70321">
        <ele>61.578477</ele>
        <time>2025-09-02T15:30:38.054Z</time>
      </trkpt>
      <trkpt lat="47.25778" lon="-1.70338">
        <ele>61.75664</ele>
        <time>2025-09-02T15:30:44.169Z</time>
      </trkpt>
      <trkpt lat="47.25711" lon="-1.70384">
        <ele>62.361156</ele>
        <time>2025-09-02T15:31:07.993Z</time>
      </trkpt>
      <trkpt lat="47.25618" lon="-1.70467">
        <ele>63.22289</ele>
        <time>2025-09-02T15:31:42.669Z</time>
      </trkpt>
      <trkpt lat="47.25601" lon="-1.70487">
        <ele>63.400742</ele>
        <time>2025-09-02T15:31:48.345Z</time>
      </trkpt>
      <trkpt lat="47.25586" lon="-1.70515">
        <ele>63.588746</ele>
        <time>2025-09-02T15:31:53.953Z</time>
      </trkpt>
      <trkpt lat="47.25575" lon="-1.70541">
        <ele>63.754333</ele>
        <time>2025-09-02T15:31:58.653Z</time>
      </trkpt>
      <trkpt lat="47.25563" lon="-1.7058">
        <ele>63.863792</ele>
        <time>2025-09-02T15:32:04.827Z</time>
      </trkpt>
      <trkpt lat="47.25564" lon="-1.70592">
        <ele>63.794613</ele>
        <time>2025-09-02T15:32:06.688Z</time>
      </trkpt>
      <trkpt lat="47.25587" lon="-1.70698">
        <ele>63.198999</ele>
        <time>2025-09-02T15:32:22.578Z</time>
      </trkpt>
      <trkpt lat="47.25595" lon="-1.70744">
        <ele>62.948326</ele>
        <time>2025-09-02T15:32:29.262Z</time>
      </trkpt>
      <trkpt lat="47.2565" lon="-1.70747">
        <ele>62.512447</ele>
        <time>2025-09-02T15:32:40.918Z</time>
      </trkpt>
      <trkpt lat="47.25755" lon="-1.70759">
        <ele>61.451654</ele>
        <time>2025-09-02T15:33:03.229Z</time>
      </trkpt>
      <trkpt lat="47.25777" lon="-1.70754">
        <ele>61.232238</ele>
        <time>2025-09-02T15:33:07.792Z</time>
      </trkpt>
      <trkpt lat="47.25904" lon="-1.70645">
        <ele>58.899325</ele>
        <time>2025-09-02T15:33:37.646Z</time>
      </trkpt>
      <trkpt lat="47.25933" lon="-1.70609">
        <ele>58.174903</ele>
        <time>2025-09-02T15:33:44.717Z</time>
      </trkpt>
      <trkpt lat="47.25971" lon="-1.70566">
        <ele>57.25873</ele>
        <time>2025-09-02T15:33:53.408Z</time>
      </trkpt>
      <trkpt lat="47.26034" lon="-1.70511">
        <ele>56.613264</ele>
        <time>2025-09-02T15:34:07.039Z</time>
      </trkpt>
      <trkpt lat="47.26063" lon="-1.70487">
        <ele>56.325211</ele>
        <time>2025-09-02T15:34:13.726Z</time>
      </trkpt>
      <trkpt lat="47.26072" lon="-1.70479">
        <ele>56.231759</ele>
        <time>2025-09-02T15:34:15.902Z</time>
      </trkpt>
      <trkpt lat="47.2621" lon="-1.70365">
        <ele>57.049599</ele>
        <time>2025-09-02T15:35:01.705Z</time>
      </trkpt>
      <trkpt lat="47.26222" lon="-1.70355">
        <ele>57.249286</ele>
        <time>2025-09-02T15:35:06.493Z</time>
      </trkpt>
      <trkpt lat="47.26271" lon="-1.70318">
        <ele>58.028995</ele>
        <time>2025-09-02T15:35:24.221Z</time>
      </trkpt>
      <trkpt lat="47.26283" lon="-1.7031">
        <ele>58.216957</ele>
        <time>2025-09-02T15:35:28.189Z</time>
      </trkpt>
      <trkpt lat="47.26324" lon="-1.70275">
        <ele>58.578693</ele>
        <time>2025-09-02T15:35:41.699Z</time>
      </trkpt>
      <trkpt lat="47.26327" lon="-1.70289">
        <ele>58.652283</ele>
        <time>2025-09-02T15:35:45.787Z</time>
      </trkpt>
      <trkpt lat="47.26283" lon="-1.7033">
        <ele>59.030817</ele>
        <time>2025-09-02T15:36:06.025Z</time>
      </trkpt>
      <trkpt lat="47.26281" lon="-1.70336">
        <ele>59.067252</ele>
        <time>2025-09-02T15:36:07.942Z</time>
      </trkpt>
      <trkpt lat="47.26282" lon="-1.70343">
        <ele>59.099397</ele>
        <time>2025-09-02T15:36:09.636Z</time>
      </trkpt>
      <trkpt lat="47.26324" lon="-1.70424">
        <ele>59.625772</ele>
        <time>2025-09-02T15:36:36.674Z</time>
      </trkpt>
      <trkpt lat="47.26358" lon="-1.70481">
        <ele>60.170813</ele>
        <time>2025-09-02T15:36:57.856Z</time>
      </trkpt>
      <trkpt lat="47.26366" lon="-1.70482">
        <ele>60.254225</ele>
        <time>2025-09-02T15:37:01.202Z</time>
      </trkpt>
      <trkpt lat="47.26531" lon="-1.70414">
        <ele>62.236542</ele>
        <time>2025-09-02T15:38:15.944Z</time>
      </trkpt>
      <trkpt lat="47.26623" lon="-1.70373">
        <ele>63.530354</ele>
        <time>2025-09-02T15:38:57.866Z</time>
      </trkpt>
      <trkpt lat="47.26872" lon="-1.70316">
        <ele>66.658018</ele>
        <time>2025-09-02T15:40:49.388Z</time>
      </trkpt>
      <trkpt lat="47.26903" lon="-1.70309">
        <ele>66.830994</ele>
        <time>2025-09-02T15:41:02.263Z</time>
      </trkpt>
      <trkpt lat="47.26919" lon="-1.70102">
        <ele>67.127505</ele>
        <time>2025-09-02T15:41:55.445Z</time>
      </trkpt>
      <trkpt lat="47.26927" lon="-1.70038">
        <ele>66.810655</ele>
        <time>2025-09-02T15:42:11.219Z</time>
      </trkpt>
      <trkpt lat="47.26957" lon="-1.6984">
        <ele>65.82311</ele>
        <time>2025-09-02T15:42:57.909Z</time>
      </trkpt>
      <trkpt lat="47.26962" lon="-1.69763">
        <ele>65.441413</ele>
        <time>2025-09-02T15:43:08.349Z</time>
      </trkpt>
      <trkpt lat="47.26961" lon="-1.69745">
        <ele>65.351031</ele>
        <time>2025-09-02T15:43:10.889Z</time>
      </trkpt>
      <trkpt lat="47.2697" lon="-1.69738">
        <ele>65.275807</ele>
        <time>2025-09-02T15:43:13.137Z</time>
      </trkpt>
      <trkpt lat="47.26976" lon="-1.69734">
        <ele>65.225376</ele>
        <time>2025-09-02T15:43:14.593Z</time>
      </trkpt>
      <trkpt lat="47.27002" lon="-1.69805">
        <ele>64.828762</ele>
        <time>2025-09-02T15:43:26.106Z</time>
      </trkpt>
      <trkpt lat="47.27335" lon="-1.69632">
        <ele>65.931948</ele>
        <time>2025-09-02T15:45:42.988Z</time>
      </trkpt>
      <trkpt lat="47.27314" lon="-1.69615">
        <ele>66.032456</ele>
        <time>2025-09-02T15:45:49.210Z</time>
      </trkpt>
      <trkpt lat="47.27302" lon="-1.69596">
        <ele>66.110675</ele>
        <time>2025-09-02T15:45:53.773Z</time>
      </trkpt>
      <trkpt lat="47.27222" lon="-1.69367">
        <ele>66.66176</ele>
        <time>2025-09-02T15:46:38.678Z</time>
      </trkpt>
      <trkpt lat="47.2722" lon="-1.69363">
        <ele>66.646636</ele>
        <time>2025-09-02T15:46:39.410Z</time>
      </trkpt>
      <trkpt lat="47.27216" lon="-1.69346">
        <ele>66.590766</ele>
        <time>2025-09-02T15:46:42.108Z</time>
      </trkpt>
      <trkpt lat="47.27241" lon="-1.69331">
        <ele>66.464992</ele>
        <time>2025-09-02T15:46:51.783Z</time>
      </trkpt>
      <trkpt lat="47.27244" lon="-1.69326">
        <ele>66.442357</ele>
        <time>2025-09-02T15:46:53.516Z</time>
      </trkpt>
      <trkpt lat="47.2725" lon="-1.69281">
        <ele>66.29791</ele>
        <time>2025-09-02T15:47:04.460Z</time>
      </trkpt>
      <trkpt lat="47.27264" lon="-1.69211">
        <ele>66.063239</ele>
        <time>2025-09-02T15:47:21.850Z</time>
      </trkpt>
      <trkpt lat="47.27287" lon="-1.69165">
        <ele>65.73432</ele>
        <time>2025-09-02T15:47:35.071Z</time>
      </trkpt>
      <trkpt lat="47.27317" lon="-1.69079">
        <ele>64.593781</ele>
        <time>2025-09-02T15:47:57.222Z</time>
      </trkpt>
      <trkpt lat="47.27335" lon="-1.6906">
        <ele>64.201596</ele>
        <time>2025-09-02T15:48:04.715Z</time>
      </trkpt>
      <trkpt lat="47.27384" lon="-1.69035">
        <ele>63.307314</ele>
        <time>2025-09-02T15:48:21.449Z</time>
      </trkpt>
      <trkpt lat="47.27424" lon="-1.69019">
        <ele>62.377913</ele>
        <time>2025-09-02T15:48:34.840Z</time>
      </trkpt>
      <trkpt lat="47.27499" lon="-1.69099">
        <ele>59.393012</ele>
        <time>2025-09-02T15:49:03.346Z</time>
      </trkpt>
      <trkpt lat="47.27523" lon="-1.6912">
        <ele>58.477088</ele>
        <time>2025-09-02T15:49:11.916Z</time>
      </trkpt>
      <trkpt lat="47.27544" lon="-1.69128">
        <ele>57.772292</ele>
        <time>2025-09-02T15:49:18.448Z</time>
      </trkpt>
      <trkpt lat="47.27549" lon="-1.69134">
        <ele>57.551889</ele>
        <time>2025-09-02T15:49:20.493Z</time>
      </trkpt>
      <trkpt lat="47.27552" lon="-1.69143">
        <ele>57.354293</ele>
        <time>2025-09-02T15:49:22.316Z</time>
      </trkpt>
      <trkpt lat="47.27549" lon="-1.69164">
        <ele>56.882657</ele>
        <time>2025-09-02T15:49:26.707Z</time>
      </trkpt>
      <trkpt lat="47.27552" lon="-1.6917">
        <ele>56.731455</ele>
        <time>2025-09-02T15:49:28.177Z</time>
      </trkpt>
      <trkpt lat="47.27605" lon="-1.69202">
        <ele>54.95265</ele>
        <time>2025-09-02T15:49:45.305Z</time>
      </trkpt>
      <trkpt lat="47.27654" lon="-1.69255">
        <ele>53.084192</ele>
        <time>2025-09-02T15:50:03.563Z</time>
      </trkpt>
      <trkpt lat="47.27672" lon="-1.69268">
        <ele>52.463154</ele>
        <time>2025-09-02T15:50:09.888Z</time>
      </trkpt>
      <trkpt lat="47.27693" lon="-1.69277">
        <ele>51.776015</ele>
        <time>2025-09-02T15:50:17.066Z</time>
      </trkpt>
      <trkpt lat="47.27723" lon="-1.69273">
        <ele>51.666663</ele>
        <time>2025-09-02T15:50:26.968Z</time>
      </trkpt>
      <trkpt lat="47.27745" lon="-1.69282">
        <ele>51.982281</ele>
        <time>2025-09-02T15:50:35.504Z</time>
      </trkpt>
      <trkpt lat="47.27757" lon="-1.69294">
        <ele>52.171747</ele>
        <time>2025-09-02T15:50:41.065Z</time>
      </trkpt>
      <trkpt lat="47.27766" lon="-1.69311">
        <ele>52.372253</ele>
        <time>2025-09-02T15:50:47.318Z</time>
      </trkpt>
      <trkpt lat="47.27774" lon="-1.69338">
        <ele>52.635659</ele>
        <time>2025-09-02T15:50:56.056Z</time>
      </trkpt>
      <trkpt lat="47.2778" lon="-1.6937">
        <ele>52.939469</ele>
        <time>2025-09-02T15:51:06.927Z</time>
      </trkpt>
      <trkpt lat="47.27777" lon="-1.69408">
        <ele>53.281054</ele>
        <time>2025-09-02T15:51:19.955Z</time>
      </trkpt>
      <trkpt lat="47.27771" lon="-1.69449">
        <ele>53.660954</ele>
        <time>2025-09-02T15:51:35.199Z</time>
      </trkpt>
      <trkpt lat="47.27771" lon="-1.69503">
        <ele>54.469153</ele>
        <time>2025-09-02T15:51:55.619Z</time>
      </trkpt>
      <trkpt lat="47.27781" lon="-1.69589">
        <ele>56.024447</ele>
        <time>2025-09-02T15:52:19.446Z</time>
      </trkpt>
      <trkpt lat="47.278" lon="-1.69642">
        <ele>57.090865</ele>
        <time>2025-09-02T15:52:34.418Z</time>
      </trkpt>
      <trkpt lat="47.27812" lon="-1.69637">
        <ele>57.411014</ele>
        <time>2025-09-02T15:52:38.575Z</time>
      </trkpt>
      <trkpt lat="47.27821" lon="-1.6964">
        <ele>57.667787</ele>
        <time>2025-09-02T15:52:41.803Z</time>
      </trkpt>
      <trkpt lat="47.27825" lon="-1.69644">
        <ele>57.795748</ele>
        <time>2025-09-02T15:52:43.339Z</time>
      </trkpt>
      <trkpt lat="47.27834" lon="-1.69664">
        <ele>58.223994</ele>
        <time>2025-09-02T15:52:48.334Z</time>
      </trkpt>
      <trkpt lat="47.27838" lon="-1.69676">
        <ele>58.452764</ele>
        <time>2025-09-02T15:52:50.910Z</time>
      </trkpt>
      <trkpt lat="47.27847" lon="-1.69671">
        <ele>58.628117</ele>
        <time>2025-09-02T15:52:53.687Z</time>
      </trkpt>
      <trkpt lat="47.27852" lon="-1.69686">
        <ele>58.774324</ele>
        <time>2025-09-02T15:52:56.946Z</time>
      </trkpt>
      <trkpt lat="47.27872" lon="-1.69686">
        <ele>59.025941</ele>
        <time>2025-09-02T15:53:05.260Z</time>
      </trkpt>
      <trkpt lat="47.27892" lon="-1.6968">
        <ele>59.294244</ele>
        <time>2025-09-02T15:53:13.933Z</time>
      </trkpt>
      <trkpt lat="47.27922" lon="-1.69666">
        <ele>59.692096</ele>
        <time>2025-09-02T15:53:26.734Z</time>
      </trkpt>
      <trkpt lat="47.27941" lon="-1.69663">
        <ele>59.943974</ele>
        <time>2025-09-02T15:53:34.846Z</time>
      </trkpt>
      <trkpt lat="47.27948" lon="-1.69669">
        <ele>60.044676</ele>
        <time>2025-09-02T15:53:38.133Z</time>
      </trkpt>
      <trkpt lat="47.27964" lon="-1.69724">
        <ele>60.567766</ele>
        <time>2025-09-02T15:53:55.555Z</time>
      </trkpt>
      <trkpt lat="47.27985" lon="-1.69722">
        <ele>60.840535</ele>
        <time>2025-09-02T15:54:02.160Z</time>
      </trkpt>
      <trkpt lat="47.28001" lon="-1.69725">
        <ele>61.162182</ele>
        <time>2025-09-02T15:54:07.399Z</time>
      </trkpt>
      <trkpt lat="47.28009" lon="-1.69746">
        <ele>61.503905</ele>
        <time>2025-09-02T15:54:12.959Z</time>
      </trkpt>
      <trkpt lat="47.28026" lon="-1.69799">
        <ele>62.358118</ele>
        <time>2025-09-02T15:54:27.380Z</time>
      </trkpt>
      <trkpt lat="47.2807" lon="-1.69965">
        <ele>64.792027</ele>
        <time>2025-09-02T15:55:26.477Z</time>
      </trkpt>
      <trkpt lat="47.28088" lon="-1.70059">
        <ele>65.338384</ele>
        <time>2025-09-02T15:55:54.544Z</time>
      </trkpt>
      <trkpt lat="47.28095" lon="-1.70067">
        <ele>65.412163</ele>
        <time>2025-09-02T15:55:58.069Z</time>
      </trkpt>
      <trkpt lat="47.28225" lon="-1.70111">
        <ele>66.601789</ele>
        <time>2025-09-02T15:56:48.716Z</time>
      </trkpt>
      <trkpt lat="47.28321" lon="-1.70264">
        <ele>68.063712</ele>
        <time>2025-09-02T15:57:50.738Z</time>
      </trkpt>
      <trkpt lat="47.28411" lon="-1.7041">
        <ele>69.599016</ele>
        <time>2025-09-02T15:58:29.894Z</time>
      </trkpt>
      <trkpt lat="47.28365" lon="-1.70496">
        <ele>70.177974</ele>
        <time>2025-09-02T15:58:50.726Z</time>
      </trkpt>
      <trkpt lat="47.28363" lon="-1.70508">
        <ele>70.195238</ele>
        <time>2025-09-02T15:58:52.906Z</time>
      </trkpt>
      <trkpt lat="47.28364" lon="-1.7053">
        <ele>70.227995</ele>
        <time>2025-09-02T15:58:57.023Z</time>
      </trkpt>
      <trkpt lat="47.28417" lon="-1.70524">
        <ele>70.342414</ele>
        <time>2025-09-02T15:59:10.290Z</time>
      </trkpt>
      <trkpt lat="47.2866" lon="-1.70552">
        <ele>69.504635</ele>
        <time>2025-09-02T16:00:01.085Z</time>
      </trkpt>
      <trkpt lat="47.28699" lon="-1.70551">
        <ele>69.150766</ele>
        <time>2025-09-02T16:00:08.883Z</time>
      </trkpt>
      <trkpt lat="47.28999" lon="-1.70466">
        <ele>65.719671</ele>
        <time>2025-09-02T16:01:08.986Z</time>
      </trkpt>
      <trkpt lat="47.29081" lon="-1.70441">
        <ele>64.443969</ele>
        <time>2025-09-02T16:01:24.792Z</time>
      </trkpt>
      <trkpt lat="47.29145" lon="-1.70418">
        <ele>63.36908</ele>
        <time>2025-09-02T16:01:36.920Z</time>
      </trkpt>
      <trkpt lat="47.29203" lon="-1.70388">
        <ele>62.429263</ele>
        <time>2025-09-02T16:01:48.381Z</time>
      </trkpt>
      <trkpt lat="47.29234" lon="-1.70507">
        <ele>61.831072</ele>
        <time>2025-09-02T16:02:06.642Z</time>
      </trkpt>
      <trkpt lat="47.2925" lon="-1.70533">
        <ele>61.668085</ele>
        <time>2025-09-02T16:02:11.850Z</time>
      </trkpt>
      <trkpt lat="47.29285" lon="-1.70581">
        <ele>61.334704</ele>
        <time>2025-09-02T16:02:22.973Z</time>
      </trkpt>
      <trkpt lat="47.29294" lon="-1.70571">
        <ele>61.262809</ele>
        <time>2025-09-02T16:02:25.430Z</time>
      </trkpt>
      <trkpt lat="47.29302" lon="-1.70561">
        <ele>61.1458</ele>
        <time>2025-09-02T16:02:27.992Z</time>
      </trkpt>
      <trkpt lat="47.29378" lon="-1.70472">
        <ele>59.750414</ele>
        <time>2025-09-02T16:02:48.168Z</time>
      </trkpt>
      <trkpt lat="47.29424" lon="-1.70444">
        <ele>59.032305</ele>
        <time>2025-09-02T16:02:57.565Z</time>
      </trkpt>
      <trkpt lat="47.29485" lon="-1.70449">
        <ele>58.401806</ele>
        <time>2025-09-02T16:03:08.798Z</time>
      </trkpt>
      <trkpt lat="47.29502" lon="-1.70444">
        <ele>58.278578</ele>
        <time>2025-09-02T16:03:12.110Z</time>
      </trkpt>
      <trkpt lat="47.29518" lon="-1.70427">
        <ele>58.14015</ele>
        <time>2025-09-02T16:03:15.908Z</time>
      </trkpt>
      <trkpt lat="47.29526" lon="-1.70442">
        <ele>58.04949</ele>
        <time>2025-09-02T16:03:18.359Z</time>
      </trkpt>
      <trkpt lat="47.29539" lon="-1.70475">
        <ele>57.866347</ele>
        <time>2025-09-02T16:03:23.506Z</time>
      </trkpt>
      <trkpt lat="47.29586" lon="-1.70627">
        <ele>58.230515</ele>
        <time>2025-09-02T16:03:54.586Z</time>
      </trkpt>
      <trkpt lat="47.29602" lon="-1.70579">
        <ele>58.95829</ele>
        <time>2025-09-02T16:04:12.402Z</time>
      </trkpt>
      <trkpt lat="47.29619" lon="-1.70558">
        <ele>59.4225</ele>
        <time>2025-09-02T16:04:23.656Z</time>
      </trkpt>
      <trkpt lat="47.29624" lon="-1.70538">
        <ele>59.723291</ele>
        <time>2025-09-02T16:04:30.970Z</time>
      </trkpt>
      <trkpt lat="47.29623" lon="-1.70521">
        <ele>59.954603</ele>
        <time>2025-09-02T16:04:34.925Z</time>
      </trkpt>
      <trkpt lat="47.29623" lon="-1.70489">
        <ele>60.404807</ele>
        <time>2025-09-02T16:04:42.407Z</time>
      </trkpt>
      <trkpt lat="47.2962" lon="-1.70445">
        <ele>61.012551</ele>
        <time>2025-09-02T16:04:52.229Z</time>
      </trkpt>
      <trkpt lat="47.29616" lon="-1.70429">
        <ele>61.285666</ele>
        <time>2025-09-02T16:04:55.862Z</time>
      </trkpt>
      <trkpt lat="47.29608" lon="-1.70325">
        <ele>63.073374</ele>
        <time>2025-09-02T16:05:19.522Z</time>
      </trkpt>
      <trkpt lat="47.29609" lon="-1.70297">
        <ele>63.562095</ele>
        <time>2025-09-02T16:05:26.139Z</time>
      </trkpt>
      <trkpt lat="47.29627" lon="-1.70261">
        <ele>64.314596</ele>
        <time>2025-09-02T16:05:36.442Z</time>
      </trkpt>
      <trkpt lat="47.29627" lon="-1.70238">
        <ele>64.703405</ele>
        <time>2025-09-02T16:05:42.072Z</time>
      </trkpt>
      <trkpt lat="47.29625" lon="-1.70233">
        <ele>64.811314</ele>
        <time>2025-09-02T16:05:43.571Z</time>
      </trkpt>
      <trkpt lat="47.29649" lon="-1.70211">
        <ele>65.514257</ele>
        <time>2025-09-02T16:05:58.005Z</time>
      </trkpt>
      <trkpt lat="47.2968" lon="-1.70189">
        <ele>66.448213</ele>
        <time>2025-09-02T16:06:16.274Z</time>
      </trkpt>
      <trkpt lat="47.29697" lon="-1.70152">
        <ele>67.294616</ele>
        <time>2025-09-02T16:06:33.170Z</time>
      </trkpt>
      <trkpt lat="47.29711" lon="-1.7014">
        <ele>67.745656</ele>
        <time>2025-09-02T16:06:42.286Z</time>
      </trkpt>
      <trkpt lat="47.29734" lon="-1.7014">
        <ele>68.37804</ele>
        <time>2025-09-02T16:06:54.956Z</time>
      </trkpt>
      <trkpt lat="47.29767" lon="-1.70147">
        <ele>69.275533</ele>
        <time>2025-09-02T16:07:11.600Z</time>
      </trkpt>
      <trkpt lat="47.29824" lon="-1.70174">
        <ele>70.627866</ele>
        <time>2025-09-02T16:07:39.417Z</time>
      </trkpt>
      <trkpt lat="47.29839" lon="-1.70199">
        <ele>70.759845</ele>
        <time>2025-09-02T16:07:49.030Z</time>
      </trkpt>
      <trkpt lat="47.29831" lon="-1.70254">
        <ele>70.983076</ele>
        <time>2025-09-02T16:08:04.373Z</time>
      </trkpt>
      <trkpt lat="47.29835" lon="-1.70281">
        <ele>71.093114</ele>
        <time>2025-09-02T16:08:11.527Z</time>
      </trkpt>
      <trkpt lat="47.29845" lon="-1.7032">
        <ele>71.257371</ele>
        <time>2025-09-02T16:08:21.926Z</time>
      </trkpt>
      <trkpt lat="47.29868" lon="-1.7039">
        <ele>71.572091</ele>
        <time>2025-09-02T16:08:41.521Z</time>
      </trkpt>
      <trkpt lat="47.29894" lon="-1.70442">
        <ele>71.652301</ele>
        <time>2025-09-02T16:08:58.073Z</time>
      </trkpt>
      <trkpt lat="47.29918" lon="-1.7047">
        <ele>71.692307</ele>
        <time>2025-09-02T16:09:09.968Z</time>
      </trkpt>
      <trkpt lat="47.29943" lon="-1.70491">
        <ele>71.730723</ele>
        <time>2025-09-02T16:09:21.516Z</time>
      </trkpt>
      <trkpt lat="47.29954" lon="-1.70481">
        <ele>71.747725</ele>
        <time>2025-09-02T16:09:26.601Z</time>
      </trkpt>
      <trkpt lat="47.29976" lon="-1.70474">
        <ele>71.77731</ele>
        <time>2025-09-02T16:09:35.295Z</time>
      </trkpt>
      <trkpt lat="47.30039" lon="-1.70461">
        <ele>71.543496</ele>
        <time>2025-09-02T16:09:58.892Z</time>
      </trkpt>
      <trkpt lat="47.30052" lon="-1.70453">
        <ele>71.306763</ele>
        <time>2025-09-02T16:10:01.951Z</time>
      </trkpt>
      <trkpt lat="47.30097" lon="-1.70388">
        <ele>70.252588</ele>
        <time>2025-09-02T16:10:14.837Z</time>
      </trkpt>
      <trkpt lat="47.30049" lon="-1.70315">
        <ele>69.096781</ele>
        <time>2025-09-02T16:10:27.639Z</time>
      </trkpt>
      <trkpt lat="47.30045" lon="-1.70304">
        <ele>68.940531</ele>
        <time>2025-09-02T16:10:29.328Z</time>
      </trkpt>
      <trkpt lat="47.30042" lon="-1.70278">
        <ele>68.493157</ele>
        <time>2025-09-02T16:10:32.519Z</time>
      </trkpt>
      <trkpt lat="47.30048" lon="-1.70253">
        <ele>67.929325</ele>
        <time>2025-09-02T16:10:35.698Z</time>
      </trkpt>
      <trkpt lat="47.30141" lon="-1.70062">
        <ele>63.066109</ele>
        <time>2025-09-02T16:11:03.855Z</time>
      </trkpt>
      <trkpt lat="47.30155" lon="-1.70037">
        <ele>62.757337</ele>
        <time>2025-09-02T16:11:08.209Z</time>
      </trkpt>
      <trkpt lat="47.30174" lon="-1.70013">
        <ele>62.420286</ele>
        <time>2025-09-02T16:11:13.128Z</time>
      </trkpt>
      <trkpt lat="47.30263" lon="-1.69908">
        <ele>60.870501</ele>
        <time>2025-09-02T16:11:37.522Z</time>
      </trkpt>
      <trkpt lat="47.30312" lon="-1.69845">
        <ele>60.150724</ele>
        <time>2025-09-02T16:11:50.761Z</time>
      </trkpt>
      <trkpt lat="47.30328" lon="-1.69806">
        <ele>59.826834</ele>
        <time>2025-09-02T16:11:56.641Z</time>
      </trkpt>
      <trkpt lat="47.30346" lon="-1.69742">
        <ele>59.330973</ele>
        <time>2025-09-02T16:12:05.616Z</time>
      </trkpt>
      <trkpt lat="47.30354" lon="-1.69707">
        <ele>59.066048</ele>
        <time>2025-09-02T16:12:10.826Z</time>
      </trkpt>
      <trkpt lat="47.3036" lon="-1.69647">
        <ele>59.264963</ele>
        <time>2025-09-02T16:12:20.860Z</time>
      </trkpt>
      <trkpt lat="47.3036" lon="-1.69623">
        <ele>59.668093</ele>
        <time>2025-09-02T16:12:25.559Z</time>
      </trkpt>
      <trkpt lat="47.30354" lon="-1.69594">
        <ele>60.190384</ele>
        <time>2025-09-02T16:12:32.366Z</time>
      </trkpt>
      <trkpt lat="47.30323" lon="-1.69528">
        <ele>61.565623</ele>
        <time>2025-09-02T16:12:54.002Z</time>
      </trkpt>
      <trkpt lat="47.30292" lon="-1.69457">
        <ele>62.994491</ele>
        <time>2025-09-02T16:13:19.537Z</time>
      </trkpt>
      <trkpt lat="47.30277" lon="-1.69406">
        <ele>63.706232</ele>
        <time>2025-09-02T16:13:35.128Z</time>
      </trkpt>
      <trkpt lat="47.30216" lon="-1.69195">
        <ele>66.156381</ele>
        <time>2025-09-02T16:14:20.674Z</time>
      </trkpt>
      <trkpt lat="47.30199" lon="-1.69132">
        <ele>65.95458</ele>
        <time>2025-09-02T16:14:31.137Z</time>
      </trkpt>
      <trkpt lat="47.30193" lon="-1.69105">
        <ele>65.871472</ele>
        <time>2025-09-02T16:14:35.243Z</time>
      </trkpt>
      <trkpt lat="47.30193" lon="-1.69035">
        <ele>65.662505</ele>
        <time>2025-09-02T16:14:45.284Z</time>
      </trkpt>
      <trkpt lat="47.30188" lon="-1.69012">
        <ele>65.587418</ele>
        <time>2025-09-02T16:14:48.799Z</time>
      </trkpt>
      <trkpt lat="47.30148" lon="-1.68897">
        <ele>65.503086</ele>
        <time>2025-09-02T16:15:07.112Z</time>
      </trkpt>
      <trkpt lat="47.30137" lon="-1.68873">
        <ele>65.578664</ele>
        <time>2025-09-02T16:15:11.284Z</time>
      </trkpt>
      <trkpt lat="47.30105" lon="-1.6883">
        <ele>65.74406</ele>
        <time>2025-09-02T16:15:21.275Z</time>
      </trkpt>
      <trkpt lat="47.30079" lon="-1.68795">
        <ele>65.877988</ele>
        <time>2025-09-02T16:15:30.708Z</time>
      </trkpt>
      <trkpt lat="47.3007" lon="-1.68774">
        <ele>65.942855</ele>
        <time>2025-09-02T16:15:35.703Z</time>
      </trkpt>
      <trkpt lat="47.30091" lon="-1.68746">
        <ele>66.048584</ele>
        <time>2025-09-02T16:15:44.589Z</time>
      </trkpt>
      <trkpt lat="47.30109" lon="-1.68729">
        <ele>66.561841</ele>
        <time>2025-09-02T16:15:51.943Z</time>
      </trkpt>
      <trkpt lat="47.30137" lon="-1.68721">
        <ele>67.265695</ele>
        <time>2025-09-02T16:16:02.257Z</time>
      </trkpt>
      <trkpt lat="47.30228" lon="-1.68669">
        <ele>69.633367</ele>
        <time>2025-09-02T16:16:39.402Z</time>
      </trkpt>
      <trkpt lat="47.30294" lon="-1.68643">
        <ele>70.792401</ele>
        <time>2025-09-02T16:17:02.096Z</time>
      </trkpt>
      <trkpt lat="47.30349" lon="-1.68632">
        <ele>71.385179</ele>
        <time>2025-09-02T16:17:18.257Z</time>
      </trkpt>
      <trkpt lat="47.3049" lon="-1.68627">
        <ele>72.614234</ele>
        <time>2025-09-02T16:17:53.783Z</time>
      </trkpt>
      <trkpt lat="47.30553" lon="-1.68615">
        <ele>72.964501</ele>
        <time>2025-09-02T16:18:10.156Z</time>
      </trkpt>
      <trkpt lat="47.30622" lon="-1.68601">
        <ele>73.338752</ele>
        <time>2025-09-02T16:18:28.843Z</time>
      </trkpt>
      <trkpt lat="47.3064" lon="-1.6859">
        <ele>73.400562</ele>
        <time>2025-09-02T16:18:34.018Z</time>
      </trkpt>
      <trkpt lat="47.3066" lon="-1.68572">
        <ele>73.472871</ele>
        <time>2025-09-02T16:18:40.053Z</time>
      </trkpt>
      <trkpt lat="47.30661" lon="-1.68549">
        <ele>73.522351</ele>
        <time>2025-09-02T16:18:44.147Z</time>
      </trkpt>
      <trkpt lat="47.30676" lon="-1.68502">
        <ele>73.634183</ele>
        <time>2025-09-02T16:18:53.084Z</time>
      </trkpt>
      <trkpt lat="47.30705" lon="-1.68414">
        <ele>73.843481</ele>
        <time>2025-09-02T16:19:08.761Z</time>
      </trkpt>
      <trkpt lat="47.30752" lon="-1.68215">
        <ele>73.600798</ele>
        <time>2025-09-02T16:19:40.787Z</time>
      </trkpt>
      <trkpt lat="47.30639" lon="-1.68115">
        <ele>73.307312</ele>
        <time>2025-09-02T16:20:28.670Z</time>
      </trkpt>
      <trkpt lat="47.30622" lon="-1.68049">
        <ele>73.201418</ele>
        <time>2025-09-02T16:20:46.156Z</time>
      </trkpt>
      <trkpt lat="47.30538" lon="-1.67735">
        <ele>72.560369</ele>
        <time>2025-09-02T16:22:09.631Z</time>
      </trkpt>
      <trkpt lat="47.30535" lon="-1.67717">
        <ele>72.432953</ele>
        <time>2025-09-02T16:22:13.995Z</time>
      </trkpt>
      <trkpt lat="47.3055" lon="-1.67655">
        <ele>71.88052</ele>
        <time>2025-09-02T16:22:29.610Z</time>
      </trkpt>
      <trkpt lat="47.30554" lon="-1.67643">
        <ele>71.766607</ele>
        <time>2025-09-02T16:22:32.795Z</time>
      </trkpt>
      <trkpt lat="47.30561" lon="-1.67368">
        <ele>69.206988</ele>
        <time>2025-09-02T16:23:34.809Z</time>
      </trkpt>
      <trkpt lat="47.30565" lon="-1.67344">
        <ele>68.937521</ele>
        <time>2025-09-02T16:23:40.352Z</time>
      </trkpt>
      <trkpt lat="47.3058" lon="-1.67308">
        <ele>68.485215</ele>
        <time>2025-09-02T16:23:49.713Z</time>
      </trkpt>
      <trkpt lat="47.30657" lon="-1.67075">
        <ele>66.19105</ele>
        <time>2025-09-02T16:24:48.686Z</time>
      </trkpt>
      <trkpt lat="47.30673" lon="-1.67035">
        <ele>65.839329</ele>
        <time>2025-09-02T16:24:59.476Z</time>
      </trkpt>
      <trkpt lat="47.30723" lon="-1.67048">
        <ele>65.487875</ele>
        <time>2025-09-02T16:25:17.454Z</time>
      </trkpt>
      <trkpt lat="47.3078" lon="-1.67055">
        <ele>65.782509</ele>
        <time>2025-09-02T16:25:38.876Z</time>
      </trkpt>
      <trkpt lat="47.30803" lon="-1.67063">
        <ele>65.901745</ele>
        <time>2025-09-02T16:25:48.101Z</time>
      </trkpt>
      <trkpt lat="47.30896" lon="-1.67125">
        <ele>66.602878</ele>
        <time>2025-09-02T16:26:30.915Z</time>
      </trkpt>
      <trkpt lat="47.31008" lon="-1.67194">
        <ele>68.589975</ele>
        <time>2025-09-02T16:27:26.488Z</time>
      </trkpt>
      <trkpt lat="47.31063" lon="-1.67264">
        <ele>69.704279</ele>
        <time>2025-09-02T16:28:00.533Z</time>
      </trkpt>
      <trkpt lat="47.31147" lon="-1.67343">
        <ele>71.12747</ele>
        <time>2025-09-02T16:28:46.543Z</time>
      </trkpt>
      <trkpt lat="47.31186" lon="-1.67362">
        <ele>71.721043</ele>
        <time>2025-09-02T16:29:03.949Z</time>
      </trkpt>
      <trkpt lat="47.31213" lon="-1.67368">
        <ele>71.698059</ele>
        <time>2025-09-02T16:29:14.670Z</time>
      </trkpt>
      <trkpt lat="47.3132" lon="-1.67359">
        <ele>70.901862</ele>
        <time>2025-09-02T16:29:52.296Z</time>
      </trkpt>
      <trkpt lat="47.31346" lon="-1.6736">
        <ele>70.708634</ele>
        <time>2025-09-02T16:30:00.886Z</time>
      </trkpt>
      <trkpt lat="47.31364" lon="-1.67363">
        <ele>70.571122</ele>
        <time>2025-09-02T16:30:07.012Z</time>
      </trkpt>
      <trkpt lat="47.31404" lon="-1.6738">
        <ele>69.909991</ele>
        <time>2025-09-02T16:30:20.745Z</time>
      </trkpt>
      <trkpt lat="47.31425" lon="-1.67372">
        <ele>69.523436</ele>
        <time>2025-09-02T16:30:27.727Z</time>
      </trkpt>
      <trkpt lat="47.31459" lon="-1.67347">
        <ele>68.822283</ele>
        <time>2025-09-02T16:30:40.306Z</time>
      </trkpt>
      <trkpt lat="47.31502" lon="-1.67322">
        <ele>67.975668</ele>
        <time>2025-09-02T16:30:55.534Z</time>
      </trkpt>
      <trkpt lat="47.31545" lon="-1.67273">
        <ele>66.851254</ele>
        <time>2025-09-02T16:31:06.091Z</time>
      </trkpt>
      <trkpt lat="47.31574" lon="-1.67248">
        <ele>65.889476</ele>
        <time>2025-09-02T16:31:12.378Z</time>
      </trkpt>
      <trkpt lat="47.31642" lon="-1.67209">
        <ele>63.780459</ele>
        <time>2025-09-02T16:31:35.224Z</time>
      </trkpt>
      <trkpt lat="47.31668" lon="-1.67161">
        <ele>62.579753</ele>
        <time>2025-09-02T16:31:47.945Z</time>
      </trkpt>
      <trkpt lat="47.31676" lon="-1.67125">
        <ele>61.754506</ele>
        <time>2025-09-02T16:31:55.691Z</time>
      </trkpt>
      <trkpt lat="47.3168" lon="-1.67017">
        <ele>58.610088</ele>
        <time>2025-09-02T16:32:17.368Z</time>
      </trkpt>
      <trkpt lat="47.31689" lon="-1.66998">
        <ele>57.935988</ele>
        <time>2025-09-02T16:32:21.992Z</time>
      </trkpt>
      <trkpt lat="47.31703" lon="-1.66984">
        <ele>57.22968</ele>
        <time>2025-09-02T16:32:26.820Z</time>
      </trkpt>
      <trkpt lat="47.31734" lon="-1.66962">
        <ele>55.751381</ele>
        <time>2025-09-02T16:32:36.972Z</time>
      </trkpt>
      <trkpt lat="47.31757" lon="-1.66953">
        <ele>54.71559</ele>
        <time>2025-09-02T16:32:44.093Z</time>
      </trkpt>
      <trkpt lat="47.31771" lon="-1.66944">
        <ele>54.070715</ele>
        <time>2025-09-02T16:32:48.425Z</time>
      </trkpt>
      <trkpt lat="47.3178" lon="-1.66932">
        <ele>53.523582</ele>
        <time>2025-09-02T16:32:51.985Z</time>
      </trkpt>
      <trkpt lat="47.3179" lon="-1.66917">
        <ele>52.884444</ele>
        <time>2025-09-02T16:32:56.124Z</time>
      </trkpt>
      <trkpt lat="47.31838" lon="-1.66814">
        <ele>49.050097</ele>
        <time>2025-09-02T16:33:20.991Z</time>
      </trkpt>
      <trkpt lat="47.31909" lon="-1.6672">
        <ele>44.698905</ele>
        <time>2025-09-02T16:33:48.705Z</time>
      </trkpt>
      <trkpt lat="47.31951" lon="-1.66625">
        <ele>41.108835</ele>
        <time>2025-09-02T16:34:10.991Z</time>
      </trkpt>
      <trkpt lat="47.3197" lon="-1.66593">
        <ele>39.751998</ele>
        <time>2025-09-02T16:34:19.518Z</time>
      </trkpt>
      <trkpt lat="47.31993" lon="-1.66562">
        <ele>38.315142</ele>
        <time>2025-09-02T16:34:28.581Z</time>
      </trkpt>
      <trkpt lat="47.32019" lon="-1.66548">
        <ele>37.205047</ele>
        <time>2025-09-02T16:34:36.696Z</time>
      </trkpt>
      <trkpt lat="47.32024" lon="-1.6653">
        <ele>36.727027</ele>
        <time>2025-09-02T16:34:40.577Z</time>
      </trkpt>
      <trkpt lat="47.32042" lon="-1.66443">
        <ele>34.477345</ele>
        <time>2025-09-02T16:34:58.903Z</time>
      </trkpt>
      <trkpt lat="47.32077" lon="-1.66329">
        <ele>31.375258</ele>
        <time>2025-09-02T16:35:24.747Z</time>
      </trkpt>
      <trkpt lat="47.32106" lon="-1.66217">
        <ele>29.93538</ele>
        <time>2025-09-02T16:35:50.938Z</time>
      </trkpt>
      <trkpt lat="47.32114" lon="-1.66194">
        <ele>29.65064</ele>
        <time>2025-09-02T16:35:56.541Z</time>
      </trkpt>
      <trkpt lat="47.32136" lon="-1.66157">
        <ele>29.087343</ele>
        <time>2025-09-02T16:36:07.836Z</time>
      </trkpt>
      <trkpt lat="47.32152" lon="-1.66141">
        <ele>28.75831</ele>
        <time>2025-09-02T16:36:14.555Z</time>
      </trkpt>
      <trkpt lat="47.32169" lon="-1.6618">
        <ele>28.230507</ele>
        <time>2025-09-02T16:36:21.289Z</time>
      </trkpt>
      <trkpt lat="47.32202" lon="-1.66233">
        <ele>28.835417</ele>
        <time>2025-09-02T16:36:32.373Z</time>
      </trkpt>
      <trkpt lat="47.32212" lon="-1.66241">
        <ele>28.972428</ele>
        <time>2025-09-02T16:36:35.054Z</time>
      </trkpt>
      <trkpt lat="47.32219" lon="-1.66248">
        <ele>29.085669</ele>
        <time>2025-09-02T16:36:37.365Z</time>
      </trkpt>
      <trkpt lat="47.32236" lon="-1.6633">
        <ele>29.811407</ele>
        <time>2025-09-02T16:36:54.061Z</time>
      </trkpt>
      <trkpt lat="47.32247" lon="-1.66361">
        <ele>30.107426</ele>
        <time>2025-09-02T16:37:01.903Z</time>
      </trkpt>
      <trkpt lat="47.32378" lon="-1.66641">
        <ele>38.181413</ele>
        <time>2025-09-02T16:38:39.470Z</time>
      </trkpt>
      <trkpt lat="47.32391" lon="-1.66653">
        <ele>38.743885</ele>
        <time>2025-09-02T16:38:47.273Z</time>
      </trkpt>
      <trkpt lat="47.32406" lon="-1.66659">
        <ele>39.352498</ele>
        <time>2025-09-02T16:38:55.712Z</time>
      </trkpt>
      <trkpt lat="47.32448" lon="-1.66659">
        <ele>40.916259</ele>
        <time>2025-09-02T16:39:16.231Z</time>
      </trkpt>
      <trkpt lat="47.32461" lon="-1.66666">
        <ele>41.41405</ele>
        <time>2025-09-02T16:39:22.358Z</time>
      </trkpt>
      <trkpt lat="47.32471" lon="-1.66679">
        <ele>41.927663</ele>
        <time>2025-09-02T16:39:28.414Z</time>
      </trkpt>
      <trkpt lat="47.32501" lon="-1.6673">
        <ele>43.596562</ele>
        <time>2025-09-02T16:39:46.068Z</time>
      </trkpt>
      <trkpt lat="47.32582" lon="-1.6684">
        <ele>45.11168</ele>
        <time>2025-09-02T16:40:13.785Z</time>
      </trkpt>
      <trkpt lat="47.32614" lon="-1.66886">
        <ele>45.579816</ele>
        <time>2025-09-02T16:40:24.707Z</time>
      </trkpt>
      <trkpt lat="47.3271" lon="-1.67059">
        <ele>48.250854</ele>
        <time>2025-09-02T16:41:14.798Z</time>
      </trkpt>
      <trkpt lat="47.32771" lon="-1.67152">
        <ele>49.934746</ele>
        <time>2025-09-02T16:41:45.317Z</time>
      </trkpt>
      <trkpt lat="47.32799" lon="-1.67188">
        <ele>50.57991</ele>
        <time>2025-09-02T16:41:57.411Z</time>
      </trkpt>
      <trkpt lat="47.32841" lon="-1.67237">
        <ele>51.524052</ele>
        <time>2025-09-02T16:42:14.887Z</time>
      </trkpt>
      <trkpt lat="47.32854" lon="-1.67247">
        <ele>51.781542</ele>
        <time>2025-09-02T16:42:19.699Z</time>
      </trkpt>
      <trkpt lat="47.32957" lon="-1.673">
        <ele>53.746899</ele>
        <time>2025-09-02T16:42:51.674Z</time>
      </trkpt>
      <trkpt lat="47.33002" lon="-1.67342">
        <ele>54.741875</ele>
        <time>2025-09-02T16:43:07.599Z</time>
      </trkpt>
      <trkpt lat="47.3303" lon="-1.6736">
        <ele>55.306583</ele>
        <time>2025-09-02T16:43:17.541Z</time>
      </trkpt>
      <trkpt lat="47.33046" lon="-1.6737">
        <ele>55.620902</ele>
        <time>2025-09-02T16:43:23.365Z</time>
      </trkpt>
      <trkpt lat="47.33066" lon="-1.67374">
        <ele>55.985705</ele>
        <time>2025-09-02T16:43:30.392Z</time>
      </trkpt>
      <trkpt lat="47.33275" lon="-1.67602">
        <ele>65.046992</ele>
        <time>2025-09-02T16:45:56.877Z</time>
      </trkpt>
      <trkpt lat="47.33374" lon="-1.67708">
        <ele>68.542074</ele>
        <time>2025-09-02T16:46:59.387Z</time>
      </trkpt>
      <trkpt lat="47.33499" lon="-1.6785">
        <ele>70.888334</ele>
        <time>2025-09-02T16:48:07.957Z</time>
      </trkpt>
      <trkpt lat="47.33711" lon="-1.68089">
        <ele>72.144</ele>
        <time>2025-09-02T16:49:52.963Z</time>
      </trkpt>
      <trkpt lat="47.33949" lon="-1.68344">
        <ele>72.629084</ele>
        <time>2025-09-02T16:51:43.365Z</time>
      </trkpt>
      <trkpt lat="47.34027" lon="-1.68429">
        <ele>72.802369</ele>
        <time>2025-09-02T16:52:20.363Z</time>
      </trkpt>
      <trkpt lat="47.34201" lon="-1.68625">
        <ele>73.076421</ele>
        <time>2025-09-02T16:53:43.491Z</time>
      </trkpt>
      <trkpt lat="47.34475" lon="-1.68501">
        <ele>72.606012</ele>
        <time>2025-09-02T16:55:28.202Z</time>
      </trkpt>
      <trkpt lat="47.3472" lon="-1.68393">
        <ele>72.015123</ele>
        <time>2025-09-02T16:57:01.509Z</time>
      </trkpt>
      <trkpt lat="47.34841" lon="-1.68339">
        <ele>71.478874</ele>
        <time>2025-09-02T16:57:46.634Z</time>
      </trkpt>
      <trkpt lat="47.3489" lon="-1.68319">
        <ele>71.247016</ele>
        <time>2025-09-02T16:57:57.638Z</time>
      </trkpt>
      <trkpt lat="47.3494" lon="-1.68293">
        <ele>71.025071</ele>
        <time>2025-09-02T16:58:16.778Z</time>
      </trkpt>
      <trkpt lat="47.35585" lon="-1.68008">
        <ele>68.318001</ele>
        <time>2025-09-02T17:02:19.191Z</time>
      </trkpt>
      <trkpt lat="47.35865" lon="-1.67257">
        <ele>62.888268</ele>
        <time>2025-09-02T17:05:39.510Z</time>
      </trkpt>
      <trkpt lat="47.35866" lon="-1.67253">
        <ele>62.869259</ele>
        <time>2025-09-02T17:05:40.783Z</time>
      </trkpt>
      <trkpt lat="47.35932" lon="-1.67077">
        <ele>62.131259</ele>
        <time>2025-09-02T17:06:29.400Z</time>
      </trkpt>
      <trkpt lat="47.35935" lon="-1.67069">
        <ele>62.096292</ele>
        <time>2025-09-02T17:06:30.899Z</time>
      </trkpt>
      <trkpt lat="47.36003" lon="-1.66886">
        <ele>61.574709</ele>
        <time>2025-09-02T17:07:03.693Z</time>
      </trkpt>
      <trkpt lat="47.3601" lon="-1.66863">
        <ele>61.516797</ele>
        <time>2025-09-02T17:07:07.346Z</time>
      </trkpt>
      <trkpt lat="47.36402" lon="-1.66945">
        <ele>62.880321</ele>
        <time>2025-09-02T17:09:41.007Z</time>
      </trkpt>
      <trkpt lat="47.36414" lon="-1.66946">
        <ele>63.046569</ele>
        <time>2025-09-02T17:09:46.348Z</time>
      </trkpt>
      <trkpt lat="47.3642" lon="-1.66942">
        <ele>63.146789</ele>
        <time>2025-09-02T17:09:49.569Z</time>
      </trkpt>
      <trkpt lat="47.36424" lon="-1.66949">
        <ele>63.22603</ele>
        <time>2025-09-02T17:09:52.106Z</time>
      </trkpt>
      <trkpt lat="47.36431" lon="-1.66953">
        <ele>63.339</ele>
        <time>2025-09-02T17:09:55.789Z</time>
      </trkpt>
      <trkpt lat="47.36607" lon="-1.66987">
        <ele>65.527266</ele>
        <time>2025-09-02T17:11:15.273Z</time>
      </trkpt>
      <trkpt lat="47.36627" lon="-1.66996">
        <ele>65.663538</ele>
        <time>2025-09-02T17:11:24.042Z</time>
      </trkpt>
      <trkpt lat="47.36628" lon="-1.67002">
        <ele>65.691335</ele>
        <time>2025-09-02T17:11:25.789Z</time>
      </trkpt>
      <trkpt lat="47.36647" lon="-1.66996">
        <ele>65.824423</ele>
        <time>2025-09-02T17:11:31.354Z</time>
      </trkpt>
      <trkpt lat="47.36684" lon="-1.66992">
        <ele>66.067215</ele>
        <time>2025-09-02T17:11:41.189Z</time>
      </trkpt>
      <trkpt lat="47.36896" lon="-1.66975">
        <ele>65.793547</ele>
        <time>2025-09-02T17:12:29.400Z</time>
      </trkpt>
      <trkpt lat="47.36944" lon="-1.6697">
        <ele>65.310362</ele>
        <time>2025-09-02T17:12:39.277Z</time>
      </trkpt>
      <trkpt lat="47.37141" lon="-1.66953">
        <ele>61.156659</ele>
        <time>2025-09-02T17:13:16.657Z</time>
      </trkpt>
      <trkpt lat="47.37189" lon="-1.66953">
        <ele>60.077827</ele>
        <time>2025-09-02T17:13:25.311Z</time>
      </trkpt>
      <trkpt lat="47.37253" lon="-1.66942">
        <ele>58.599537</ele>
        <time>2025-09-02T17:13:37.374Z</time>
      </trkpt>
      <trkpt lat="47.37556" lon="-1.66831">
        <ele>53.525498</ele>
        <time>2025-09-02T17:14:39.903Z</time>
      </trkpt>
      <trkpt lat="47.37594" lon="-1.66813">
        <ele>52.849267</ele>
        <time>2025-09-02T17:14:47.725Z</time>
      </trkpt>
      <trkpt lat="47.3762" lon="-1.66796">
        <ele>52.361468</ele>
        <time>2025-09-02T17:14:53.267Z</time>
      </trkpt>
      <trkpt lat="47.37853" lon="-1.66759">
        <ele>47.330131</ele>
        <time>2025-09-02T17:15:37.278Z</time>
      </trkpt>
      <trkpt lat="47.37913" lon="-1.66754">
        <ele>46.267717</ele>
        <time>2025-09-02T17:15:48.647Z</time>
      </trkpt>
      <trkpt lat="47.37917" lon="-1.6674">
        <ele>46.077499</ele>
        <time>2025-09-02T17:15:50.685Z</time>
      </trkpt>
      <trkpt lat="47.37944" lon="-1.66556">
        <ele>45.169054</ele>
        <time>2025-09-02T17:16:16.966Z</time>
      </trkpt>
      <trkpt lat="47.37943" lon="-1.66542">
        <ele>45.215419</ele>
        <time>2025-09-02T17:16:19.308Z</time>
      </trkpt>
      <trkpt lat="47.37866" lon="-1.66369">
        <ele>46.112594</ele>
        <time>2025-09-02T17:17:01.984Z</time>
      </trkpt>
      <trkpt lat="47.37862" lon="-1.66357">
        <ele>46.219371</ele>
        <time>2025-09-02T17:17:04.736Z</time>
      </trkpt>
      <trkpt lat="47.37862" lon="-1.66326">
        <ele>46.465094</ele>
        <time>2025-09-02T17:17:10.918Z</time>
      </trkpt>
      <trkpt lat="47.37893" lon="-1.66184">
        <ele>47.637418</ele>
        <time>2025-09-02T17:17:39.148Z</time>
      </trkpt>
      <trkpt lat="47.37871" lon="-1.66153">
        <ele>48.007833</ele>
        <time>2025-09-02T17:17:47.596Z</time>
      </trkpt>
      <trkpt lat="47.37789" lon="-1.65958">
        <ele>49.981166</ele>
        <time>2025-09-02T17:18:34.575Z</time>
      </trkpt>
      <trkpt lat="47.37765" lon="-1.65908">
        <ele>50.345312</ele>
        <time>2025-09-02T17:18:46.689Z</time>
      </trkpt>
      <trkpt lat="47.37682" lon="-1.65762">
        <ele>51.195047</ele>
        <time>2025-09-02T17:19:20.038Z</time>
      </trkpt>
      <trkpt lat="47.37648" lon="-1.65718">
        <ele>51.451007</ele>
        <time>2025-09-02T17:19:31.215Z</time>
      </trkpt>
      <trkpt lat="47.37626" lon="-1.65699">
        <ele>51.578024</ele>
        <time>2025-09-02T17:19:37.823Z</time>
      </trkpt>
      <trkpt lat="47.37606" lon="-1.65675">
        <ele>51.701018</ele>
        <time>2025-09-02T17:19:44.338Z</time>
      </trkpt>
      <trkpt lat="47.37599" lon="-1.65661">
        <ele>51.75674</ele>
        <time>2025-09-02T17:19:47.300Z</time>
      </trkpt>
      <trkpt lat="47.37593" lon="-1.65636">
        <ele>51.842014</ele>
        <time>2025-09-02T17:19:51.824Z</time>
      </trkpt>
      <trkpt lat="47.37553" lon="-1.65368">
        <ele>52.497352</ele>
        <time>2025-09-02T17:20:40.162Z</time>
      </trkpt>
      <trkpt lat="47.37548" lon="-1.65316">
        <ele>52.588863</ele>
        <time>2025-09-02T17:20:48.503Z</time>
      </trkpt>
      <trkpt lat="47.37547" lon="-1.6527">
        <ele>52.670248</ele>
        <time>2025-09-02T17:20:55.624Z</time>
      </trkpt>
      <trkpt lat="47.37552" lon="-1.65195">
        <ele>52.215672</ele>
        <time>2025-09-02T17:21:06.761Z</time>
      </trkpt>
      <trkpt lat="47.37566" lon="-1.65116">
        <ele>51.669835</ele>
        <time>2025-09-02T17:21:18.193Z</time>
      </trkpt>
      <trkpt lat="47.37568" lon="-1.65092">
        <ele>51.509558</ele>
        <time>2025-09-02T17:21:21.456Z</time>
      </trkpt>
      <trkpt lat="47.37565" lon="-1.65067">
        <ele>51.337772</ele>
        <time>2025-09-02T17:21:24.948Z</time>
      </trkpt>
      <trkpt lat="47.37554" lon="-1.65044">
        <ele>51.151325</ele>
        <time>2025-09-02T17:21:28.723Z</time>
      </trkpt>
      <trkpt lat="47.37546" lon="-1.65035">
        <ele>51.050946</ele>
        <time>2025-09-02T17:21:30.754Z</time>
      </trkpt>
      <trkpt lat="47.37488" lon="-1.6499">
        <ele>50.067762</ele>
        <time>2025-09-02T17:21:44.018Z</time>
      </trkpt>
      <trkpt lat="47.37529" lon="-1.64882">
        <ele>48.693541</ele>
        <time>2025-09-02T17:21:59.824Z</time>
      </trkpt>
      <trkpt lat="47.37531" lon="-1.64869">
        <ele>48.551419</ele>
        <time>2025-09-02T17:22:01.439Z</time>
      </trkpt>
      <trkpt lat="47.37531" lon="-1.64857">
        <ele>48.409174</ele>
        <time>2025-09-02T17:22:03.050Z</time>
      </trkpt>
      <trkpt lat="47.37525" lon="-1.64825">
        <ele>48.044895</ele>
        <time>2025-09-02T17:22:07.154Z</time>
      </trkpt>
      <trkpt lat="47.37494" lon="-1.64702">
        <ele>46.816363</ele>
        <time>2025-09-02T17:22:23.361Z</time>
      </trkpt>
      <trkpt lat="47.37487" lon="-1.64674">
        <ele>46.533632</ele>
        <time>2025-09-02T17:22:27.199Z</time>
      </trkpt>
      <trkpt lat="47.37481" lon="-1.64652">
        <ele>46.318527</ele>
        <time>2025-09-02T17:22:30.199Z</time>
      </trkpt>
      <trkpt lat="47.37471" lon="-1.64609">
        <ele>45.897368</ele>
        <time>2025-09-02T17:22:36.308Z</time>
      </trkpt>
      <trkpt lat="47.37471" lon="-1.64607">
        <ele>45.874992</ele>
        <time>2025-09-02T17:22:36.640Z</time>
      </trkpt>
      <trkpt lat="47.37462" lon="-1.64582">
        <ele>45.616467</ele>
        <time>2025-09-02T17:22:40.586Z</time>
      </trkpt>
      <trkpt lat="47.37457" lon="-1.64569">
        <ele>45.49541</ele>
        <time>2025-09-02T17:22:42.746Z</time>
      </trkpt>
      <trkpt lat="47.3745" lon="-1.64566">
        <ele>45.545048</ele>
        <time>2025-09-02T17:22:44.453Z</time>
      </trkpt>
      <trkpt lat="47.37446" lon="-1.64562">
        <ele>45.578166</ele>
        <time>2025-09-02T17:22:45.607Z</time>
      </trkpt>
      <trkpt lat="47.37442" lon="-1.64549">
        <ele>45.643292</ele>
        <time>2025-09-02T17:22:47.960Z</time>
      </trkpt>
      <trkpt lat="47.37443" lon="-1.64534">
        <ele>45.708528</ele>
        <time>2025-09-02T17:22:50.410Z</time>
      </trkpt>
      <trkpt lat="47.37437" lon="-1.64506">
        <ele>45.841775</ele>
        <time>2025-09-02T17:22:56.946Z</time>
      </trkpt>
      <trkpt lat="47.37431" lon="-1.64494">
        <ele>45.911587</ele>
        <time>2025-09-02T17:23:00.468Z</time>
      </trkpt>
      <trkpt lat="47.3743" lon="-1.64487">
        <ele>45.942048</ele>
        <time>2025-09-02T17:23:01.722Z</time>
      </trkpt>
      <trkpt lat="47.37386" lon="-1.64385">
        <ele>46.488038</ele>
        <time>2025-09-02T17:23:24.977Z</time>
      </trkpt>
      <trkpt lat="47.37372" lon="-1.64351">
        <ele>46.665189</ele>
        <time>2025-09-02T17:23:32.475Z</time>
      </trkpt>
      <trkpt lat="47.37248" lon="-1.64">
        <ele>47.446498</ele>
        <time>2025-09-02T17:24:36.610Z</time>
      </trkpt>
      <trkpt lat="47.37256" lon="-1.63947">
        <ele>47.447425</ele>
        <time>2025-09-02T17:24:44.471Z</time>
      </trkpt>
      <trkpt lat="47.37266" lon="-1.639">
        <ele>47.448265</ele>
        <time>2025-09-02T17:24:51.603Z</time>
      </trkpt>
      <trkpt lat="47.37268" lon="-1.63872">
        <ele>47.448732</ele>
        <time>2025-09-02T17:24:55.557Z</time>
      </trkpt>
      <trkpt lat="47.37266" lon="-1.63866">
        <ele>47.448851</ele>
        <time>2025-09-02T17:24:56.577Z</time>
      </trkpt>
      <trkpt lat="47.3729" lon="-1.63758">
        <ele>47.289198</ele>
        <time>2025-09-02T17:25:13.088Z</time>
      </trkpt>
      <trkpt lat="47.37306" lon="-1.63666">
        <ele>47.154004</ele>
        <time>2025-09-02T17:25:27.598Z</time>
      </trkpt>
      <trkpt lat="47.37319" lon="-1.63588">
        <ele>46.959248</ele>
        <time>2025-09-02T17:25:39.186Z</time>
      </trkpt>
      <trkpt lat="47.37324" lon="-1.63538">
        <ele>46.698604</ele>
        <time>2025-09-02T17:25:46.306Z</time>
      </trkpt>
      <trkpt lat="47.37336" lon="-1.63535">
        <ele>46.603783</ele>
        <time>2025-09-02T17:25:48.864Z</time>
      </trkpt>
      <trkpt lat="47.37344" lon="-1.63546">
        <ele>46.52489</ele>
        <time>2025-09-02T17:25:50.983Z</time>
      </trkpt>
      <trkpt lat="47.37354" lon="-1.63549">
        <ele>46.442402</ele>
        <time>2025-09-02T17:25:53.204Z</time>
      </trkpt>
      <trkpt lat="47.37369" lon="-1.63546">
        <ele>46.328263</ele>
        <time>2025-09-02T17:25:56.266Z</time>
      </trkpt>
      <trkpt lat="47.37386" lon="-1.63532">
        <ele>46.180842</ele>
        <time>2025-09-02T17:26:00.226Z</time>
      </trkpt>
      <trkpt lat="47.37432" lon="-1.63482">
        <ele>45.75116</ele>
        <time>2025-09-02T17:26:11.519Z</time>
      </trkpt>
      <trkpt lat="47.37464" lon="-1.6342">
        <ele>45.159473</ele>
        <time>2025-09-02T17:26:21.941Z</time>
      </trkpt>
      <trkpt lat="47.37533" lon="-1.63541">
        <ele>43.930154</ele>
        <time>2025-09-02T17:26:58.434Z</time>
      </trkpt>
      <trkpt lat="47.376" lon="-1.6367">
        <ele>42.903891</ele>
        <time>2025-09-02T17:27:36.309Z</time>
      </trkpt>
      <trkpt lat="47.37649" lon="-1.63751">
        <ele>42.269842</ele>
        <time>2025-09-02T17:28:02.061Z</time>
      </trkpt>
      <trkpt lat="47.37694" lon="-1.63796">
        <ele>41.850988</ele>
        <time>2025-09-02T17:28:21.521Z</time>
      </trkpt>
      <trkpt lat="47.37805" lon="-1.63884">
        <ele>40.967857</ele>
        <time>2025-09-02T17:29:05.711Z</time>
      </trkpt>
      <trkpt lat="47.37976" lon="-1.637">
        <ele>39.423059</ele>
        <time>2025-09-02T17:30:19.468Z</time>
      </trkpt>
      <trkpt lat="47.37998" lon="-1.63676">
        <ele>39.395119</ele>
        <time>2025-09-02T17:30:29.264Z</time>
      </trkpt>
      <trkpt lat="47.38007" lon="-1.6366">
        <ele>39.3805</ele>
        <time>2025-09-02T17:30:34.440Z</time>
      </trkpt>
      <trkpt lat="47.37992" lon="-1.63613">
        <ele>39.344247</ele>
        <time>2025-09-02T17:30:47.376Z</time>
      </trkpt>
      <trkpt lat="47.37888" lon="-1.63347">
        <ele>39.900424</ele>
        <time>2025-09-02T17:32:07.926Z</time>
      </trkpt>
      <trkpt lat="47.37774" lon="-1.6328">
        <ele>40.029559</ele>
        <time>2025-09-02T17:32:59.088Z</time>
      </trkpt>
      <trkpt lat="47.37792" lon="-1.63262">
        <ele>39.944221</ele>
        <time>2025-09-02T17:33:04.349Z</time>
      </trkpt>
      <trkpt lat="47.37835" lon="-1.63231">
        <ele>39.764408</ele>
        <time>2025-09-02T17:33:14.522Z</time>
      </trkpt>
      <trkpt lat="47.37988" lon="-1.63168">
        <ele>37.728641</ele>
        <time>2025-09-02T17:33:45.288Z</time>
      </trkpt>
      <trkpt lat="47.38069" lon="-1.63146">
        <ele>36.374948</ele>
        <time>2025-09-02T17:34:01.609Z</time>
      </trkpt>
      <trkpt lat="47.38074" lon="-1.63149">
        <ele>36.321345</ele>
        <time>2025-09-02T17:34:02.603Z</time>
      </trkpt>
      <trkpt lat="47.38204" lon="-1.63038">
        <ele>34.702158</ele>
        <time>2025-09-02T17:34:54.430Z</time>
      </trkpt>
      <trkpt lat="47.38287" lon="-1.62956">
        <ele>33.869287</ele>
        <time>2025-09-02T17:35:29.097Z</time>
      </trkpt>
      <trkpt lat="47.38355" lon="-1.62856">
        <ele>33.136905</ele>
        <time>2025-09-02T17:36:02.487Z</time>
      </trkpt>
      <trkpt lat="47.38405" lon="-1.62775">
        <ele>33.59068</ele>
        <time>2025-09-02T17:36:30.641Z</time>
      </trkpt>
      <trkpt lat="47.38358" lon="-1.62685">
        <ele>34.05516</ele>
        <time>2025-09-02T17:37:02.876Z</time>
      </trkpt>
      <trkpt lat="47.38344" lon="-1.62665">
        <ele>34.177968</ele>
        <time>2025-09-02T17:37:11.749Z</time>
      </trkpt>
      <trkpt lat="47.38279" lon="-1.62597">
        <ele>35.020913</ele>
        <time>2025-09-02T17:37:46.931Z</time>
      </trkpt>
      <trkpt lat="47.381" lon="-1.62423">
        <ele>36.556572</ele>
        <time>2025-09-02T17:39:16.318Z</time>
      </trkpt>
      <trkpt lat="47.38076" lon="-1.62406">
        <ele>36.644923</ele>
        <time>2025-09-02T17:39:25.993Z</time>
      </trkpt>
      <trkpt lat="47.38153" lon="-1.623">
        <ele>36.462794</ele>
        <time>2025-09-02T17:40:02.925Z</time>
      </trkpt>
      <trkpt lat="47.3817" lon="-1.62271">
        <ele>36.3109</ele>
        <time>2025-09-02T17:40:12.171Z</time>
      </trkpt>
      <trkpt lat="47.38221" lon="-1.62177">
        <ele>35.84318</ele>
        <time>2025-09-02T17:40:40.988Z</time>
      </trkpt>
      <trkpt lat="47.38232" lon="-1.62167">
        <ele>35.768104</ele>
        <time>2025-09-02T17:40:45.703Z</time>
      </trkpt>
      <trkpt lat="47.38278" lon="-1.62186">
        <ele>35.471503</ele>
        <time>2025-09-02T17:41:02.811Z</time>
      </trkpt>
      <trkpt lat="47.38321" lon="-1.62196">
        <ele>35.193849</ele>
        <time>2025-09-02T17:41:18.629Z</time>
      </trkpt>
      <trkpt lat="47.38365" lon="-1.6219">
        <ele>34.915406</ele>
        <time>2025-09-02T17:41:34.179Z</time>
      </trkpt>
      <trkpt lat="47.38413" lon="-1.62167">
        <ele>34.590715</ele>
        <time>2025-09-02T17:41:51.644Z</time>
      </trkpt>
      <trkpt lat="47.38488" lon="-1.62089">
        <ele>33.843684</ele>
        <time>2025-09-02T17:42:23.416Z</time>
      </trkpt>
      <trkpt lat="47.38574" lon="-1.62027">
        <ele>33.155142</ele>
        <time>2025-09-02T17:42:56.986Z</time>
      </trkpt>
      <trkpt lat="47.3857" lon="-1.62013">
        <ele>33.142448</ele>
        <time>2025-09-02T17:43:00.689Z</time>
      </trkpt>
      <trkpt lat="47.38551" lon="-1.61918">
        <ele>33.061718</ele>
        <time>2025-09-02T17:43:24.783Z</time>
      </trkpt>
      <trkpt lat="47.38527" lon="-1.61827">
        <ele>32.981408</ele>
        <time>2025-09-02T17:43:49.590Z</time>
      </trkpt>
      <trkpt lat="47.38714" lon="-1.61639">
        <ele>33.951878</ele>
        <time>2025-09-02T17:45:19.068Z</time>
      </trkpt>
      <trkpt lat="47.38775" lon="-1.61556">
        <ele>34.42513</ele>
        <time>2025-09-02T17:45:52.551Z</time>
      </trkpt>
      <trkpt lat="47.3887" lon="-1.61394">
        <ele>35.144917</ele>
        <time>2025-09-02T17:46:50.197Z</time>
      </trkpt>
      <trkpt lat="47.38961" lon="-1.61354">
        <ele>35.533587</ele>
        <time>2025-09-02T17:47:13.741Z</time>
      </trkpt>
      <trkpt lat="47.39003" lon="-1.6133">
        <ele>35.776222</ele>
        <time>2025-09-02T17:47:25.028Z</time>
      </trkpt>
      <trkpt lat="47.39002" lon="-1.61317">
        <ele>35.829662</ele>
        <time>2025-09-02T17:47:27.286Z</time>
      </trkpt>
      <trkpt lat="47.39028" lon="-1.61306">
        <ele>35.991726</ele>
        <time>2025-09-02T17:47:38.118Z</time>
      </trkpt>
      <trkpt lat="47.39115" lon="-1.6128">
        <ele>36.523049</ele>
        <time>2025-09-02T17:48:14.143Z</time>
      </trkpt>
      <trkpt lat="47.39216" lon="-1.61265">
        <ele>37.184552</ele>
        <time>2025-09-02T17:48:55.394Z</time>
      </trkpt>
      <trkpt lat="47.39281" lon="-1.6126">
        <ele>37.620179</ele>
        <time>2025-09-02T17:49:21.584Z</time>
      </trkpt>
      <trkpt lat="47.39349" lon="-1.61251">
        <ele>38.054811</ele>
        <time>2025-09-02T17:49:48.812Z</time>
      </trkpt>
      <trkpt lat="47.39432" lon="-1.61282">
        <ele>38.579103</ele>
        <time>2025-09-02T17:50:23.499Z</time>
      </trkpt>
      <trkpt lat="47.39606" lon="-1.61069">
        <ele>39.757834</ele>
        <time>2025-09-02T17:51:53.523Z</time>
      </trkpt>
      <trkpt lat="47.39637" lon="-1.61071">
        <ele>39.763927</ele>
        <time>2025-09-02T17:52:05.274Z</time>
      </trkpt>
      <trkpt lat="47.39648" lon="-1.61029">
        <ele>39.595988</ele>
        <time>2025-09-02T17:52:11.985Z</time>
      </trkpt>
      <trkpt lat="47.39602" lon="-1.61017">
        <ele>39.33747</ele>
        <time>2025-09-02T17:52:21.919Z</time>
      </trkpt>
      <trkpt lat="47.39362" lon="-1.6097">
        <ele>37.248938</ele>
        <time>2025-09-02T17:53:09.836Z</time>
      </trkpt>
      <trkpt lat="47.39311" lon="-1.60958">
        <ele>36.810645</ele>
        <time>2025-09-02T17:53:20.004Z</time>
      </trkpt>
      <trkpt lat="47.39285" lon="-1.60947">
        <ele>36.631552</ele>
        <time>2025-09-02T17:53:25.474Z</time>
      </trkpt>
      <trkpt lat="47.39255" lon="-1.6093">
        <ele>36.419823</ele>
        <time>2025-09-02T17:53:32.028Z</time>
      </trkpt>
      <trkpt lat="47.39237" lon="-1.60915">
        <ele>36.284842</ele>
        <time>2025-09-02T17:53:36.240Z</time>
      </trkpt>
      <trkpt lat="47.3911" lon="-1.6081">
        <ele>35.462535</ele>
        <time>2025-09-02T17:54:07.010Z</time>
      </trkpt>
      <trkpt lat="47.3908" lon="-1.60787">
        <ele>35.305304</ele>
        <time>2025-09-02T17:54:14.202Z</time>
      </trkpt>
      <trkpt lat="47.39049" lon="-1.60768">
        <ele>35.15265</ele>
        <time>2025-09-02T17:54:21.164Z</time>
      </trkpt>
      <trkpt lat="47.39065" lon="-1.60578">
        <ele>34.353395</ele>
        <time>2025-09-02T17:54:49.176Z</time>
      </trkpt>
      <trkpt lat="47.39084" lon="-1.60353">
        <ele>33.03411</ele>
        <time>2025-09-02T17:55:21.730Z</time>
      </trkpt>
      <trkpt lat="47.39089" lon="-1.60305">
        <ele>32.672426</ele>
        <time>2025-09-02T17:55:28.484Z</time>
      </trkpt>
      <trkpt lat="47.39097" lon="-1.60232">
        <ele>32.12714</ele>
        <time>2025-09-02T17:55:38.561Z</time>
      </trkpt>
      <trkpt lat="47.39095" lon="-1.60205">
        <ele>31.924884</ele>
        <time>2025-09-02T17:55:42.272Z</time>
      </trkpt>
      <trkpt lat="47.39088" lon="-1.60167">
        <ele>31.659881</ele>
        <time>2025-09-02T17:55:47.746Z</time>
      </trkpt>
      <trkpt lat="47.39074" lon="-1.60121">
        <ele>31.409509</ele>
        <time>2025-09-02T17:55:54.551Z</time>
      </trkpt>
      <trkpt lat="47.39016" lon="-1.59973">
        <ele>30.55315</ele>
        <time>2025-09-02T17:56:19.009Z</time>
      </trkpt>
      <trkpt lat="47.38996" lon="-1.59916">
        <ele>30.620351</ele>
        <time>2025-09-02T17:56:29.606Z</time>
      </trkpt>
      <trkpt lat="47.3899" lon="-1.59834">
        <ele>31.16167</ele>
        <time>2025-09-02T17:56:45.325Z</time>
      </trkpt>
      <trkpt lat="47.38989" lon="-1.59751">
        <ele>31.707249</ele>
        <time>2025-09-02T17:57:02.547Z</time>
      </trkpt>
      <trkpt lat="47.38995" lon="-1.59719">
        <ele>31.927397</ele>
        <time>2025-09-02T17:57:09.593Z</time>
      </trkpt>
      <trkpt lat="47.39007" lon="-1.59674">
        <ele>32.121158</ele>
        <time>2025-09-02T17:57:19.513Z</time>
      </trkpt>
      <trkpt lat="47.39032" lon="-1.59594">
        <ele>31.980507</ele>
        <time>2025-09-02T17:57:35.230Z</time>
      </trkpt>
      <trkpt lat="47.39036" lon="-1.59576">
        <ele>31.950209</ele>
        <time>2025-09-02T17:57:38.216Z</time>
      </trkpt>
      <trkpt lat="47.39037" lon="-1.59541">
        <ele>31.895227</ele>
        <time>2025-09-02T17:57:43.436Z</time>
      </trkpt>
      <trkpt lat="47.39009" lon="-1.59238">
        <ele>29.875484</ele>
        <time>2025-09-02T17:58:24.794Z</time>
      </trkpt>
      <trkpt lat="47.39009" lon="-1.59171">
        <ele>29.243236</ele>
        <time>2025-09-02T17:58:33.861Z</time>
      </trkpt>
      <trkpt lat="47.39013" lon="-1.59122">
        <ele>29.265802</ele>
        <time>2025-09-02T17:58:40.833Z</time>
      </trkpt>
      <trkpt lat="47.39017" lon="-1.59066">
        <ele>29.307686</ele>
        <time>2025-09-02T17:58:49.073Z</time>
      </trkpt>
      <trkpt lat="47.39019" lon="-1.58981">
        <ele>29.37139</ele>
        <time>2025-09-02T17:59:03.393Z</time>
      </trkpt>
      <trkpt lat="47.39019" lon="-1.58893">
        <ele>29.515839</ele>
        <time>2025-09-02T17:59:21.184Z</time>
      </trkpt>
      <trkpt lat="47.39017" lon="-1.58861">
        <ele>29.740542</ele>
        <time>2025-09-02T17:59:27.684Z</time>
      </trkpt>
      <trkpt lat="47.39013" lon="-1.58837">
        <ele>29.922188</ele>
        <time>2025-09-02T17:59:32.905Z</time>
      </trkpt>
      <trkpt lat="47.38992" lon="-1.58766">
        <ele>30.483349</ele>
        <time>2025-09-02T17:59:48.615Z</time>
      </trkpt>
      <trkpt lat="47.38979" lon="-1.58732">
        <ele>30.759002</ele>
        <time>2025-09-02T17:59:55.974Z</time>
      </trkpt>
      <trkpt lat="47.38957" lon="-1.58681">
        <ele>31.197949</ele>
        <time>2025-09-02T18:00:07.179Z</time>
      </trkpt>
      <trkpt lat="47.38946" lon="-1.58638">
        <ele>31.445121</ele>
        <time>2025-09-02T18:00:15.308Z</time>
      </trkpt>
      <trkpt lat="47.38936" lon="-1.58554">
        <ele>31.790185</ele>
        <time>2025-09-02T18:00:30.079Z</time>
      </trkpt>
      <trkpt lat="47.38896" lon="-1.58257">
        <ele>32.794073</ele>
        <time>2025-09-02T18:01:23.584Z</time>
      </trkpt>
      <trkpt lat="47.3888" lon="-1.58084">
        <ele>32.992393</ele>
        <time>2025-09-02T18:01:51.757Z</time>
      </trkpt>
      <trkpt lat="47.38868" lon="-1.57948">
        <ele>32.743133</ele>
        <time>2025-09-02T18:02:12.397Z</time>
      </trkpt>
      <trkpt lat="47.38848" lon="-1.57691">
        <ele>32.073293</ele>
        <time>2025-09-02T18:02:50.580Z</time>
      </trkpt>
      <trkpt lat="47.38763" lon="-1.57767">
        <ele>32.032591</ele>
        <time>2025-09-02T18:03:26.740Z</time>
      </trkpt>
      <trkpt lat="47.38621" lon="-1.57885">
        <ele>32.751456</ele>
        <time>2025-09-02T18:04:32.660Z</time>
      </trkpt>
      <trkpt lat="47.38607" lon="-1.57886">
        <ele>32.847133</ele>
        <time>2025-09-02T18:04:38.640Z</time>
      </trkpt>
      <trkpt lat="47.3853" lon="-1.57868">
        <ele>33.366797</ele>
        <time>2025-09-02T18:05:10.303Z</time>
      </trkpt>
      <trkpt lat="47.38526" lon="-1.57878">
        <ele>33.416347</ele>
        <time>2025-09-02T18:05:12.201Z</time>
      </trkpt>
      <trkpt lat="47.38447" lon="-1.57867">
        <ele>33.948438</ele>
        <time>2025-09-02T18:05:32.622Z</time>
      </trkpt>
      <trkpt lat="47.38358" lon="-1.57828">
        <ele>34.577669</ele>
        <time>2025-09-02T18:05:56.843Z</time>
      </trkpt>
      <trkpt lat="47.38358" lon="-1.57828">
        <ele>34.577669</ele>
        <time>2025-09-02T18:05:56.843Z</time>
      </trkpt>
      <trkpt lat="47.38296" lon="-1.57797">
        <ele>35.055333</ele>
        <time>2025-09-02T18:06:14.683Z</time>
      </trkpt>
      <trkpt lat="47.38272" lon="-1.57788">
        <ele>35.34084</ele>
        <time>2025-09-02T18:06:21.506Z</time>
      </trkpt>
      <trkpt lat="47.38233" lon="-1.57787">
        <ele>35.778066</ele>
        <time>2025-09-02T18:06:32.318Z</time>
      </trkpt>
      <trkpt lat="47.38219" lon="-1.57781">
        <ele>35.944905</ele>
        <time>2025-09-02T18:06:36.525Z</time>
      </trkpt>
      <trkpt lat="47.38185" lon="-1.57745">
        <ele>36.421593</ele>
        <time>2025-09-02T18:06:48.681Z</time>
      </trkpt>
      <trkpt lat="47.38105" lon="-1.57667">
        <ele>37.330156</ele>
        <time>2025-09-02T18:07:18.338Z</time>
      </trkpt>
      <trkpt lat="47.38082" lon="-1.57636">
        <ele>37.55042</ele>
        <time>2025-09-02T18:07:27.560Z</time>
      </trkpt>
      <trkpt lat="47.38075" lon="-1.57619">
        <ele>37.648179</ele>
        <time>2025-09-02T18:07:31.487Z</time>
      </trkpt>
      <trkpt lat="47.38072" lon="-1.57621">
        <ele>37.672213</ele>
        <time>2025-09-02T18:07:32.886Z</time>
      </trkpt>
      <trkpt lat="47.38064" lon="-1.57614">
        <ele>37.740912</ele>
        <time>2025-09-02T18:07:36.873Z</time>
      </trkpt>
      <trkpt lat="47.3804" lon="-1.57585">
        <ele>37.958768</ele>
        <time>2025-09-02T18:07:49.104Z</time>
      </trkpt>
      <trkpt lat="47.38007" lon="-1.57551">
        <ele>38.252435</ele>
        <time>2025-09-02T18:08:04.589Z</time>
      </trkpt>
      <trkpt lat="47.37897" lon="-1.57478">
        <ele>37.060525</ele>
        <time>2025-09-02T18:08:45.901Z</time>
      </trkpt>
      <trkpt lat="47.37839" lon="-1.57434">
        <ele>36.344809</ele>
        <time>2025-09-02T18:09:07.631Z</time>
      </trkpt>
      <trkpt lat="47.37759" lon="-1.57462">
        <ele>34.920616</ele>
        <time>2025-09-02T18:09:34.741Z</time>
      </trkpt>
      <trkpt lat="47.3763" lon="-1.5758">
        <ele>32.498491</ele>
        <time>2025-09-02T18:10:24.464Z</time>
      </trkpt>
      <trkpt lat="47.37532" lon="-1.57696">
        <ele>30.8468</ele>
        <time>2025-09-02T18:11:07.052Z</time>
      </trkpt>
      <trkpt lat="47.37495" lon="-1.57634">
        <ele>31.144749</ele>
        <time>2025-09-02T18:11:28.079Z</time>
      </trkpt>
      <trkpt lat="47.37476" lon="-1.57591">
        <ele>31.349483</ele>
        <time>2025-09-02T18:11:42.138Z</time>
      </trkpt>
      <trkpt lat="47.37351" lon="-1.57243">
        <ele>33.585616</ele>
        <time>2025-09-02T18:13:37.099Z</time>
      </trkpt>
      <trkpt lat="47.37322" lon="-1.57162">
        <ele>33.287</ele>
        <time>2025-09-02T18:13:59.256Z</time>
      </trkpt>
      <trkpt lat="47.37341" lon="-1.57121">
        <ele>33.091359</ele>
        <time>2025-09-02T18:14:10.957Z</time>
      </trkpt>
      <trkpt lat="47.3737" lon="-1.57069">
        <ele>32.830374</ele>
        <time>2025-09-02T18:14:26.373Z</time>
      </trkpt>
      <trkpt lat="47.37312" lon="-1.57058">
        <ele>32.453437</ele>
        <time>2025-09-02T18:14:46.459Z</time>
      </trkpt>
      <trkpt lat="47.37184" lon="-1.57042">
        <ele>31.340578</ele>
        <time>2025-09-02T18:15:31.889Z</time>
      </trkpt>
      <trkpt lat="47.37121" lon="-1.5683">
        <ele>29.534933</ele>
        <time>2025-09-02T18:16:03.439Z</time>
      </trkpt>
      <trkpt lat="47.37063" lon="-1.56633">
        <ele>28.145602</ele>
        <time>2025-09-02T18:16:33.483Z</time>
      </trkpt>
      <trkpt lat="47.37022" lon="-1.56512">
        <ele>27.454552</ele>
        <time>2025-09-02T18:16:53.290Z</time>
      </trkpt>
      <trkpt lat="47.36949" lon="-1.56325">
        <ele>27.21521</ele>
        <time>2025-09-02T18:17:25.934Z</time>
      </trkpt>
      <trkpt lat="47.36933" lon="-1.56274">
        <ele>27.172331</ele>
        <time>2025-09-02T18:17:35.247Z</time>
      </trkpt>
      <trkpt lat="47.36872" lon="-1.55954">
        <ele>28.846751</ele>
        <time>2025-09-02T18:18:36.185Z</time>
      </trkpt>
      <trkpt lat="47.36869" lon="-1.55908">
        <ele>29.131997</ele>
        <time>2025-09-02T18:18:44.665Z</time>
      </trkpt>
      <trkpt lat="47.36847" lon="-1.55905">
        <ele>29.332422</ele>
        <time>2025-09-02T18:18:50.956Z</time>
      </trkpt>
      <trkpt lat="47.36671" lon="-1.5582">
        <ele>31.454358</ele>
        <time>2025-09-02T18:19:46.554Z</time>
      </trkpt>
      <trkpt lat="47.36614" lon="-1.55798">
        <ele>32.238516</ele>
        <time>2025-09-02T18:20:06.043Z</time>
      </trkpt>
      <trkpt lat="47.36547" lon="-1.55757">
        <ele>33.129854</ele>
        <time>2025-09-02T18:20:30.328Z</time>
      </trkpt>
      <trkpt lat="47.36462" lon="-1.55699">
        <ele>34.255109</ele>
        <time>2025-09-02T18:20:59.138Z</time>
      </trkpt>
      <trkpt lat="47.36422" lon="-1.55685">
        <ele>34.610594</ele>
        <time>2025-09-02T18:21:10.371Z</time>
      </trkpt>
      <trkpt lat="47.36387" lon="-1.55678">
        <ele>34.63176</ele>
        <time>2025-09-02T18:21:19.528Z</time>
      </trkpt>
      <trkpt lat="47.36178" lon="-1.55657">
        <ele>34.87973</ele>
        <time>2025-09-02T18:22:10.327Z</time>
      </trkpt>
      <trkpt lat="47.36093" lon="-1.55656">
        <ele>35.067182</ele>
        <time>2025-09-02T18:22:32.410Z</time>
      </trkpt>
      <trkpt lat="47.35855" lon="-1.55673">
        <ele>36.997047</ele>
        <time>2025-09-02T18:24:13.247Z</time>
      </trkpt>
      <trkpt lat="47.3583" lon="-1.55678">
        <ele>37.084094</ele>
        <time>2025-09-02T18:24:23.381Z</time>
      </trkpt>
      <trkpt lat="47.3581" lon="-1.55686">
        <ele>37.159179</ele>
        <time>2025-09-02T18:24:31.855Z</time>
      </trkpt>
      <trkpt lat="47.35767" lon="-1.55716">
        <ele>37.328132</ele>
        <time>2025-09-02T18:24:50.092Z</time>
      </trkpt>
      <trkpt lat="47.35759" lon="-1.55718">
        <ele>37.353926</ele>
        <time>2025-09-02T18:24:52.786Z</time>
      </trkpt>
      <trkpt lat="47.35657" lon="-1.55535">
        <ele>37.374154</ele>
        <time>2025-09-02T18:25:28.186Z</time>
      </trkpt>
      <trkpt lat="47.35393" lon="-1.55069">
        <ele>38.587212</ele>
        <time>2025-09-02T18:27:13.853Z</time>
      </trkpt>
      <trkpt lat="47.35389" lon="-1.55061">
        <ele>38.574678</ele>
        <time>2025-09-02T18:27:15.350Z</time>
      </trkpt>
      <trkpt lat="47.35352" lon="-1.54995">
        <ele>37.276505</ele>
        <time>2025-09-02T18:27:26.983Z</time>
      </trkpt>
      <trkpt lat="47.35256" lon="-1.54789">
        <ele>33.244506</ele>
        <time>2025-09-02T18:27:57.625Z</time>
      </trkpt>
      <trkpt lat="47.35213" lon="-1.54692">
        <ele>31.138672</ele>
        <time>2025-09-02T18:28:11.734Z</time>
      </trkpt>
      <trkpt lat="47.35174" lon="-1.54576">
        <ele>29.732828</ele>
        <time>2025-09-02T18:28:28.651Z</time>
      </trkpt>
      <trkpt lat="47.35163" lon="-1.54578">
        <ele>29.734121</ele>
        <time>2025-09-02T18:28:32.418Z</time>
      </trkpt>
      <trkpt lat="47.35091" lon="-1.54568">
        <ele>29.742866</ele>
        <time>2025-09-02T18:28:59.980Z</time>
      </trkpt>
      <trkpt lat="47.35061" lon="-1.54551">
        <ele>29.74662</ele>
        <time>2025-09-02T18:29:13.415Z</time>
      </trkpt>
      <trkpt lat="47.35037" lon="-1.5452">
        <ele>29.791305</ele>
        <time>2025-09-02T18:29:28.032Z</time>
      </trkpt>
      <trkpt lat="47.35011" lon="-1.54471">
        <ele>30.396699</ele>
        <time>2025-09-02T18:29:46.989Z</time>
      </trkpt>
      <trkpt lat="47.34912" lon="-1.54202">
        <ele>33.100036</ele>
        <time>2025-09-02T18:31:18.689Z</time>
      </trkpt>
      <trkpt lat="47.34888" lon="-1.54136">
        <ele>33.623725</ele>
        <time>2025-09-02T18:31:33.597Z</time>
      </trkpt>
      <trkpt lat="47.34867" lon="-1.54076">
        <ele>34.097957</ele>
        <time>2025-09-02T18:31:46.575Z</time>
      </trkpt>
      <trkpt lat="47.34858" lon="-1.54061">
        <ele>34.226274</ele>
        <time>2025-09-02T18:31:50.420Z</time>
      </trkpt>
      <trkpt lat="47.34848" lon="-1.54025">
        <ele>34.338355</ele>
        <time>2025-09-02T18:31:57.673Z</time>
      </trkpt>
      <trkpt lat="47.3478" lon="-1.53931">
        <ele>34.729067</ele>
        <time>2025-09-02T18:32:22.498Z</time>
      </trkpt>
      <trkpt lat="47.34741" lon="-1.53868">
        <ele>34.975387</ele>
        <time>2025-09-02T18:32:38.003Z</time>
      </trkpt>
      <trkpt lat="47.34686" lon="-1.53791">
        <ele>34.830403</ele>
        <time>2025-09-02T18:32:57.465Z</time>
      </trkpt>
      <trkpt lat="47.34571" lon="-1.5363">
        <ele>33.693339</ele>
        <time>2025-09-02T18:33:34.566Z</time>
      </trkpt>
      <trkpt lat="47.34538" lon="-1.53571">
        <ele>32.80725</ele>
        <time>2025-09-02T18:33:45.373Z</time>
      </trkpt>
      <trkpt lat="47.34487" lon="-1.53479">
        <ele>31.319554</ele>
        <time>2025-09-02T18:34:01.636Z</time>
      </trkpt>
      <trkpt lat="47.34442" lon="-1.53399">
        <ele>29.337593</ele>
        <time>2025-09-02T18:34:15.336Z</time>
      </trkpt>
      <trkpt lat="47.3442" lon="-1.53382">
        <ele>28.633452</ele>
        <time>2025-09-02T18:34:20.227Z</time>
      </trkpt>
      <trkpt lat="47.34395" lon="-1.53349">
        <ele>27.663409</ele>
        <time>2025-09-02T18:34:26.916Z</time>
      </trkpt>
      <trkpt lat="47.34376" lon="-1.53323">
        <ele>26.928161</ele>
        <time>2025-09-02T18:34:31.993Z</time>
      </trkpt>
      <trkpt lat="47.34336" lon="-1.53258">
        <ele>25.225326</ele>
        <time>2025-09-02T18:34:43.544Z</time>
      </trkpt>
      <trkpt lat="47.34331" lon="-1.53229">
        <ele>24.640432</ele>
        <time>2025-09-02T18:34:47.439Z</time>
      </trkpt>
      <trkpt lat="47.34323" lon="-1.53209">
        <ele>24.177034</ele>
        <time>2025-09-02T18:34:50.545Z</time>
      </trkpt>
      <trkpt lat="47.34313" lon="-1.53194">
        <ele>23.762221</ele>
        <time>2025-09-02T18:34:53.331Z</time>
      </trkpt>
      <trkpt lat="47.34301" lon="-1.53186">
        <ele>23.382756</ele>
        <time>2025-09-02T18:34:55.879Z</time>
      </trkpt>
      <trkpt lat="47.34268" lon="-1.5318">
        <ele>22.434399</ele>
        <time>2025-09-02T18:35:02.306Z</time>
      </trkpt>
      <trkpt lat="47.3426" lon="-1.53164">
        <ele>22.028126</ele>
        <time>2025-09-02T18:35:05.067Z</time>
      </trkpt>
      <trkpt lat="47.34251" lon="-1.53131">
        <ele>21.345785</ele>
        <time>2025-09-02T18:35:09.731Z</time>
      </trkpt>
      <trkpt lat="47.34249" lon="-1.53134">
        <ele>21.267762</ele>
        <time>2025-09-02T18:35:10.202Z</time>
      </trkpt>
      <trkpt lat="47.34248" lon="-1.53135">
        <ele>21.22688</ele>
        <time>2025-09-02T18:35:10.445Z</time>
      </trkpt>
      <trkpt lat="47.34244" lon="-1.53138">
        <ele>21.121275</ele>
        <time>2025-09-02T18:35:11.165Z</time>
      </trkpt>
      <trkpt lat="47.34241" lon="-1.53141">
        <ele>21.031058</ele>
        <time>2025-09-02T18:35:11.796Z</time>
      </trkpt>
      <trkpt lat="47.34192" lon="-1.53189">
        <ele>19.513309</ele>
        <time>2025-09-02T18:35:22.400Z</time>
      </trkpt>
      <trkpt lat="47.34133" lon="-1.53251">
        <ele>17.636374</ele>
        <time>2025-09-02T18:35:35.478Z</time>
      </trkpt>
      <trkpt lat="47.34121" lon="-1.53251">
        <ele>17.342736</ele>
        <time>2025-09-02T18:35:37.579Z</time>
      </trkpt>
      <trkpt lat="47.34117" lon="-1.53255">
        <ele>17.213324</ele>
        <time>2025-09-02T18:35:38.494Z</time>
      </trkpt>
      <trkpt lat="47.34106" lon="-1.53264">
        <ele>16.887308</ele>
        <time>2025-09-02T18:35:40.815Z</time>
      </trkpt>
      <trkpt lat="47.34101" lon="-1.53278">
        <ele>16.61575</ele>
        <time>2025-09-02T18:35:42.728Z</time>
      </trkpt>
      <trkpt lat="47.34096" lon="-1.53278">
        <ele>16.485259</ele>
        <time>2025-09-02T18:35:43.608Z</time>
      </trkpt>
      <trkpt lat="47.34087" lon="-1.53273">
        <ele>16.229154</ele>
        <time>2025-09-02T18:35:45.324Z</time>
      </trkpt>
      <trkpt lat="47.34071" lon="-1.53244">
        <ele>15.524676</ele>
        <time>2025-09-02T18:35:49.941Z</time>
      </trkpt>
      <trkpt lat="47.34067" lon="-1.53247">
        <ele>15.41496</ele>
        <time>2025-09-02T18:35:50.688Z</time>
      </trkpt>
      <trkpt lat="47.34057" lon="-1.53219">
        <ele>14.836954</ele>
        <time>2025-09-02T18:35:54.477Z</time>
      </trkpt>
      <trkpt lat="47.34044" lon="-1.53173">
        <ele>13.923014</ele>
        <time>2025-09-02T18:36:00.638Z</time>
      </trkpt>
      <trkpt lat="47.34041" lon="-1.53161">
        <ele>13.685713</ele>
        <time>2025-09-02T18:36:02.264Z</time>
      </trkpt>
      <trkpt lat="47.34029" lon="-1.53123">
        <ele>12.927023</ele>
        <time>2025-09-02T18:36:07.588Z</time>
      </trkpt>
      <trkpt lat="47.34" lon="-1.53117">
        <ele>12.135826</ele>
        <time>2025-09-02T18:36:13.206Z</time>
      </trkpt>
      <trkpt lat="47.33994" lon="-1.53129">
        <ele>11.868021</ele>
        <time>2025-09-02T18:36:15.038Z</time>
      </trkpt>
      <trkpt lat="47.33991" lon="-1.53146">
        <ele>11.578696</ele>
        <time>2025-09-02T18:36:17.202Z</time>
      </trkpt>
      <trkpt lat="47.33983" lon="-1.53167">
        <ele>11.225862</ele>
        <time>2025-09-02T18:36:20.086Z</time>
      </trkpt>
      <trkpt lat="47.33964" lon="-1.53193">
        <ele>10.64231</ele>
        <time>2025-09-02T18:36:24.799Z</time>
      </trkpt>
      <trkpt lat="47.33955" lon="-1.532">
        <ele>10.437981</ele>
        <time>2025-09-02T18:36:26.456Z</time>
      </trkpt>
      <trkpt lat="47.33891" lon="-1.53073">
        <ele>8.059582</ele>
        <time>2025-09-02T18:36:46.879Z</time>
      </trkpt>
      <trkpt lat="47.33871" lon="-1.53122">
        <ele>7.636553</ele>
        <time>2025-09-02T18:36:53.765Z</time>
      </trkpt>
      <trkpt lat="47.33864" lon="-1.53123">
        <ele>7.603549</ele>
        <time>2025-09-02T18:36:55.059Z</time>
      </trkpt>
      <trkpt lat="47.33821" lon="-1.53055">
        <ele>7.312111</ele>
        <time>2025-09-02T18:37:07.537Z</time>
      </trkpt>
      <trkpt lat="47.33808" lon="-1.53077">
        <ele>7.220756</ele>
        <time>2025-09-02T18:37:11.989Z</time>
      </trkpt>
      <trkpt lat="47.33772" lon="-1.5315">
        <ele>6.940054</ele>
        <time>2025-09-02T18:37:27.036Z</time>
      </trkpt>
      <trkpt lat="47.33763" lon="-1.53158">
        <ele>7.091617</ele>
        <time>2025-09-02T18:37:30.277Z</time>
      </trkpt>
      <trkpt lat="47.33702" lon="-1.53191">
        <ele>8.692727</ele>
        <time>2025-09-02T18:37:51.602Z</time>
      </trkpt>
      <trkpt lat="47.33682" lon="-1.53198">
        <ele>9.174279</ele>
        <time>2025-09-02T18:37:58.727Z</time>
      </trkpt>
      <trkpt lat="47.33621" lon="-1.53235">
        <ele>10.813067</ele>
        <time>2025-09-02T18:38:25.095Z</time>
      </trkpt>
      <trkpt lat="47.33605" lon="-1.53244">
        <ele>11.223489</ele>
        <time>2025-09-02T18:38:31.529Z</time>
      </trkpt>
      <trkpt lat="47.33538" lon="-1.53283">
        <ele>12.639641</ele>
        <time>2025-09-02T18:38:55.575Z</time>
      </trkpt>
      <trkpt lat="47.3352" lon="-1.53288">
        <ele>13.005685</ele>
        <time>2025-09-02T18:39:01.311Z</time>
      </trkpt>
      <trkpt lat="47.33529" lon="-1.53221">
        <ele>13.908427</ele>
        <time>2025-09-02T18:39:15.068Z</time>
      </trkpt>
      <trkpt lat="47.33537" lon="-1.5314">
        <ele>15.088641</ele>
        <time>2025-09-02T18:39:31.202Z</time>
      </trkpt>
      <trkpt lat="47.33531" lon="-1.53141">
        <ele>15.28727</ele>
        <time>2025-09-02T18:39:34.089Z</time>
      </trkpt>
      <trkpt lat="47.33509" lon="-1.53156">
        <ele>16.0185</ele>
        <time>2025-09-02T18:39:45.058Z</time>
      </trkpt>
      <trkpt lat="47.33476" lon="-1.53169">
        <ele>17.07096</ele>
        <time>2025-09-02T18:40:02.649Z</time>
      </trkpt>
      <trkpt lat="47.33453" lon="-1.53191">
        <ele>17.915713</ele>
        <time>2025-09-02T18:40:17.898Z</time>
      </trkpt>
      <trkpt lat="47.33433" lon="-1.53205">
        <ele>18.598111</ele>
        <time>2025-09-02T18:40:30.743Z</time>
      </trkpt>
      <trkpt lat="47.3333" lon="-1.53197">
        <ele>21.255431</ele>
        <time>2025-09-02T18:41:29.682Z</time>
      </trkpt>
      <trkpt lat="47.33259" lon="-1.53196">
        <ele>22.612645</ele>
        <time>2025-09-02T18:42:03.317Z</time>
      </trkpt>
      <trkpt lat="47.33205" lon="-1.53211">
        <ele>23.65797</ele>
        <time>2025-09-02T18:42:25.318Z</time>
      </trkpt>
      <trkpt lat="47.3321" lon="-1.53228">
        <ele>23.751045</ele>
        <time>2025-09-02T18:42:28.050Z</time>
      </trkpt>
      <trkpt lat="47.33236" lon="-1.53326">
        <ele>22.877944</ele>
        <time>2025-09-02T18:42:42.339Z</time>
      </trkpt>
      <trkpt lat="47.33236" lon="-1.53326">
        <ele>22.877944</ele>
        <time>2025-09-02T18:42:42.344Z</time>
      </trkpt>
      <trkpt lat="47.33241" lon="-1.53358">
        <ele>22.610974</ele>
        <time>2025-09-02T18:42:46.562Z</time>
      </trkpt>
      <trkpt lat="47.33252" lon="-1.53509">
        <ele>20.888995</ele>
        <time>2025-09-02T18:43:05.839Z</time>
      </trkpt>
      <trkpt lat="47.33214" lon="-1.53493">
        <ele>19.567792</ele>
        <time>2025-09-02T18:43:12.582Z</time>
      </trkpt>
      <trkpt lat="47.33199" lon="-1.53484">
        <ele>19.013458</ele>
        <time>2025-09-02T18:43:15.347Z</time>
      </trkpt>
      <trkpt lat="47.33166" lon="-1.53475">
        <ele>17.883629</ele>
        <time>2025-09-02T18:43:20.852Z</time>
      </trkpt>
      <trkpt lat="47.33129" lon="-1.53465">
        <ele>16.597191</ele>
        <time>2025-09-02T18:43:31.966Z</time>
      </trkpt>
      <trkpt lat="47.3311" lon="-1.53464">
        <ele>15.942944</ele>
        <time>2025-09-02T18:43:37.569Z</time>
      </trkpt>
      <trkpt lat="47.33092" lon="-1.53465">
        <ele>15.464949</ele>
        <time>2025-09-02T18:43:42.814Z</time>
      </trkpt>
      <trkpt lat="47.33017" lon="-1.53487">
        <ele>14.815243</ele>
        <time>2025-09-02T18:44:06.600Z</time>
      </trkpt>
      <trkpt lat="47.32981" lon="-1.5352">
        <ele>14.457199</ele>
        <time>2025-09-02T18:44:21.978Z</time>
      </trkpt>
      <trkpt lat="47.32897" lon="-1.53557">
        <ele>14.901078</ele>
        <time>2025-09-02T18:45:04.197Z</time>
      </trkpt>
      <trkpt lat="47.32877" lon="-1.5357">
        <ele>15.54088</ele>
        <time>2025-09-02T18:45:15.704Z</time>
      </trkpt>
      <trkpt lat="47.32833" lon="-1.53609">
        <ele>17.038649</ele>
        <time>2025-09-02T18:45:42.861Z</time>
      </trkpt>
      <trkpt lat="47.32826" lon="-1.53619">
        <ele>17.30836</ele>
        <time>2025-09-02T18:45:47.707Z</time>
      </trkpt>
      <trkpt lat="47.32828" lon="-1.53632">
        <ele>17.564387</ele>
        <time>2025-09-02T18:45:52.318Z</time>
      </trkpt>
      <trkpt lat="47.32856" lon="-1.53674">
        <ele>18.709114</ele>
        <time>2025-09-02T18:46:12.902Z</time>
      </trkpt>
      <trkpt lat="47.32751" lon="-1.53692">
        <ele>22.195937</ele>
        <time>2025-09-02T18:46:55.118Z</time>
      </trkpt>
      <trkpt lat="47.32737" lon="-1.53699">
        <ele>22.68568</ele>
        <time>2025-09-02T18:47:01.508Z</time>
      </trkpt>
      <trkpt lat="47.32717" lon="-1.53702">
        <ele>23.364088</ele>
        <time>2025-09-02T18:47:10.240Z</time>
      </trkpt>
      <trkpt lat="47.32655" lon="-1.53697">
        <ele>25.229083</ele>
        <time>2025-09-02T18:47:34.890Z</time>
      </trkpt>
      <trkpt lat="47.32649" lon="-1.53698">
        <ele>25.172953</ele>
        <time>2025-09-02T18:47:36.938Z</time>
      </trkpt>
      <trkpt lat="47.3262" lon="-1.5369">
        <ele>24.894111</ele>
        <time>2025-09-02T18:47:46.032Z</time>
      </trkpt>
      <trkpt lat="47.32576" lon="-1.53673">
        <ele>24.466138</ele>
        <time>2025-09-02T18:47:56.594Z</time>
      </trkpt>
      <trkpt lat="47.3234" lon="-1.53558">
        <ele>18.554298</ele>
        <time>2025-09-02T18:48:38.874Z</time>
      </trkpt>
      <trkpt lat="47.32299" lon="-1.53533">
        <ele>17.415016</ele>
        <time>2025-09-02T18:48:46.453Z</time>
      </trkpt>
      <trkpt lat="47.32291" lon="-1.53531">
        <ele>17.276533</ele>
        <time>2025-09-02T18:48:47.894Z</time>
      </trkpt>
      <trkpt lat="47.32247" lon="-1.53503">
        <ele>16.432846</ele>
        <time>2025-09-02T18:48:56.906Z</time>
      </trkpt>
      <trkpt lat="47.32247" lon="-1.53522">
        <ele>16.212525</ele>
        <time>2025-09-02T18:48:59.237Z</time>
      </trkpt>
      <trkpt lat="47.32248" lon="-1.53546">
        <ele>15.927433</ele>
        <time>2025-09-02T18:49:02.333Z</time>
      </trkpt>
      <trkpt lat="47.32246" lon="-1.53567">
        <ele>15.668736</ele>
        <time>2025-09-02T18:49:05.199Z</time>
      </trkpt>
      <trkpt lat="47.32242" lon="-1.53577">
        <ele>15.525831</ele>
        <time>2025-09-02T18:49:06.821Z</time>
      </trkpt>
      <trkpt lat="47.32235" lon="-1.53583">
        <ele>15.391738</ele>
        <time>2025-09-02T18:49:08.353Z</time>
      </trkpt>
      <trkpt lat="47.32223" lon="-1.53584">
        <ele>15.183818</ele>
        <time>2025-09-02T18:49:10.783Z</time>
      </trkpt>
      <trkpt lat="47.3213" lon="-1.53587">
        <ele>13.996468</ele>
        <time>2025-09-02T18:49:29.918Z</time>
      </trkpt>
      <trkpt lat="47.321" lon="-1.53596">
        <ele>13.684774</ele>
        <time>2025-09-02T18:49:35.979Z</time>
      </trkpt>
      <trkpt lat="47.32079" lon="-1.53613">
        <ele>13.438502</ele>
        <time>2025-09-02T18:49:40.785Z</time>
      </trkpt>
      <trkpt lat="47.32067" lon="-1.53628">
        <ele>13.285642</ele>
        <time>2025-09-02T18:49:43.759Z</time>
      </trkpt>
      <trkpt lat="47.32058" lon="-1.53679">
        <ele>12.916281</ele>
        <time>2025-09-02T18:49:50.779Z</time>
      </trkpt>
      <trkpt lat="47.32048" lon="-1.53703">
        <ele>12.73712</ele>
        <time>2025-09-02T18:49:54.393Z</time>
      </trkpt>
      <trkpt lat="47.32029" lon="-1.53723">
        <ele>12.545423</ele>
        <time>2025-09-02T18:49:58.982Z</time>
      </trkpt>
      <trkpt lat="47.32" lon="-1.53742">
        <ele>12.284989</ele>
        <time>2025-09-02T18:50:05.095Z</time>
      </trkpt>
      <trkpt lat="47.31985" lon="-1.53766">
        <ele>12.107065</ele>
        <time>2025-09-02T18:50:09.242Z</time>
      </trkpt>
      <trkpt lat="47.31974" lon="-1.53775">
        <ele>12.003823</ele>
        <time>2025-09-02T18:50:11.731Z</time>
      </trkpt>
      <trkpt lat="47.31963" lon="-1.53789">
        <ele>11.883243</ele>
        <time>2025-09-02T18:50:14.749Z</time>
      </trkpt>
      <trkpt lat="47.3195" lon="-1.53821">
        <ele>11.678867</ele>
        <time>2025-09-02T18:50:20.075Z</time>
      </trkpt>
      <trkpt lat="47.31915" lon="-1.53886">
        <ele>11.323694</ele>
        <time>2025-09-02T18:50:32.322Z</time>
      </trkpt>
      <trkpt lat="47.3181" lon="-1.54102">
        <ele>11.332307</ele>
        <time>2025-09-02T18:51:14.975Z</time>
      </trkpt>
      <trkpt lat="47.31759" lon="-1.5419">
        <ele>10.443545</ele>
        <time>2025-09-02T18:51:30.622Z</time>
      </trkpt>
      <trkpt lat="47.31728" lon="-1.54226">
        <ele>9.991004</ele>
        <time>2025-09-02T18:51:38.048Z</time>
      </trkpt>
      <trkpt lat="47.31697" lon="-1.54257">
        <ele>9.572584</ele>
        <time>2025-09-02T18:51:50.215Z</time>
      </trkpt>
      <trkpt lat="47.31659" lon="-1.54286">
        <ele>9.102676</ele>
        <time>2025-09-02T18:52:04.567Z</time>
      </trkpt>
      <trkpt lat="47.31638" lon="-1.543">
        <ele>8.859565</ele>
        <time>2025-09-02T18:52:08.871Z</time>
      </trkpt>
      <trkpt lat="47.3163" lon="-1.54317">
        <ele>8.716643</ele>
        <time>2025-09-02T18:52:11.397Z</time>
      </trkpt>
      <trkpt lat="47.31618" lon="-1.54323">
        <ele>8.583497</ele>
        <time>2025-09-02T18:52:13.743Z</time>
      </trkpt>
      <trkpt lat="47.31603" lon="-1.54331">
        <ele>8.408963</ele>
        <time>2025-09-02T18:52:16.896Z</time>
      </trkpt>
      <trkpt lat="47.3158" lon="-1.54327">
        <ele>8.160474</ele>
        <time>2025-09-02T18:52:21.525Z</time>
      </trkpt>
      <trkpt lat="47.31522" lon="-1.54327">
        <ele>7.551468</ele>
        <time>2025-09-02T18:52:33.746Z</time>
      </trkpt>
      <trkpt lat="47.31512" lon="-1.54328">
        <ele>7.535943</ele>
        <time>2025-09-02T18:52:36.069Z</time>
      </trkpt>
      <trkpt lat="47.315" lon="-1.54336">
        <ele>7.572627</ele>
        <time>2025-09-02T18:52:38.851Z</time>
      </trkpt>
      <trkpt lat="47.31449" lon="-1.54332">
        <ele>7.720364</ele>
        <time>2025-09-02T18:52:50.899Z</time>
      </trkpt>
      <trkpt lat="47.3143" lon="-1.54326">
        <ele>7.77869</ele>
        <time>2025-09-02T18:52:55.994Z</time>
      </trkpt>
      <trkpt lat="47.31346" lon="-1.54315">
        <ele>8.023128</ele>
        <time>2025-09-02T18:53:17.145Z</time>
      </trkpt>
      <trkpt lat="47.31339" lon="-1.54309">
        <ele>8.055283</ele>
        <time>2025-09-02T18:53:19.026Z</time>
      </trkpt>
      <trkpt lat="47.31327" lon="-1.54306">
        <ele>8.123093</ele>
        <time>2025-09-02T18:53:21.761Z</time>
      </trkpt>
      <trkpt lat="47.31274" lon="-1.54304">
        <ele>8.436882</ele>
        <time>2025-09-02T18:53:33.925Z</time>
      </trkpt>
      <trkpt lat="47.31253" lon="-1.54306">
        <ele>8.556913</ele>
        <time>2025-09-02T18:53:38.666Z</time>
      </trkpt>
      <trkpt lat="47.31246" lon="-1.54313">
        <ele>8.605844</ele>
        <time>2025-09-02T18:53:40.658Z</time>
      </trkpt>
      <trkpt lat="47.31241" lon="-1.54321">
        <ele>8.649269</ele>
        <time>2025-09-02T18:53:42.427Z</time>
      </trkpt>
      <trkpt lat="47.31234" lon="-1.54328">
        <ele>8.698694</ele>
        <time>2025-09-02T18:53:44.483Z</time>
      </trkpt>
      <trkpt lat="47.31223" lon="-1.5433">
        <ele>8.762205</ele>
        <time>2025-09-02T18:53:47.183Z</time>
      </trkpt>
      <trkpt lat="47.31216" lon="-1.54326">
        <ele>8.806378</ele>
        <time>2025-09-02T18:53:49.092Z</time>
      </trkpt>
      <trkpt lat="47.3121" lon="-1.54318">
        <ele>8.854282</ele>
        <time>2025-09-02T18:53:51.234Z</time>
      </trkpt>
      <trkpt lat="47.31196" lon="-1.54303">
        <ele>8.953767</ele>
        <time>2025-09-02T18:53:55.786Z</time>
      </trkpt>
      <trkpt lat="47.31172" lon="-1.54296">
        <ele>9.127963</ele>
        <time>2025-09-02T18:54:02.728Z</time>
      </trkpt>
      <trkpt lat="47.31108" lon="-1.54294">
        <ele>10.464537</ele>
        <time>2025-09-02T18:54:22.127Z</time>
      </trkpt>
      <trkpt lat="47.31034" lon="-1.54286">
        <ele>12.032031</ele>
        <time>2025-09-02T18:54:47.072Z</time>
      </trkpt>
      <trkpt lat="47.31001" lon="-1.54285">
        <ele>12.737406</ele>
        <time>2025-09-02T18:54:58.845Z</time>
      </trkpt>
      <trkpt lat="47.30968" lon="-1.54294">
        <ele>13.826474</ele>
        <time>2025-09-02T18:55:11.067Z</time>
      </trkpt>
      <trkpt lat="47.30935" lon="-1.54276">
        <ele>15.04194</ele>
        <time>2025-09-02T18:55:24.565Z</time>
      </trkpt>
      <trkpt lat="47.30875" lon="-1.54271">
        <ele>17.169314</ele>
        <time>2025-09-02T18:55:49.225Z</time>
      </trkpt>
      <trkpt lat="47.30859" lon="-1.54275">
        <ele>17.742244</ele>
        <time>2025-09-02T18:55:56.081Z</time>
      </trkpt>
      <trkpt lat="47.3083" lon="-1.54294">
        <ele>18.843021</ele>
        <time>2025-09-02T18:56:09.311Z</time>
      </trkpt>
      <trkpt lat="47.30823" lon="-1.54296">
        <ele>19.122767</ele>
        <time>2025-09-02T18:56:12.754Z</time>
      </trkpt>
      <trkpt lat="47.30811" lon="-1.54299">
        <ele>19.474291</ele>
        <time>2025-09-02T18:56:17.916Z</time>
      </trkpt>
      <trkpt lat="47.30799" lon="-1.54303">
        <ele>19.798634</ele>
        <time>2025-09-02T18:56:22.837Z</time>
      </trkpt>
      <trkpt lat="47.30785" lon="-1.54304">
        <ele>20.187449</ele>
        <time>2025-09-02T18:56:28.764Z</time>
      </trkpt>
      <trkpt lat="47.30767" lon="-1.543">
        <ele>20.699758</ele>
        <time>2025-09-02T18:56:36.545Z</time>
      </trkpt>
      <trkpt lat="47.30766" lon="-1.54304">
        <ele>20.780957</ele>
        <time>2025-09-02T18:56:37.794Z</time>
      </trkpt>
      <trkpt lat="47.30761" lon="-1.543">
        <ele>20.926785</ele>
        <time>2025-09-02T18:56:39.936Z</time>
      </trkpt>
      <trkpt lat="47.30748" lon="-1.54305">
        <ele>21.302293</ele>
        <time>2025-09-02T18:56:45.489Z</time>
      </trkpt>
      <trkpt lat="47.30654" lon="-1.54384">
        <ele>24.122679</ele>
        <time>2025-09-02T18:57:22.276Z</time>
      </trkpt>
      <trkpt lat="47.30577" lon="-1.54452">
        <ele>23.578378</ele>
        <time>2025-09-02T18:57:42.657Z</time>
      </trkpt>
      <trkpt lat="47.3057" lon="-1.54458">
        <ele>23.528814</ele>
        <time>2025-09-02T18:57:44.253Z</time>
      </trkpt>
      <trkpt lat="47.30526" lon="-1.54497">
        <ele>23.215037</ele>
        <time>2025-09-02T18:57:53.851Z</time>
      </trkpt>
      <trkpt lat="47.30434" lon="-1.54568">
        <ele>21.910699</ele>
        <time>2025-09-02T18:58:12.302Z</time>
      </trkpt>
      <trkpt lat="47.3042" lon="-1.54579">
        <ele>21.666991</ele>
        <time>2025-09-02T18:58:15.335Z</time>
      </trkpt>
      <trkpt lat="47.30358" lon="-1.54658">
        <ele>20.467476</ele>
        <time>2025-09-02T18:58:31.380Z</time>
      </trkpt>
      <trkpt lat="47.30346" lon="-1.54657">
        <ele>20.476667</ele>
        <time>2025-09-02T18:58:34.174Z</time>
      </trkpt>
      <trkpt lat="47.30333" lon="-1.54669">
        <ele>20.629034</ele>
        <time>2025-09-02T18:58:37.607Z</time>
      </trkpt>
      <trkpt lat="47.30318" lon="-1.54669">
        <ele>20.789141</ele>
        <time>2025-09-02T18:58:41.519Z</time>
      </trkpt>
      <trkpt lat="47.3031" lon="-1.54666">
        <ele>20.869194</ele>
        <time>2025-09-02T18:58:43.511Z</time>
      </trkpt>
      <trkpt lat="47.30286" lon="-1.54654">
        <ele>21.130841</ele>
        <time>2025-09-02T18:58:50.392Z</time>
      </trkpt>
      <trkpt lat="47.3027" lon="-1.54655">
        <ele>21.304437</ele>
        <time>2025-09-02T18:58:55.224Z</time>
      </trkpt>
      <trkpt lat="47.3008" lon="-1.54755">
        <ele>23.654975</ele>
        <time>2025-09-02T18:59:57.029Z</time>
      </trkpt>
      <trkpt lat="47.29954" lon="-1.54802">
        <ele>24.724004</ele>
        <time>2025-09-02T19:00:30.592Z</time>
      </trkpt>
      <trkpt lat="47.29831" lon="-1.5484">
        <ele>25.046327</ele>
        <time>2025-09-02T19:00:58.473Z</time>
      </trkpt>
      <trkpt lat="47.298" lon="-1.54844">
        <ele>24.99011</ele>
        <time>2025-09-02T19:01:05.775Z</time>
      </trkpt>
      <trkpt lat="47.29784" lon="-1.54836">
        <ele>24.960645</ele>
        <time>2025-09-02T19:01:09.783Z</time>
      </trkpt>
      <trkpt lat="47.29722" lon="-1.54856">
        <ele>24.84741</ele>
        <time>2025-09-02T19:01:24.955Z</time>
      </trkpt>
      <trkpt lat="47.29721" lon="-1.54851">
        <ele>24.841098</ele>
        <time>2025-09-02T19:01:25.728Z</time>
      </trkpt>
      <trkpt lat="47.29714" lon="-1.54829">
        <ele>24.811197</ele>
        <time>2025-09-02T19:01:29.380Z</time>
      </trkpt>
      <trkpt lat="47.29706" lon="-1.54808">
        <ele>24.782928</ele>
        <time>2025-09-02T19:01:32.705Z</time>
      </trkpt>
      <trkpt lat="47.29704" lon="-1.54802">
        <ele>24.774661</ele>
        <time>2025-09-02T19:01:33.663Z</time>
      </trkpt>
      <trkpt lat="47.29695" lon="-1.54775">
        <ele>24.737348</ele>
        <time>2025-09-02T19:01:37.829Z</time>
      </trkpt>
      <trkpt lat="47.29683" lon="-1.54755">
        <ele>24.389465</ele>
        <time>2025-09-02T19:01:41.282Z</time>
      </trkpt>
      <trkpt lat="47.29678" lon="-1.54758">
        <ele>24.259011</ele>
        <time>2025-09-02T19:01:42.444Z</time>
      </trkpt>
      <trkpt lat="47.29673" lon="-1.54752">
        <ele>24.127107</ele>
        <time>2025-09-02T19:01:43.572Z</time>
      </trkpt>
      <trkpt lat="47.29673" lon="-1.54746">
        <ele>24.04051</ele>
        <time>2025-09-02T19:01:44.305Z</time>
      </trkpt>
      <trkpt lat="47.29677" lon="-1.5474">
        <ele>23.913431</ele>
        <time>2025-09-02T19:01:45.401Z</time>
      </trkpt>
      <trkpt lat="47.29669" lon="-1.54706">
        <ele>23.380515</ele>
        <time>2025-09-02T19:01:49.843Z</time>
      </trkpt>
      <trkpt lat="47.29662" lon="-1.54687">
        <ele>23.070089</ele>
        <time>2025-09-02T19:01:52.355Z</time>
      </trkpt>
      <trkpt lat="47.2965" lon="-1.54669">
        <ele>22.692521</ele>
        <time>2025-09-02T19:01:55.395Z</time>
      </trkpt>
      <trkpt lat="47.29568" lon="-1.54606">
        <ele>20.724359</ele>
        <time>2025-09-02T19:02:11.449Z</time>
      </trkpt>
      <trkpt lat="47.29496" lon="-1.54553">
        <ele>19.235765</ele>
        <time>2025-09-02T19:02:26.852Z</time>
      </trkpt>
      <trkpt lat="47.2948" lon="-1.54544">
        <ele>18.917748</ele>
        <time>2025-09-02T19:02:30.213Z</time>
      </trkpt>
      <trkpt lat="47.29438" lon="-1.54531">
        <ele>18.139622</ele>
        <time>2025-09-02T19:02:38.348Z</time>
      </trkpt>
      <trkpt lat="47.2943" lon="-1.54528">
        <ele>17.982421</ele>
        <time>2025-09-02T19:02:39.948Z</time>
      </trkpt>
      <trkpt lat="47.29408" lon="-1.54524">
        <ele>17.571447</ele>
        <time>2025-09-02T19:02:44.069Z</time>
      </trkpt>
      <trkpt lat="47.29392" lon="-1.54459">
        <ele>16.336224</ele>
        <time>2025-09-02T19:02:52.431Z</time>
      </trkpt>
      <trkpt lat="47.29384" lon="-1.54394">
        <ele>15.137186</ele>
        <time>2025-09-02T19:03:00.097Z</time>
      </trkpt>
      <trkpt lat="47.29368" lon="-1.54275">
        <ele>12.954902</ele>
        <time>2025-09-02T19:03:14.159Z</time>
      </trkpt>
      <trkpt lat="47.29343" lon="-1.54078">
        <ele>10.734019</ele>
        <time>2025-09-02T19:03:39.742Z</time>
      </trkpt>
      <trkpt lat="47.29327" lon="-1.53951">
        <ele>9.610853</ele>
        <time>2025-09-02T19:03:57.555Z</time>
      </trkpt>
      <trkpt lat="47.29324" lon="-1.5393">
        <ele>9.480104</ele>
        <time>2025-09-02T19:04:00.441Z</time>
      </trkpt>
      <trkpt lat="47.29318" lon="-1.5388">
        <ele>9.169795</ele>
        <time>2025-09-02T19:04:07.076Z</time>
      </trkpt>
      <trkpt lat="47.29304" lon="-1.53769">
        <ele>8.492139</ele>
        <time>2025-09-02T19:04:22.776Z</time>
      </trkpt>
      <trkpt lat="47.2929" lon="-1.53717">
        <ele>8.312182</ele>
        <time>2025-09-02T19:04:30.439Z</time>
      </trkpt>
      <trkpt lat="47.29281" lon="-1.53696">
        <ele>8.301386</ele>
        <time>2025-09-02T19:04:33.762Z</time>
      </trkpt>
      <trkpt lat="47.29267" lon="-1.5368">
        <ele>8.290609</ele>
        <time>2025-09-02T19:04:37.176Z</time>
      </trkpt>
      <trkpt lat="47.29259" lon="-1.53673">
        <ele>8.284847</ele>
        <time>2025-09-02T19:04:39.079Z</time>
      </trkpt>
      <trkpt lat="47.29235" lon="-1.5365">
        <ele>8.266183</ele>
        <time>2025-09-02T19:04:45.614Z</time>
      </trkpt>
      <trkpt lat="47.29192" lon="-1.53613">
        <ele>8.234954</ele>
        <time>2025-09-02T19:04:59.117Z</time>
      </trkpt>
      <trkpt lat="47.29186" lon="-1.53607">
        <ele>8.230047</ele>
        <time>2025-09-02T19:05:01.225Z</time>
      </trkpt>
      <trkpt lat="47.29177" lon="-1.53603">
        <ele>8.224252</ele>
        <time>2025-09-02T19:05:03.820Z</time>
      </trkpt>
      <trkpt lat="47.29149" lon="-1.53571">
        <ele>8.117347</ele>
        <time>2025-09-02T19:05:12.327Z</time>
      </trkpt>
      <trkpt lat="47.29127" lon="-1.53528">
        <ele>7.859707</ele>
        <time>2025-09-02T19:05:21.007Z</time>
      </trkpt>
      <trkpt lat="47.29108" lon="-1.53504">
        <ele>7.686326</ele>
        <time>2025-09-02T19:05:26.909Z</time>
      </trkpt>
      <trkpt lat="47.29053" lon="-1.53445">
        <ele>7.210736</ele>
        <time>2025-09-02T19:05:50.672Z</time>
      </trkpt>
      <trkpt lat="47.29014" lon="-1.53425">
        <ele>6.961301</ele>
        <time>2025-09-02T19:06:04.356Z</time>
      </trkpt>
      <trkpt lat="47.28989" lon="-1.53399">
        <ele>7.009659</ele>
        <time>2025-09-02T19:06:14.241Z</time>
      </trkpt>
      <trkpt lat="47.28884" lon="-1.53315">
        <ele>7.198359</ele>
        <time>2025-09-02T19:06:58.243Z</time>
      </trkpt>
      <trkpt lat="47.28879" lon="-1.53311">
        <ele>7.208137</ele>
        <time>2025-09-02T19:07:01.027Z</time>
      </trkpt>
      <trkpt lat="47.28862" lon="-1.53304">
        <ele>7.236192</ele>
        <time>2025-09-02T19:07:07.318Z</time>
      </trkpt>
      <trkpt lat="47.2885" lon="-1.53332">
        <ele>7.940922</ele>
        <time>2025-09-02T19:07:15.780Z</time>
      </trkpt>
      <trkpt lat="47.28844" lon="-1.53338">
        <ele>8.20352</ele>
        <time>2025-09-02T19:07:18.850Z</time>
      </trkpt>
      <trkpt lat="47.28823" lon="-1.53324">
        <ele>8.996807</ele>
        <time>2025-09-02T19:07:28.745Z</time>
      </trkpt>
      <trkpt lat="47.28818" lon="-1.53327">
        <ele>9.171186</ele>
        <time>2025-09-02T19:07:30.997Z</time>
      </trkpt>
      <trkpt lat="47.2879" lon="-1.53353">
        <ele>10.331126</ele>
        <time>2025-09-02T19:07:46.968Z</time>
      </trkpt>
      <trkpt lat="47.28725" lon="-1.53413">
        <ele>12.988942</ele>
        <time>2025-09-02T19:08:22.402Z</time>
      </trkpt>
      <trkpt lat="47.28724" lon="-1.53414">
        <ele>13.030478</ele>
        <time>2025-09-02T19:08:22.889Z</time>
      </trkpt>
      <trkpt lat="47.28711" lon="-1.53422">
        <ele>13.492965</ele>
        <time>2025-09-02T19:08:28.416Z</time>
      </trkpt>
      <trkpt lat="47.28663" lon="-1.53439">
        <ele>14.497707</ele>
        <time>2025-09-02T19:08:46.981Z</time>
      </trkpt>
      <trkpt lat="47.2864" lon="-1.53443">
        <ele>14.975792</ele>
        <time>2025-09-02T19:08:54.706Z</time>
      </trkpt>
      <trkpt lat="47.28636" lon="-1.53502">
        <ele>15.795514</ele>
        <time>2025-09-02T19:09:06.904Z</time>
      </trkpt>
      <trkpt lat="47.28622" lon="-1.53531">
        <ele>16.288667</ele>
        <time>2025-09-02T19:09:14.018Z</time>
      </trkpt>
      <trkpt lat="47.28617" lon="-1.53532">
        <ele>16.39494</ele>
        <time>2025-09-02T19:09:15.625Z</time>
      </trkpt>
      <trkpt lat="47.28621" lon="-1.53538">
        <ele>16.510935</ele>
        <time>2025-09-02T19:09:17.325Z</time>
      </trkpt>
      <trkpt lat="47.28628" lon="-1.53594">
        <ele>17.29088</ele>
        <time>2025-09-02T19:09:29.116Z</time>
      </trkpt>
      <trkpt lat="47.28627" lon="-1.53633">
        <ele>17.800066</ele>
        <time>2025-09-02T19:09:37.315Z</time>
      </trkpt>
      <trkpt lat="47.28623" lon="-1.53676">
        <ele>18.381351</ele>
        <time>2025-09-02T19:09:47.361Z</time>
      </trkpt>
      <trkpt lat="47.28621" lon="-1.53693">
        <ele>18.607468</ele>
        <time>2025-09-02T19:09:51.406Z</time>
      </trkpt>
      <trkpt lat="47.28611" lon="-1.53769">
        <ele>19.627605</ele>
        <time>2025-09-02T19:10:09.755Z</time>
      </trkpt>
      <trkpt lat="47.28599" lon="-1.53841">
        <ele>20.613096</ele>
        <time>2025-09-02T19:10:27.102Z</time>
      </trkpt>
      <trkpt lat="47.28573" lon="-1.53956">
        <ele>21.007355</ele>
        <time>2025-09-02T19:10:50.864Z</time>
      </trkpt>
      <trkpt lat="47.28583" lon="-1.53969">
        <ele>21.069975</ele>
        <time>2025-09-02T19:10:54.308Z</time>
      </trkpt>
      <trkpt lat="47.28627" lon="-1.54004">
        <ele>21.296974</ele>
        <time>2025-09-02T19:11:05.631Z</time>
      </trkpt>
      <trkpt lat="47.28682" lon="-1.54032">
        <ele>21.239936</ele>
        <time>2025-09-02T19:11:17.912Z</time>
      </trkpt>
      <trkpt lat="47.28744" lon="-1.54061">
        <ele>20.584883</ele>
        <time>2025-09-02T19:12:03.071Z</time>
      </trkpt>
      <trkpt lat="47.28785" lon="-1.5408">
        <ele>20.148502</ele>
        <time>2025-09-02T19:12:33.113Z</time>
      </trkpt>
      <trkpt lat="47.288" lon="-1.54084">
        <ele>19.989027</ele>
        <time>2025-09-02T19:12:44.133Z</time>
      </trkpt>
      <trkpt lat="47.28802" lon="-1.54104">
        <ele>19.850036</ele>
        <time>2025-09-02T19:12:46.804Z</time>
      </trkpt>
      <trkpt lat="47.28788" lon="-1.5411">
        <ele>19.696087</ele>
        <time>2025-09-02T19:12:49.788Z</time>
      </trkpt>
      <trkpt lat="47.28768" lon="-1.54123">
        <ele>19.565074</ele>
        <time>2025-09-02T19:12:53.957Z</time>
      </trkpt>
      <trkpt lat="47.28748" lon="-1.54144">
        <ele>19.440104</ele>
        <time>2025-09-02T19:12:58.845Z</time>
      </trkpt>
      <trkpt lat="47.28729" lon="-1.54174">
        <ele>19.301729</ele>
        <time>2025-09-02T19:13:04.304Z</time>
      </trkpt>
      <trkpt lat="47.2872" lon="-1.54197">
        <ele>19.21134</ele>
        <time>2025-09-02T19:13:07.964Z</time>
      </trkpt>
      <trkpt lat="47.28693" lon="-1.54265">
        <ele>18.942957</ele>
        <time>2025-09-02T19:13:19.233Z</time>
      </trkpt>
      <trkpt lat="47.28674" lon="-1.54294">
        <ele>18.805077</ele>
        <time>2025-09-02T19:13:25.429Z</time>
      </trkpt>
      <trkpt lat="47.2867" lon="-1.543">
        <ele>18.776576</ele>
        <time>2025-09-02T19:13:26.834Z</time>
      </trkpt>
      <trkpt lat="47.28664" lon="-1.543">
        <ele>18.748485</ele>
        <time>2025-09-02T19:13:28.217Z</time>
      </trkpt>
      <trkpt lat="47.28661" lon="-1.54307">
        <ele>18.793402</ele>
        <time>2025-09-02T19:13:29.718Z</time>
      </trkpt>
      <trkpt lat="47.2866" lon="-1.54314">
        <ele>18.834155</ele>
        <time>2025-09-02T19:13:30.958Z</time>
      </trkpt>
      <trkpt lat="47.28663" lon="-1.54325">
        <ele>18.90493</ele>
        <time>2025-09-02T19:13:33.038Z</time>
      </trkpt>
      <trkpt lat="47.28662" lon="-1.54332">
        <ele>18.945915</ele>
        <time>2025-09-02T19:13:34.306Z</time>
      </trkpt>
      <trkpt lat="47.28654" lon="-1.54375">
        <ele>19.207204</ele>
        <time>2025-09-02T19:13:42.417Z</time>
      </trkpt>
      <trkpt lat="47.28614" lon="-1.54452">
        <ele>19.776627</ele>
        <time>2025-09-02T19:14:00.330Z</time>
      </trkpt>
      <trkpt lat="47.28594" lon="-1.54515">
        <ele>20.184221</ele>
        <time>2025-09-02T19:14:13.341Z</time>
      </trkpt>
      <trkpt lat="47.28589" lon="-1.54523">
        <ele>20.243575</ele>
        <time>2025-09-02T19:14:15.189Z</time>
      </trkpt>
      <trkpt lat="47.28584" lon="-1.54522">
        <ele>20.291138</ele>
        <time>2025-09-02T19:14:16.717Z</time>
      </trkpt>
      <trkpt lat="47.28581" lon="-1.54529">
        <ele>20.361914</ele>
        <time>2025-09-02T19:14:18.286Z</time>
      </trkpt>
      <trkpt lat="47.28579" lon="-1.54537">
        <ele>20.429191</ele>
        <time>2025-09-02T19:14:19.738Z</time>
      </trkpt>
      <trkpt lat="47.28585" lon="-1.54549">
        <ele>20.555241</ele>
        <time>2025-09-02T19:14:22.452Z</time>
      </trkpt>
      <trkpt lat="47.28585" lon="-1.54556">
        <ele>20.618913</ele>
        <time>2025-09-02T19:14:23.814Z</time>
      </trkpt>
      <trkpt lat="47.28582" lon="-1.54593">
        <ele>20.933715</ele>
        <time>2025-09-02T19:14:30.546Z</time>
      </trkpt>
      <trkpt lat="47.28571" lon="-1.54677">
        <ele>21.6765</ele>
        <time>2025-09-02T19:14:46.549Z</time>
      </trkpt>
      <trkpt lat="47.28565" lon="-1.54725">
        <ele>22.095382</ele>
        <time>2025-09-02T19:14:56.643Z</time>
      </trkpt>
      <trkpt lat="47.28562" lon="-1.54752">
        <ele>22.32492</ele>
        <time>2025-09-02T19:15:02.551Z</time>
      </trkpt>
      <trkpt lat="47.28557" lon="-1.54834">
        <ele>23.096486</ele>
        <time>2025-09-02T19:15:19.714Z</time>
      </trkpt>
      <trkpt lat="47.28559" lon="-1.54897">
        <ele>23.699581</ele>
        <time>2025-09-02T19:15:32.218Z</time>
      </trkpt>
      <trkpt lat="47.28557" lon="-1.54915">
        <ele>23.876908</ele>
        <time>2025-09-02T19:15:35.927Z</time>
      </trkpt>
      <trkpt lat="47.28561" lon="-1.54917">
        <ele>23.938935</ele>
        <time>2025-09-02T19:15:37.208Z</time>
      </trkpt>
      <trkpt lat="47.28566" lon="-1.54918">
        <ele>24.018692</ele>
        <time>2025-09-02T19:15:38.882Z</time>
      </trkpt>
      <trkpt lat="47.28571" lon="-1.54918">
        <ele>24.084094</ele>
        <time>2025-09-02T19:15:40.279Z</time>
      </trkpt>
      <trkpt lat="47.28578" lon="-1.5492">
        <ele>24.190858</ele>
        <time>2025-09-02T19:15:42.523Z</time>
      </trkpt>
      <trkpt lat="47.28585" lon="-1.54928">
        <ele>24.312329</ele>
        <time>2025-09-02T19:15:45.148Z</time>
      </trkpt>
      <trkpt lat="47.28589" lon="-1.54947">
        <ele>24.501415</ele>
        <time>2025-09-02T19:15:49.043Z</time>
      </trkpt>
      <trkpt lat="47.28589" lon="-1.54951">
        <ele>24.53806</ele>
        <time>2025-09-02T19:15:49.845Z</time>
      </trkpt>
      <trkpt lat="47.28591" lon="-1.54965">
        <ele>24.673069</ele>
        <time>2025-09-02T19:15:52.582Z</time>
      </trkpt>
      <trkpt lat="47.28595" lon="-1.54985">
        <ele>24.87855</ele>
        <time>2025-09-02T19:15:56.783Z</time>
      </trkpt>
      <trkpt lat="47.28585" lon="-1.55003">
        <ele>25.105163</ele>
        <time>2025-09-02T19:16:01.091Z</time>
      </trkpt>
      <trkpt lat="47.2857" lon="-1.55038">
        <ele>25.335928</ele>
        <time>2025-09-02T19:16:08.274Z</time>
      </trkpt>
      <trkpt lat="47.28564" lon="-1.55047">
        <ele>25.40042</ele>
        <time>2025-09-02T19:16:10.518Z</time>
      </trkpt>
      <trkpt lat="47.28557" lon="-1.55047">
        <ele>25.452674</ele>
        <time>2025-09-02T19:16:12.255Z</time>
      </trkpt>
      <trkpt lat="47.28548" lon="-1.55047">
        <ele>25.522598</ele>
        <time>2025-09-02T19:16:14.769Z</time>
      </trkpt>
      <trkpt lat="47.28545" lon="-1.55036">
        <ele>25.583579</ele>
        <time>2025-09-02T19:16:16.860Z</time>
      </trkpt>
      <trkpt lat="47.28526" lon="-1.55015">
        <ele>25.763389</ele>
        <time>2025-09-02T19:16:23.493Z</time>
      </trkpt>
      <trkpt lat="47.28522" lon="-1.55008">
        <ele>25.814681</ele>
        <time>2025-09-02T19:16:25.328Z</time>
      </trkpt>
      <trkpt lat="47.28519" lon="-1.54997">
        <ele>25.87252</ele>
        <time>2025-09-02T19:16:27.509Z</time>
      </trkpt>
      <trkpt lat="47.2852" lon="-1.54991">
        <ele>25.904767</ele>
        <time>2025-09-02T19:16:28.599Z</time>
      </trkpt>
      <trkpt lat="47.28508" lon="-1.54983">
        <ele>26.005752</ele>
        <time>2025-09-02T19:16:32.135Z</time>
      </trkpt>
      <trkpt lat="47.28423" lon="-1.54984">
        <ele>26.533387</ele>
        <time>2025-09-02T19:16:52.678Z</time>
      </trkpt>
      <trkpt lat="47.28323" lon="-1.54974">
        <ele>26.615386</ele>
        <time>2025-09-02T19:17:16.243Z</time>
      </trkpt>
      <trkpt lat="47.28312" lon="-1.54977">
        <ele>26.624199</ele>
        <time>2025-09-02T19:17:18.533Z</time>
      </trkpt>
      <trkpt lat="47.28303" lon="-1.54987">
        <ele>26.633646</ele>
        <time>2025-09-02T19:17:21.010Z</time>
      </trkpt>
      <trkpt lat="47.28298" lon="-1.54988">
        <ele>26.637795</ele>
        <time>2025-09-02T19:17:22.075Z</time>
      </trkpt>
      <trkpt lat="47.28291" lon="-1.54987">
        <ele>26.643523</ele>
        <time>2025-09-02T19:17:23.569Z</time>
      </trkpt>
      <trkpt lat="47.2827" lon="-1.54973">
        <ele>26.661774</ele>
        <time>2025-09-02T19:17:28.289Z</time>
      </trkpt>
      <trkpt lat="47.28211" lon="-1.54964">
        <ele>27.104932</ele>
        <time>2025-09-02T19:17:41.049Z</time>
      </trkpt>
      <trkpt lat="47.28138" lon="-1.54947">
        <ele>27.691999</ele>
        <time>2025-09-02T19:17:59.205Z</time>
      </trkpt>
      <trkpt lat="47.27728" lon="-1.54825">
        <ele>36.272372</ele>
        <time>2025-09-02T19:20:22.126Z</time>
      </trkpt>
      <trkpt lat="47.2767" lon="-1.54813">
        <ele>36.203782</ele>
        <time>2025-09-02T19:20:37.389Z</time>
      </trkpt>
      <trkpt lat="47.27652" lon="-1.54814">
        <ele>36.181887</ele>
        <time>2025-09-02T19:20:41.657Z</time>
      </trkpt>
      <trkpt lat="47.27643" lon="-1.54819">
        <ele>36.171536</ele>
        <time>2025-09-02T19:20:43.562Z</time>
      </trkpt>
      <trkpt lat="47.27634" lon="-1.54825">
        <ele>36.159683</ele>
        <time>2025-09-02T19:20:45.691Z</time>
      </trkpt>
      <trkpt lat="47.27616" lon="-1.54829">
        <ele>36.137257</ele>
        <time>2025-09-02T19:20:49.568Z</time>
      </trkpt>
      <trkpt lat="47.27596" lon="-1.54817">
        <ele>36.111924</ele>
        <time>2025-09-02T19:20:53.757Z</time>
      </trkpt>
      <trkpt lat="47.27594" lon="-1.54808">
        <ele>36.104213</ele>
        <time>2025-09-02T19:20:55.023Z</time>
      </trkpt>
      <trkpt lat="47.2759" lon="-1.54795">
        <ele>36.093111</ele>
        <time>2025-09-02T19:20:56.809Z</time>
      </trkpt>
      <trkpt lat="47.27584" lon="-1.54783">
        <ele>36.080883</ele>
        <time>2025-09-02T19:20:58.783Z</time>
      </trkpt>
      <trkpt lat="47.27575" lon="-1.54775">
        <ele>36.0366</ele>
        <time>2025-09-02T19:21:00.849Z</time>
      </trkpt>
      <trkpt lat="47.27567" lon="-1.54772">
        <ele>35.861395</ele>
        <time>2025-09-02T19:21:02.313Z</time>
      </trkpt>
      <trkpt lat="47.27506" lon="-1.54754">
        <ele>34.505795</ele>
        <time>2025-09-02T19:21:13.287Z</time>
      </trkpt>
      <trkpt lat="47.27466" lon="-1.54748">
        <ele>33.606394</ele>
        <time>2025-09-02T19:21:20.625Z</time>
      </trkpt>
      <trkpt lat="47.27459" lon="-1.5475">
        <ele>33.447734</ele>
        <time>2025-09-02T19:21:21.917Z</time>
      </trkpt>
      <trkpt lat="47.27446" lon="-1.54762">
        <ele>33.118701</ele>
        <time>2025-09-02T19:21:24.569Z</time>
      </trkpt>
      <trkpt lat="47.27438" lon="-1.5477">
        <ele>32.918141</ele>
        <time>2025-09-02T19:21:26.192Z</time>
      </trkpt>
      <trkpt lat="47.27428" lon="-1.54775">
        <ele>32.681245</ele>
        <time>2025-09-02T19:21:28.141Z</time>
      </trkpt>
      <trkpt lat="47.27418" lon="-1.54779">
        <ele>32.443755</ele>
        <time>2025-09-02T19:21:30.092Z</time>
      </trkpt>
      <trkpt lat="47.27413" lon="-1.54778">
        <ele>32.332564</ele>
        <time>2025-09-02T19:21:31.014Z</time>
      </trkpt>
      <trkpt lat="47.2741" lon="-1.54777">
        <ele>32.267515</ele>
        <time>2025-09-02T19:21:31.543Z</time>
      </trkpt>
      <trkpt lat="47.27407" lon="-1.54775">
        <ele>32.19263</ele>
        <time>2025-09-02T19:21:32.164Z</time>
      </trkpt>
      <trkpt lat="47.27395" lon="-1.54763">
        <ele>32.001917</ele>
        <time>2025-09-02T19:21:34.752Z</time>
      </trkpt>
      <trkpt lat="47.27378" lon="-1.54737">
        <ele>31.727932</ele>
        <time>2025-09-02T19:21:39.337Z</time>
      </trkpt>
      <trkpt lat="47.27362" lon="-1.5472">
        <ele>31.511157</ele>
        <time>2025-09-02T19:21:42.969Z</time>
      </trkpt>
      <trkpt lat="47.27349" lon="-1.54712">
        <ele>31.354378</ele>
        <time>2025-09-02T19:21:45.642Z</time>
      </trkpt>
      <trkpt lat="47.27266" lon="-1.54685">
        <ele>30.413753</ele>
        <time>2025-09-02T19:22:02.958Z</time>
      </trkpt>
      <trkpt lat="47.2724" lon="-1.54681">
        <ele>30.136998</ele>
        <time>2025-09-02T19:22:08.602Z</time>
      </trkpt>
      <trkpt lat="47.27204" lon="-1.54668">
        <ele>30.142193</ele>
        <time>2025-09-02T19:22:16.851Z</time>
      </trkpt>
      <trkpt lat="47.27074" lon="-1.54629">
        <ele>30.160711</ele>
        <time>2025-09-02T19:22:47.261Z</time>
      </trkpt>
      <trkpt lat="47.27027" lon="-1.5462">
        <ele>30.001449</ele>
        <time>2025-09-02T19:22:57.908Z</time>
      </trkpt>
      <trkpt lat="47.27" lon="-1.54618">
        <ele>29.892608</ele>
        <time>2025-09-02T19:23:03.581Z</time>
      </trkpt>
      <trkpt lat="47.26901" lon="-1.54628">
        <ele>29.476181</ele>
        <time>2025-09-02T19:23:24.338Z</time>
      </trkpt>
      <trkpt lat="47.26877" lon="-1.54621">
        <ele>29.261498</ele>
        <time>2025-09-02T19:23:29.350Z</time>
      </trkpt>
      <trkpt lat="47.26866" lon="-1.54615">
        <ele>29.073497</ele>
        <time>2025-09-02T19:23:31.668Z</time>
      </trkpt>
      <trkpt lat="47.2685" lon="-1.54606">
        <ele>28.790137</ele>
        <time>2025-09-02T19:23:35.153Z</time>
      </trkpt>
      <trkpt lat="47.26835" lon="-1.54604">
        <ele>28.547856</ele>
        <time>2025-09-02T19:23:38.080Z</time>
      </trkpt>
      <trkpt lat="47.26783" lon="-1.54601">
        <ele>27.697145</ele>
        <time>2025-09-02T19:23:47.983Z</time>
      </trkpt>
      <trkpt lat="47.26743" lon="-1.54603">
        <ele>27.035504</ele>
        <time>2025-09-02T19:23:55.407Z</time>
      </trkpt>
      <trkpt lat="47.26731" lon="-1.54603">
        <ele>26.841763</ele>
        <time>2025-09-02T19:23:57.563Z</time>
      </trkpt>
      <trkpt lat="47.26661" lon="-1.54613">
        <ele>24.704215</ele>
        <time>2025-09-02T19:24:09.934Z</time>
      </trkpt>
      <trkpt lat="47.2662" lon="-1.54624">
        <ele>23.15296</ele>
        <time>2025-09-02T19:24:16.909Z</time>
      </trkpt>
      <trkpt lat="47.26572" lon="-1.54642">
        <ele>21.306736</ele>
        <time>2025-09-02T19:24:25.060Z</time>
      </trkpt>
      <trkpt lat="47.26528" lon="-1.54663">
        <ele>19.600061</ele>
        <time>2025-09-02T19:24:32.447Z</time>
      </trkpt>
      <trkpt lat="47.26483" lon="-1.54691">
        <ele>17.633663</ele>
        <time>2025-09-02T19:24:40.408Z</time>
      </trkpt>
      <trkpt lat="47.26435" lon="-1.54727">
        <ele>15.528404</ele>
        <time>2025-09-02T19:24:48.966Z</time>
      </trkpt>
      <trkpt lat="47.26361" lon="-1.54812">
        <ele>12.273727</ele>
        <time>2025-09-02T19:25:04.900Z</time>
      </trkpt>
      <trkpt lat="47.2636" lon="-1.54814">
        <ele>12.243777</ele>
        <time>2025-09-02T19:25:05.207Z</time>
      </trkpt>
      <trkpt lat="47.26354" lon="-1.54801">
        <ele>12.055883</ele>
        <time>2025-09-02T19:25:07.104Z</time>
      </trkpt>
      <trkpt lat="47.26349" lon="-1.54792">
        <ele>11.923753</ele>
        <time>2025-09-02T19:25:08.446Z</time>
      </trkpt>
      <trkpt lat="47.26345" lon="-1.54787">
        <ele>11.827315</ele>
        <time>2025-09-02T19:25:09.433Z</time>
      </trkpt>
      <trkpt lat="47.26333" lon="-1.54788">
        <ele>11.609664</ele>
        <time>2025-09-02T19:25:11.677Z</time>
      </trkpt>
      <trkpt lat="47.26328" lon="-1.54788">
        <ele>11.530014</ele>
        <time>2025-09-02T19:25:12.524Z</time>
      </trkpt>
      <trkpt lat="47.26327" lon="-1.54788">
        <ele>11.5141</ele>
        <time>2025-09-02T19:25:12.681Z</time>
      </trkpt>
      <trkpt lat="47.26326" lon="-1.54752">
        <ele>11.078908</ele>
        <time>2025-09-02T19:25:17.267Z</time>
      </trkpt>
      <trkpt lat="47.26323" lon="-1.54737">
        <ele>10.900796</ele>
        <time>2025-09-02T19:25:19.177Z</time>
      </trkpt>
      <trkpt lat="47.26317" lon="-1.54719">
        <ele>10.652987</ele>
        <time>2025-09-02T19:25:21.864Z</time>
      </trkpt>
      <trkpt lat="47.26311" lon="-1.54706">
        <ele>10.461041</ele>
        <time>2025-09-02T19:25:23.975Z</time>
      </trkpt>
      <trkpt lat="47.26292" lon="-1.54683">
        <ele>10.025646</ele>
        <time>2025-09-02T19:25:28.874Z</time>
      </trkpt>
      <trkpt lat="47.26272" lon="-1.54673">
        <ele>9.654644</ele>
        <time>2025-09-02T19:25:33.106Z</time>
      </trkpt>
      <trkpt lat="47.26243" lon="-1.54674">
        <ele>9.453427</ele>
        <time>2025-09-02T19:25:38.892Z</time>
      </trkpt>
      <trkpt lat="47.26219" lon="-1.54682">
        <ele>9.427508</ele>
        <time>2025-09-02T19:25:44.031Z</time>
      </trkpt>
      <trkpt lat="47.26184" lon="-1.54698">
        <ele>9.390711</ele>
        <time>2025-09-02T19:25:51.475Z</time>
      </trkpt>
      <trkpt lat="47.26149" lon="-1.54722">
        <ele>9.351008</ele>
        <time>2025-09-02T19:25:59.659Z</time>
      </trkpt>
      <trkpt lat="47.26111" lon="-1.54759">
        <ele>9.304136</ele>
        <time>2025-09-02T19:26:10.338Z</time>
      </trkpt>
      <trkpt lat="47.26105" lon="-1.54764">
        <ele>9.297187</ele>
        <time>2025-09-02T19:26:12.101Z</time>
      </trkpt>
      <trkpt lat="47.26062" lon="-1.54802">
        <ele>10.342589</ele>
        <time>2025-09-02T19:26:26.976Z</time>
      </trkpt>
      <trkpt lat="47.26044" lon="-1.54809">
        <ele>10.839687</ele>
        <time>2025-09-02T19:26:33.396Z</time>
      </trkpt>
      <trkpt lat="47.26029" lon="-1.5481">
        <ele>11.233347</ele>
        <time>2025-09-02T19:26:38.600Z</time>
      </trkpt>
      <trkpt lat="47.26016" lon="-1.54808">
        <ele>11.581288</ele>
        <time>2025-09-02T19:26:43.303Z</time>
      </trkpt>
      <trkpt lat="47.25996" lon="-1.54799">
        <ele>12.125705</ele>
        <time>2025-09-02T19:26:50.826Z</time>
      </trkpt>
      <trkpt lat="47.25991" lon="-1.54787">
        <ele>12.358885</ele>
        <time>2025-09-02T19:26:54.263Z</time>
      </trkpt>
      <trkpt lat="47.25971" lon="-1.54745">
        <ele>13.269569</ele>
        <time>2025-09-02T19:27:08.077Z</time>
      </trkpt>
      <trkpt lat="47.25955" lon="-1.54701">
        <ele>14.159154</ele>
        <time>2025-09-02T19:27:22.696Z</time>
      </trkpt>
      <trkpt lat="47.25929" lon="-1.54615">
        <ele>15.902758</ele>
        <time>2025-09-02T19:27:49.627Z</time>
      </trkpt>
      <trkpt lat="47.25925" lon="-1.54603">
        <ele>16.137112</ele>
        <time>2025-09-02T19:27:52.980Z</time>
      </trkpt>
      <trkpt lat="47.25921" lon="-1.54578">
        <ele>16.615252</ele>
        <time>2025-09-02T19:27:59.412Z</time>
      </trkpt>
      <trkpt lat="47.25913" lon="-1.54562">
        <ele>16.989233</ele>
        <time>2025-09-02T19:28:04.445Z</time>
      </trkpt>
      <trkpt lat="47.25909" lon="-1.54563">
        <ele>17.081599</ele>
        <time>2025-09-02T19:28:05.560Z</time>
      </trkpt>
      <trkpt lat="47.25903" lon="-1.54559">
        <ele>17.273493</ele>
        <time>2025-09-02T19:28:08.022Z</time>
      </trkpt>
      <trkpt lat="47.25891" lon="-1.54527">
        <ele>17.955847</ele>
        <time>2025-09-02T19:28:16.293Z</time>
      </trkpt>
      <trkpt lat="47.25884" lon="-1.54517">
        <ele>18.211977</ele>
        <time>2025-09-02T19:28:19.305Z</time>
      </trkpt>
      <trkpt lat="47.25872" lon="-1.5453">
        <ele>18.598136</ele>
        <time>2025-09-02T19:28:23.583Z</time>
      </trkpt>
      <trkpt lat="47.25848" lon="-1.54503">
        <ele>18.691196</ele>
        <time>2025-09-02T19:28:32.012Z</time>
      </trkpt>
      <trkpt lat="47.25811" lon="-1.54468">
        <ele>18.344977</ele>
        <time>2025-09-02T19:28:41.349Z</time>
      </trkpt>
      <trkpt lat="47.25758" lon="-1.54418">
        <ele>17.844946</ele>
        <time>2025-09-02T19:28:53.391Z</time>
      </trkpt>
      <trkpt lat="47.25731" lon="-1.54385">
        <ele>17.571298</ele>
        <time>2025-09-02T19:28:59.825Z</time>
      </trkpt>
      <trkpt lat="47.25704" lon="-1.54339">
        <ele>17.056018</ele>
        <time>2025-09-02T19:29:07.596Z</time>
      </trkpt>
      <trkpt lat="47.25652" lon="-1.54222">
        <ele>15.586765</ele>
        <time>2025-09-02T19:29:25.342Z</time>
      </trkpt>
      <trkpt lat="47.25635" lon="-1.54177">
        <ele>15.044736</ele>
        <time>2025-09-02T19:29:32.471Z</time>
      </trkpt>
      <trkpt lat="47.25627" lon="-1.54159">
        <ele>14.826753</ele>
        <time>2025-09-02T19:29:35.237Z</time>
      </trkpt>
      <trkpt lat="47.25624" lon="-1.54161">
        <ele>14.772544</ele>
        <time>2025-09-02T19:29:35.914Z</time>
      </trkpt>
      <trkpt lat="47.25623" lon="-1.54167">
        <ele>14.706763</ele>
        <time>2025-09-02T19:29:36.703Z</time>
      </trkpt>
      <trkpt lat="47.25628" lon="-1.54182">
        <ele>14.449178</ele>
        <time>2025-09-02T19:29:39.011Z</time>
      </trkpt>
      <trkpt lat="47.25654" lon="-1.54246">
        <ele>13.150003</ele>
        <time>2025-09-02T19:29:48.419Z</time>
      </trkpt>
      <trkpt lat="47.25658" lon="-1.54269">
        <ele>12.746546</ele>
        <time>2025-09-02T19:29:51.258Z</time>
      </trkpt>
      <trkpt lat="47.25664" lon="-1.5431">
        <ele>12.00852</ele>
        <time>2025-09-02T19:29:56.371Z</time>
      </trkpt>
      <trkpt lat="47.25665" lon="-1.54314">
        <ele>11.930754</ele>
        <time>2025-09-02T19:29:56.918Z</time>
      </trkpt>
      <trkpt lat="47.25671" lon="-1.54315">
        <ele>11.792296</ele>
        <time>2025-09-02T19:29:57.893Z</time>
      </trkpt>
      <trkpt lat="47.25682" lon="-1.54473">
        <ele>9.02584</ele>
        <time>2025-09-02T19:30:16.013Z</time>
      </trkpt>
      <trkpt lat="47.25669" lon="-1.54532">
        <ele>7.949145</ele>
        <time>2025-09-02T19:30:23.238Z</time>
      </trkpt>
      <trkpt lat="47.25672" lon="-1.54598">
        <ele>6.807557</ele>
        <time>2025-09-02T19:30:31.234Z</time>
      </trkpt>
      <trkpt lat="47.25678" lon="-1.54628">
        <ele>6.264773</ele>
        <time>2025-09-02T19:30:35.167Z</time>
      </trkpt>
      <trkpt lat="47.25699" lon="-1.54686">
        <ele>5.369177</ele>
        <time>2025-09-02T19:30:43.600Z</time>
      </trkpt>
      <trkpt lat="47.25722" lon="-1.54957">
        <ele>4.185732</ele>
        <time>2025-09-02T19:31:21.720Z</time>
      </trkpt>
      <trkpt lat="47.25762" lon="-1.55304">
        <ele>5.414405</ele>
        <time>2025-09-02T19:32:18.877Z</time>
      </trkpt>
      <trkpt lat="47.25767" lon="-1.55423">
        <ele>6.428375</ele>
        <time>2025-09-02T19:32:42.841Z</time>
      </trkpt>
      <trkpt lat="47.25772" lon="-1.55465">
        <ele>6.844002</ele>
        <time>2025-09-02T19:32:53.748Z</time>
      </trkpt>
      <trkpt lat="47.25786" lon="-1.55496">
        <ele>7.362459</ele>
        <time>2025-09-02T19:33:03.310Z</time>
      </trkpt>
      <trkpt lat="47.25787" lon="-1.55509">
        <ele>7.542805</ele>
        <time>2025-09-02T19:33:06.457Z</time>
      </trkpt>
      <trkpt lat="47.25783" lon="-1.55523">
        <ele>7.759105</ele>
        <time>2025-09-02T19:33:10.125Z</time>
      </trkpt>
      <trkpt lat="47.25766" lon="-1.55559">
        <ele>8.355281</ele>
        <time>2025-09-02T19:33:20.147Z</time>
      </trkpt>
      <trkpt lat="47.25771" lon="-1.55584">
        <ele>8.715478</ele>
        <time>2025-09-02T19:33:25.911Z</time>
      </trkpt>
      <trkpt lat="47.25771" lon="-1.55608">
        <ele>9.05292</ele>
        <time>2025-09-02T19:33:31.275Z</time>
      </trkpt>
      <trkpt lat="47.25764" lon="-1.55608">
        <ele>9.177407</ele>
        <time>2025-09-02T19:33:33.444Z</time>
      </trkpt>
      <trkpt lat="47.25764" lon="-1.55584">
        <ele>9.505264</ele>
        <time>2025-09-02T19:33:39.051Z</time>
      </trkpt>
      <trkpt lat="47.2575" lon="-1.55529">
        <ele>10.318688</ele>
        <time>2025-09-02T19:33:52.822Z</time>
      </trkpt>
      <trkpt lat="47.25723" lon="-1.55478">
        <ele>10.607751</ele>
        <time>2025-09-02T19:34:05.508Z</time>
      </trkpt>
      <trkpt lat="47.25691" lon="-1.55408">
        <ele>10.938709</ele>
        <time>2025-09-02T19:34:20.298Z</time>
      </trkpt>
      <trkpt lat="47.25657" lon="-1.55344">
        <ele>11.254949</ele>
        <time>2025-09-02T19:34:35.627Z</time>
      </trkpt>
      <trkpt lat="47.25638" lon="-1.55309">
        <ele>11.36163</ele>
        <time>2025-09-02T19:34:43.770Z</time>
      </trkpt>
      <trkpt lat="47.2561" lon="-1.55241">
        <ele>10.873505</ele>
        <time>2025-09-02T19:34:56.663Z</time>
      </trkpt>
      <trkpt lat="47.25541" lon="-1.55141">
        <ele>9.987867</ele>
        <time>2025-09-02T19:35:17.894Z</time>
      </trkpt>
      <trkpt lat="47.25523" lon="-1.55068">
        <ele>9.35846</ele>
        <time>2025-09-02T19:35:29.011Z</time>
      </trkpt>
      <trkpt lat="47.25495" lon="-1.5496">
        <ele>8.219541</ele>
        <time>2025-09-02T19:35:45.449Z</time>
      </trkpt>
      <trkpt lat="47.25494" lon="-1.54914">
        <ele>7.760693</ele>
        <time>2025-09-02T19:35:52.127Z</time>
      </trkpt>
      <trkpt lat="47.25496" lon="-1.5488">
        <ele>7.427974</ele>
        <time>2025-09-02T19:35:57.111Z</time>
      </trkpt>
      <trkpt lat="47.25498" lon="-1.54765">
        <ele>7.308868</ele>
        <time>2025-09-02T19:36:15.378Z</time>
      </trkpt>
      <trkpt lat="47.25496" lon="-1.54751">
        <ele>7.332573</ele>
        <time>2025-09-02T19:36:17.965Z</time>
      </trkpt>
      <trkpt lat="47.2549" lon="-1.54742">
        <ele>7.352803</ele>
        <time>2025-09-02T19:36:20.250Z</time>
      </trkpt>
      <trkpt lat="47.25478" lon="-1.54735">
        <ele>7.383824</ele>
        <time>2025-09-02T19:36:23.600Z</time>
      </trkpt>
      <trkpt lat="47.25474" lon="-1.54727">
        <ele>7.400621</ele>
        <time>2025-09-02T19:36:25.401Z</time>
      </trkpt>
      <trkpt lat="47.25478" lon="-1.54666">
        <ele>7.501656</ele>
        <time>2025-09-02T19:36:36.637Z</time>
      </trkpt>
      <trkpt lat="47.2548" lon="-1.54659">
        <ele>7.51535</ele>
        <time>2025-09-02T19:36:38.228Z</time>
      </trkpt>
      <trkpt lat="47.255" lon="-1.54627">
        <ele>7.586703</ele>
        <time>2025-09-02T19:36:46.910Z</time>
      </trkpt>
      <trkpt lat="47.25504" lon="-1.54614">
        <ele>7.646683</ele>
        <time>2025-09-02T19:36:50.059Z</time>
      </trkpt>
      <trkpt lat="47.25517" lon="-1.54606">
        <ele>7.819771</ele>
        <time>2025-09-02T19:36:54.482Z</time>
      </trkpt>
      <trkpt lat="47.25524" lon="-1.54599">
        <ele>7.922488</ele>
        <time>2025-09-02T19:36:57.142Z</time>
      </trkpt>
      <trkpt lat="47.25529" lon="-1.54584">
        <ele>8.062914</ele>
        <time>2025-09-02T19:37:00.779Z</time>
      </trkpt>
      <trkpt lat="47.2553" lon="-1.54563">
        <ele>8.24538</ele>
        <time>2025-09-02T19:37:05.551Z</time>
      </trkpt>
      <trkpt lat="47.25526" lon="-1.5452">
        <ele>8.611036</ele>
        <time>2025-09-02T19:37:15.304Z</time>
      </trkpt>
      <trkpt lat="47.25518" lon="-1.54481">
        <ele>8.958434</ele>
        <time>2025-09-02T19:37:24.804Z</time>
      </trkpt>
      <trkpt lat="47.25508" lon="-1.54453">
        <ele>9.228116</ele>
        <time>2025-09-02T19:37:31.373Z</time>
      </trkpt>
      <trkpt lat="47.25502" lon="-1.5444">
        <ele>9.355168</ele>
        <time>2025-09-02T19:37:34.495Z</time>
      </trkpt>
      <trkpt lat="47.25501" lon="-1.54428">
        <ele>9.458057</ele>
        <time>2025-09-02T19:37:36.980Z</time>
      </trkpt>
      <trkpt lat="47.25495" lon="-1.54383">
        <ele>9.846399</ele>
        <time>2025-09-02T19:37:46.403Z</time>
      </trkpt>
      <trkpt lat="47.25485" lon="-1.54347">
        <ele>9.52608</ele>
        <time>2025-09-02T19:37:53.615Z</time>
      </trkpt>
      <trkpt lat="47.25485" lon="-1.54337">
        <ele>9.441895</ele>
        <time>2025-09-02T19:37:55.465Z</time>
      </trkpt>
      <trkpt lat="47.25496" lon="-1.54307">
        <ele>9.161349</ele>
        <time>2025-09-02T19:38:00.991Z</time>
      </trkpt>
      <trkpt lat="47.25496" lon="-1.54299">
        <ele>9.093171</ele>
        <time>2025-09-02T19:38:02.326Z</time>
      </trkpt>
      <trkpt lat="47.25486" lon="-1.54257">
        <ele>8.718429</ele>
        <time>2025-09-02T19:38:09.266Z</time>
      </trkpt>
      <trkpt lat="47.25476" lon="-1.54183">
        <ele>8.092576</ele>
        <time>2025-09-02T19:38:19.806Z</time>
      </trkpt>
      <trkpt lat="47.25477" lon="-1.54155">
        <ele>7.863569</ele>
        <time>2025-09-02T19:38:23.382Z</time>
      </trkpt>
      <trkpt lat="47.25485" lon="-1.54093">
        <ele>7.152253</ele>
        <time>2025-09-02T19:38:31.663Z</time>
      </trkpt>
      <trkpt lat="47.25486" lon="-1.54065">
        <ele>6.779632</ele>
        <time>2025-09-02T19:38:35.393Z</time>
      </trkpt>
      <trkpt lat="47.25479" lon="-1.54049">
        <ele>6.517884</ele>
        <time>2025-09-02T19:38:38.065Z</time>
      </trkpt>
      <trkpt lat="47.25464" lon="-1.54038">
        <ele>6.185073</ele>
        <time>2025-09-02T19:38:41.561Z</time>
      </trkpt>
      <trkpt lat="47.25445" lon="-1.54023">
        <ele>5.772687</ele>
        <time>2025-09-02T19:38:45.902Z</time>
      </trkpt>
      <trkpt lat="47.25444" lon="-1.54016">
        <ele>5.678655</ele>
        <time>2025-09-02T19:38:46.902Z</time>
      </trkpt>
      <trkpt lat="47.25432" lon="-1.54019">
        <ele>5.440974</ele>
        <time>2025-09-02T19:38:49.155Z</time>
      </trkpt>
      <trkpt lat="47.25404" lon="-1.54026">
        <ele>4.882974</ele>
        <time>2025-09-02T19:38:54.494Z</time>
      </trkpt>
      <trkpt lat="47.25374" lon="-1.54033">
        <ele>4.27345</ele>
        <time>2025-09-02T19:39:00.472Z</time>
      </trkpt>
      <trkpt lat="47.25369" lon="-1.54034">
        <ele>4.18047</ele>
        <time>2025-09-02T19:39:01.433Z</time>
      </trkpt>
      <trkpt lat="47.25358" lon="-1.54037">
        <ele>4.087669</ele>
        <time>2025-09-02T19:39:03.722Z</time>
      </trkpt>
      <trkpt lat="47.25337" lon="-1.54041">
        <ele>3.996412</ele>
        <time>2025-09-02T19:39:08.070Z</time>
      </trkpt>
      <trkpt lat="47.2533" lon="-1.54043">
        <ele>3.965509</ele>
        <time>2025-09-02T19:39:09.599Z</time>
      </trkpt>
      <trkpt lat="47.25259" lon="-1.54062">
        <ele>3.644831</ele>
        <time>2025-09-02T19:39:25.984Z</time>
      </trkpt>
      <trkpt lat="47.2519" lon="-1.54082">
        <ele>3.334819</ele>
        <time>2025-09-02T19:39:40.516Z</time>
      </trkpt>
      <trkpt lat="47.25182" lon="-1.54087">
        <ele>3.350148</ele>
        <time>2025-09-02T19:39:42.423Z</time>
      </trkpt>
      <trkpt lat="47.25174" lon="-1.54096">
        <ele>3.372121</ele>
        <time>2025-09-02T19:39:44.507Z</time>
      </trkpt>
      <trkpt lat="47.25166" lon="-1.54095">
        <ele>3.391134</ele>
        <time>2025-09-02T19:39:46.240Z</time>
      </trkpt>
      <trkpt lat="47.25154" lon="-1.54087">
        <ele>3.42125</ele>
        <time>2025-09-02T19:39:48.999Z</time>
      </trkpt>
      <trkpt lat="47.25122" lon="-1.54106">
        <ele>3.499719</ele>
        <time>2025-09-02T19:39:57.123Z</time>
      </trkpt>
      <trkpt lat="47.25117" lon="-1.5411">
        <ele>3.512417</ele>
        <time>2025-09-02T19:39:58.479Z</time>
      </trkpt>
      <trkpt lat="47.25092" lon="-1.54126">
        <ele>3.57519</ele>
        <time>2025-09-02T19:40:05.050Z</time>
      </trkpt>
      <trkpt lat="47.25071" lon="-1.54144">
        <ele>3.629994</ele>
        <time>2025-09-02T19:40:10.999Z</time>
      </trkpt>
      <trkpt lat="47.25" lon="-1.54228">
        <ele>4.253741</ele>
        <time>2025-09-02T19:40:40.546Z</time>
      </trkpt>
      <trkpt lat="47.2497" lon="-1.54266">
        <ele>4.738697</ele>
        <time>2025-09-02T19:40:53.838Z</time>
      </trkpt>
      <trkpt lat="47.24955" lon="-1.54288">
        <ele>4.993173</ele>
        <time>2025-09-02T19:41:00.667Z</time>
      </trkpt>
      <trkpt lat="47.24884" lon="-1.5437">
        <ele>5.87144</ele>
        <time>2025-09-02T19:41:28.095Z</time>
      </trkpt>
      <trkpt lat="47.24809" lon="-1.54457">
        <ele>5.449024</ele>
        <time>2025-09-02T19:41:49.667Z</time>
      </trkpt>
      <trkpt lat="47.24775" lon="-1.54491">
        <ele>5.263376</ele>
        <time>2025-09-02T19:41:59.156Z</time>
      </trkpt>
      <trkpt lat="47.2475" lon="-1.54526">
        <ele>5.141295</ele>
        <time>2025-09-02T19:42:06.914Z</time>
      </trkpt>
      <trkpt lat="47.24736" lon="-1.54538">
        <ele>5.172776</ele>
        <time>2025-09-02T19:42:10.524Z</time>
      </trkpt>
      <trkpt lat="47.2473" lon="-1.54543">
        <ele>5.186347</ele>
        <time>2025-09-02T19:42:12.180Z</time>
      </trkpt>
      <trkpt lat="47.24718" lon="-1.54554">
        <ele>5.213726</ele>
        <time>2025-09-02T19:42:15.474Z</time>
      </trkpt>
      <trkpt lat="47.24642" lon="-1.54592">
        <ele>5.373963</ele>
        <time>2025-09-02T19:42:36.098Z</time>
      </trkpt>
      <trkpt lat="47.24632" lon="-1.54601">
        <ele>5.397309</ele>
        <time>2025-09-02T19:42:39.456Z</time>
      </trkpt>
      <trkpt lat="47.24625" lon="-1.54604">
        <ele>5.41118</ele>
        <time>2025-09-02T19:42:41.420Z</time>
      </trkpt>
      <trkpt lat="47.24564" lon="-1.54613">
        <ele>5.567634</ele>
        <time>2025-09-02T19:42:59.152Z</time>
      </trkpt>
      <trkpt lat="47.24532" lon="-1.5463">
        <ele>5.687172</ele>
        <time>2025-09-02T19:43:09.934Z</time>
      </trkpt>
      <trkpt lat="47.2451" lon="-1.5464">
        <ele>5.768176</ele>
        <time>2025-09-02T19:43:16.754Z</time>
      </trkpt>
      <trkpt lat="47.24489" lon="-1.54654">
        <ele>5.850605</ele>
        <time>2025-09-02T19:43:23.160Z</time>
      </trkpt>
      <trkpt lat="47.24465" lon="-1.54675">
        <ele>5.948923</ele>
        <time>2025-09-02T19:43:30.019Z</time>
      </trkpt>
      <trkpt lat="47.24368" lon="-1.54735">
        <ele>5.941703</ele>
        <time>2025-09-02T19:43:54.775Z</time>
      </trkpt>
      <trkpt lat="47.24344" lon="-1.54758">
        <ele>5.850239</ele>
        <time>2025-09-02T19:44:00.986Z</time>
      </trkpt>
      <trkpt lat="47.24337" lon="-1.54766">
        <ele>5.821794</ele>
        <time>2025-09-02T19:44:02.931Z</time>
      </trkpt>
      <trkpt lat="47.24328" lon="-1.54787">
        <ele>5.766269</ele>
        <time>2025-09-02T19:44:06.919Z</time>
      </trkpt>
      <trkpt lat="47.24327" lon="-1.54793">
        <ele>5.752831</ele>
        <time>2025-09-02T19:44:07.904Z</time>
      </trkpt>
      <trkpt lat="47.24317" lon="-1.54797">
        <ele>5.719503</ele>
        <time>2025-09-02T19:44:10.059Z</time>
      </trkpt>
      <trkpt lat="47.24269" lon="-1.54815">
        <ele>5.56096</ele>
        <time>2025-09-02T19:44:21.195Z</time>
      </trkpt>
      <trkpt lat="47.24269" lon="-1.54834">
        <ele>5.55862</ele>
        <time>2025-09-02T19:44:25.949Z</time>
      </trkpt>
      <trkpt lat="47.2427" lon="-1.54865">
        <ele>5.621722</ele>
        <time>2025-09-02T19:44:34.188Z</time>
      </trkpt>
      <trkpt lat="47.24273" lon="-1.54893">
        <ele>5.679738</ele>
        <time>2025-09-02T19:44:41.866Z</time>
      </trkpt>
      <trkpt lat="47.24284" lon="-1.54919">
        <ele>5.74186</ele>
        <time>2025-09-02T19:44:50.134Z</time>
      </trkpt>
      <trkpt lat="47.24298" lon="-1.54947">
        <ele>5.813504</ele>
        <time>2025-09-02T19:44:59.690Z</time>
      </trkpt>
      <trkpt lat="47.24306" lon="-1.54997">
        <ele>5.917628</ele>
        <time>2025-09-02T19:45:13.347Z</time>
      </trkpt>
      <trkpt lat="47.243" lon="-1.55084">
        <ele>6.09724</ele>
        <time>2025-09-02T19:45:35.797Z</time>
      </trkpt>
      <trkpt lat="47.24301" lon="-1.55146">
        <ele>6.229159</ele>
        <time>2025-09-02T19:45:51.135Z</time>
      </trkpt>
      <trkpt lat="47.243" lon="-1.55181">
        <ele>6.305088</ele>
        <time>2025-09-02T19:45:59.964Z</time>
      </trkpt>
      <trkpt lat="47.24295" lon="-1.55223">
        <ele>6.396178</ele>
        <time>2025-09-02T19:46:10.792Z</time>
      </trkpt>
      <trkpt lat="47.24284" lon="-1.55309">
        <ele>6.585268</ele>
        <time>2025-09-02T19:46:26.741Z</time>
      </trkpt>
      <trkpt lat="47.24285" lon="-1.55327">
        <ele>6.622289</ele>
        <time>2025-09-02T19:46:30.080Z</time>
      </trkpt>
      <trkpt lat="47.24291" lon="-1.55345">
        <ele>6.762496</ele>
        <time>2025-09-02T19:46:34.099Z</time>
      </trkpt>
      <trkpt lat="47.24292" lon="-1.55371">
        <ele>7.105582</ele>
        <time>2025-09-02T19:46:38.829Z</time>
      </trkpt>
      <trkpt lat="47.24273" lon="-1.55369">
        <ele>7.489556</ele>
        <time>2025-09-02T19:46:44.333Z</time>
      </trkpt>
      <trkpt lat="47.24254" lon="-1.55367">
        <ele>7.865852</ele>
        <time>2025-09-02T19:46:50.176Z</time>
      </trkpt>
      <trkpt lat="47.24248" lon="-1.55384">
        <ele>8.11939</ele>
        <time>2025-09-02T19:46:54.299Z</time>
      </trkpt>
      <trkpt lat="47.24233" lon="-1.5545">
        <ele>9.061841</ele>
        <time>2025-09-02T19:47:11.246Z</time>
      </trkpt>
      <trkpt lat="47.24232" lon="-1.55507">
        <ele>9.819276</ele>
        <time>2025-09-02T19:47:25.950Z</time>
      </trkpt>
      <trkpt lat="47.24194" lon="-1.55625">
        <ele>10.801275</ele>
        <time>2025-09-02T19:47:54.052Z</time>
      </trkpt>
      <trkpt lat="47.24191" lon="-1.55628">
        <ele>10.832964</ele>
        <time>2025-09-02T19:47:55.063Z</time>
      </trkpt>
      <trkpt lat="47.24187" lon="-1.55629">
        <ele>10.867417</ele>
        <time>2025-09-02T19:47:56.114Z</time>
      </trkpt>
      <trkpt lat="47.24201" lon="-1.5566">
        <ele>11.081644</ele>
        <time>2025-09-02T19:48:02.334Z</time>
      </trkpt>
      <trkpt lat="47.24229" lon="-1.55658">
        <ele>11.326504</ele>
        <time>2025-09-02T19:48:08.757Z</time>
      </trkpt>
      <trkpt lat="47.24232" lon="-1.55736">
        <ele>11.799125</ele>
        <time>2025-09-02T19:48:27.427Z</time>
      </trkpt>
      <trkpt lat="47.24239" lon="-1.55757">
        <ele>12.028904</ele>
        <time>2025-09-02T19:48:32.909Z</time>
      </trkpt>
      <trkpt lat="47.24252" lon="-1.55926">
        <ele>13.675501</ele>
        <time>2025-09-02T19:49:21.093Z</time>
      </trkpt>
      <trkpt lat="47.24258" lon="-1.55968">
        <ele>14.08837</ele>
        <time>2025-09-02T19:49:37.140Z</time>
      </trkpt>
      <trkpt lat="47.24272" lon="-1.56042">
        <ele>15.137033</ele>
        <time>2025-09-02T19:50:06.445Z</time>
      </trkpt>
      <trkpt lat="47.24262" lon="-1.56054">
        <ele>15.428992</ele>
        <time>2025-09-02T19:50:13.587Z</time>
      </trkpt>
      <trkpt lat="47.24265" lon="-1.56071">
        <ele>15.686184</ele>
        <time>2025-09-02T19:50:19.890Z</time>
      </trkpt>
      <trkpt lat="47.24273" lon="-1.56096">
        <ele>16.113081</ele>
        <time>2025-09-02T19:50:30.188Z</time>
      </trkpt>
      <trkpt lat="47.24286" lon="-1.5612">
        <ele>16.57254</ele>
        <time>2025-09-02T19:50:40.987Z</time>
      </trkpt>
      <trkpt lat="47.2432" lon="-1.56156">
        <ele>17.516314</ele>
        <time>2025-09-02T19:51:01.476Z</time>
      </trkpt>
      <trkpt lat="47.24326" lon="-1.56165">
        <ele>17.71181</ele>
        <time>2025-09-02T19:51:05.365Z</time>
      </trkpt>
      <trkpt lat="47.24364" lon="-1.56222">
        <ele>18.245482</ele>
        <time>2025-09-02T19:51:24.979Z</time>
      </trkpt>
      <trkpt lat="47.24371" lon="-1.56244">
        <ele>18.181282</ele>
        <time>2025-09-02T19:51:30.388Z</time>
      </trkpt>
      <trkpt lat="47.24374" lon="-1.56266">
        <ele>18.119459</ele>
        <time>2025-09-02T19:51:35.585Z</time>
      </trkpt>
      <trkpt lat="47.24372" lon="-1.56293">
        <ele>18.045828</ele>
        <time>2025-09-02T19:51:41.821Z</time>
      </trkpt>
      <trkpt lat="47.24372" lon="-1.56305">
        <ele>18.015277</ele>
        <time>2025-09-02T19:51:44.404Z</time>
      </trkpt>
      <trkpt lat="47.24365" lon="-1.56336">
        <ele>17.927304</ele>
        <time>2025-09-02T19:51:51.906Z</time>
      </trkpt>
      <trkpt lat="47.24365" lon="-1.56362">
        <ele>17.857233</ele>
        <time>2025-09-02T19:51:57.970Z</time>
      </trkpt>
      <trkpt lat="47.24367" lon="-1.56408">
        <ele>17.73295</ele>
        <time>2025-09-02T19:52:09.396Z</time>
      </trkpt>
      <trkpt lat="47.24364" lon="-1.56424">
        <ele>17.68573</ele>
        <time>2025-09-02T19:52:14.048Z</time>
      </trkpt>
      <trkpt lat="47.24358" lon="-1.56436">
        <ele>17.648164</ele>
        <time>2025-09-02T19:52:17.723Z</time>
      </trkpt>
      <trkpt lat="47.24351" lon="-1.56453">
        <ele>17.709434</ele>
        <time>2025-09-02T19:52:23.215Z</time>
      </trkpt>
      <trkpt lat="47.24348" lon="-1.56473">
        <ele>17.820075</ele>
        <time>2025-09-02T19:52:28.710Z</time>
      </trkpt>
      <trkpt lat="47.24353" lon="-1.56495">
        <ele>17.942686</ele>
        <time>2025-09-02T19:52:34.996Z</time>
      </trkpt>
      <trkpt lat="47.24347" lon="-1.56512">
        <ele>18.047343</ele>
        <time>2025-09-02T19:52:40.531Z</time>
      </trkpt>
      <trkpt lat="47.24348" lon="-1.56514">
        <ele>18.064954</ele>
        <time>2025-09-02T19:52:41.450Z</time>
      </trkpt>
      <trkpt lat="47.24335" lon="-1.56529">
        <ele>18.199092</ele>
        <time>2025-09-02T19:52:48.761Z</time>
      </trkpt>
      <trkpt lat="47.24327" lon="-1.56553">
        <ele>18.346741</ele>
        <time>2025-09-02T19:52:57.014Z</time>
      </trkpt>
      <trkpt lat="47.24338" lon="-1.56641">
        <ele>18.839542</ele>
        <time>2025-09-02T19:53:24.094Z</time>
      </trkpt>
      <trkpt lat="47.24341" lon="-1.56682">
        <ele>19.064396</ele>
        <time>2025-09-02T19:53:36.057Z</time>
      </trkpt>
      <trkpt lat="47.24342" lon="-1.5671">
        <ele>18.737019</ele>
        <time>2025-09-02T19:53:43.441Z</time>
      </trkpt>
      <trkpt lat="47.2435" lon="-1.5677">
        <ele>17.913853</ele>
        <time>2025-09-02T19:53:57.502Z</time>
      </trkpt>
      <trkpt lat="47.24358" lon="-1.56806">
        <ele>17.402898</ele>
        <time>2025-09-02T19:54:05.807Z</time>
      </trkpt>
      <trkpt lat="47.2437" lon="-1.56867">
        <ele>16.567434</ele>
        <time>2025-09-02T19:54:18.896Z</time>
      </trkpt>
      <trkpt lat="47.2439" lon="-1.56912">
        <ele>15.835219</ele>
        <time>2025-09-02T19:54:29.914Z</time>
      </trkpt>
      <trkpt lat="47.24475" lon="-1.57057">
        <ele>14.789046</ele>
        <time>2025-09-02T19:55:11.908Z</time>
      </trkpt>
      <trkpt lat="47.24486" lon="-1.57082">
        <ele>14.658945</ele>
        <time>2025-09-02T19:55:21.093Z</time>
      </trkpt>
      <trkpt lat="47.24494" lon="-1.57105">
        <ele>14.546525</ele>
        <time>2025-09-02T19:55:29.577Z</time>
      </trkpt>
      <trkpt lat="47.24481" lon="-1.57179">
        <ele>14.699768</ele>
        <time>2025-09-02T19:55:55.601Z</time>
      </trkpt>
      <trkpt lat="47.24475" lon="-1.57238">
        <ele>15.247629</ele>
        <time>2025-09-02T19:56:15.414Z</time>
      </trkpt>
      <trkpt lat="47.24476" lon="-1.57268">
        <ele>15.52832</ele>
        <time>2025-09-02T19:56:25.450Z</time>
      </trkpt>
      <trkpt lat="47.24481" lon="-1.57296">
        <ele>15.794834</ele>
        <time>2025-09-02T19:56:34.458Z</time>
      </trkpt>
      <trkpt lat="47.24505" lon="-1.57332">
        <ele>16.266955</ele>
        <time>2025-09-02T19:56:49.260Z</time>
      </trkpt>
      <trkpt lat="47.24512" lon="-1.5735">
        <ele>16.454003</ele>
        <time>2025-09-02T19:56:54.677Z</time>
      </trkpt>
      <trkpt lat="47.24513" lon="-1.57392">
        <ele>16.794128</ele>
        <time>2025-09-02T19:57:05.138Z</time>
      </trkpt>
      <trkpt lat="47.24513" lon="-1.57425">
        <ele>16.455955</ele>
        <time>2025-09-02T19:57:12.931Z</time>
      </trkpt>
      <trkpt lat="47.24516" lon="-1.57447">
        <ele>16.230245</ele>
        <time>2025-09-02T19:57:18.005Z</time>
      </trkpt>
      <trkpt lat="47.24538" lon="-1.57506">
        <ele>15.558614</ele>
        <time>2025-09-02T19:57:34.064Z</time>
      </trkpt>
      <trkpt lat="47.24545" lon="-1.57517">
        <ele>15.403696</ele>
        <time>2025-09-02T19:57:37.882Z</time>
      </trkpt>
      <trkpt lat="47.24583" lon="-1.5754">
        <ele>14.80528</ele>
        <time>2025-09-02T19:57:51.327Z</time>
      </trkpt>
      <trkpt lat="47.2461" lon="-1.57576">
        <ele>14.265108</ele>
        <time>2025-09-02T19:58:02.724Z</time>
      </trkpt>
      <trkpt lat="47.2467" lon="-1.57637">
        <ele>12.705075</ele>
        <time>2025-09-02T19:58:25.169Z</time>
      </trkpt>
      <trkpt lat="47.24678" lon="-1.57629">
        <ele>12.491847</ele>
        <time>2025-09-02T19:58:28.321Z</time>
      </trkpt>
      <trkpt lat="47.24681" lon="-1.57625">
        <ele>12.402264</ele>
        <time>2025-09-02T19:58:29.641Z</time>
      </trkpt>
      <trkpt lat="47.24716" lon="-1.57698">
        <ele>11.076449</ele>
        <time>2025-09-02T19:58:40.625Z</time>
      </trkpt>
      <trkpt lat="47.24729" lon="-1.57714">
        <ele>10.697955</ele>
        <time>2025-09-02T19:58:43.900Z</time>
      </trkpt>
      <trkpt lat="47.2475" lon="-1.57714">
        <ele>10.251832</ele>
        <time>2025-09-02T19:58:48.353Z</time>
      </trkpt>
      <trkpt lat="47.24753" lon="-1.57747">
        <ele>10.089088</ele>
        <time>2025-09-02T19:58:52.856Z</time>
      </trkpt>
      <trkpt lat="47.24757" lon="-1.57746">
        <ele>10.063093</ele>
        <time>2025-09-02T19:58:53.754Z</time>
      </trkpt>
      <trkpt lat="47.24765" lon="-1.57744">
        <ele>10.016036</ele>
        <time>2025-09-02T19:58:55.318Z</time>
      </trkpt>
      <trkpt lat="47.24772" lon="-1.57742">
        <ele>9.972013</ele>
        <time>2025-09-02T19:58:56.805Z</time>
      </trkpt>
      <trkpt lat="47.24781" lon="-1.57771">
        <ele>9.843725</ele>
        <time>2025-09-02T19:59:01.129Z</time>
      </trkpt>
      <trkpt lat="47.24829" lon="-1.57832">
        <ele>9.457022</ele>
        <time>2025-09-02T19:59:14.316Z</time>
      </trkpt>
      <trkpt lat="47.24838" lon="-1.57843">
        <ele>9.391364</ele>
        <time>2025-09-02T19:59:16.702Z</time>
      </trkpt>
      <trkpt lat="47.24869" lon="-1.57883">
        <ele>9.14109</ele>
        <time>2025-09-02T19:59:25.859Z</time>
      </trkpt>
      <trkpt lat="47.24883" lon="-1.57916">
        <ele>9.27632</ele>
        <time>2025-09-02T19:59:31.650Z</time>
      </trkpt>
      <trkpt lat="47.24896" lon="-1.57928">
        <ele>9.365358</ele>
        <time>2025-09-02T19:59:35.216Z</time>
      </trkpt>
      <trkpt lat="47.24921" lon="-1.57895">
        <ele>9.563682</ele>
        <time>2025-09-02T19:59:44.418Z</time>
      </trkpt>
      <trkpt lat="47.24927" lon="-1.57884">
        <ele>9.618597</ele>
        <time>2025-09-02T19:59:48.171Z</time>
      </trkpt>
      <trkpt lat="47.2493" lon="-1.5788">
        <ele>9.641069</ele>
        <time>2025-09-02T19:59:49.296Z</time>
      </trkpt>
      <trkpt lat="47.24941" lon="-1.57882">
        <ele>9.70898</ele>
        <time>2025-09-02T19:59:52.711Z</time>
      </trkpt>
      <trkpt lat="47.24952" lon="-1.57897">
        <ele>9.792039</ele>
        <time>2025-09-02T19:59:56.981Z</time>
      </trkpt>
      <trkpt lat="47.24957" lon="-1.5791">
        <ele>9.853181</ele>
        <time>2025-09-02T20:00:00.222Z</time>
      </trkpt>
      <trkpt lat="47.24959" lon="-1.57927">
        <ele>9.924933</ele>
        <time>2025-09-02T20:00:04.083Z</time>
      </trkpt>
      <trkpt lat="47.25009" lon="-1.58002">
        <ele>10.292416</ele>
        <time>2025-09-02T20:00:24.764Z</time>
      </trkpt>
      <trkpt lat="47.25039" lon="-1.58024">
        <ele>10.424226</ele>
        <time>2025-09-02T20:00:33.320Z</time>
      </trkpt>
      <trkpt lat="47.25054" lon="-1.58029">
        <ele>10.483913</ele>
        <time>2025-09-02T20:00:37.039Z</time>
      </trkpt>
      <trkpt lat="47.2507" lon="-1.58041">
        <ele>10.554027</ele>
        <time>2025-09-02T20:00:41.365Z</time>
      </trkpt>
      <trkpt lat="47.25077" lon="-1.58054">
        <ele>10.599779</ele>
        <time>2025-09-02T20:00:44.180Z</time>
      </trkpt>
      <trkpt lat="47.25083" lon="-1.58081">
        <ele>10.676281</ele>
        <time>2025-09-02T20:00:48.890Z</time>
      </trkpt>
      <trkpt lat="47.25084" lon="-1.58094">
        <ele>10.71265</ele>
        <time>2025-09-02T20:00:51.157Z</time>
      </trkpt>
      <trkpt lat="47.25079" lon="-1.58122">
        <ele>10.788879</ele>
        <time>2025-09-02T20:00:55.974Z</time>
      </trkpt>
      <trkpt lat="47.25081" lon="-1.58146">
        <ele>10.853785</ele>
        <time>2025-09-02T20:01:00.235Z</time>
      </trkpt>
      <trkpt lat="47.25086" lon="-1.5817">
        <ele>11.007851</ele>
        <time>2025-09-02T20:01:04.860Z</time>
      </trkpt>
      <trkpt lat="47.251" lon="-1.58211">
        <ele>11.661726</ele>
        <time>2025-09-02T20:01:14.059Z</time>
      </trkpt>
      <trkpt lat="47.25101" lon="-1.58213">
        <ele>11.689355</ele>
        <time>2025-09-02T20:01:14.499Z</time>
      </trkpt>
      <trkpt lat="47.25106" lon="-1.5824">
        <ele>12.097216</ele>
        <time>2025-09-02T20:01:20.776Z</time>
      </trkpt>
      <trkpt lat="47.25106" lon="-1.58262">
        <ele>12.406966</ele>
        <time>2025-09-02T20:01:25.841Z</time>
      </trkpt>
      <trkpt lat="47.25103" lon="-1.583">
        <ele>12.956565</ele>
        <time>2025-09-02T20:01:35.488Z</time>
      </trkpt>
      <trkpt lat="47.25092" lon="-1.58375">
        <ele>14.042387</ele>
        <time>2025-09-02T20:01:56.861Z</time>
      </trkpt>
      <trkpt lat="47.25093" lon="-1.58403">
        <ele>14.439972</ele>
        <time>2025-09-02T20:02:04.678Z</time>
      </trkpt>
      <trkpt lat="47.25103" lon="-1.58452">
        <ele>14.892649</ele>
        <time>2025-09-02T20:02:18.257Z</time>
      </trkpt>
      <trkpt lat="47.25129" lon="-1.5851">
        <ele>15.328584</ele>
        <time>2025-09-02T20:02:34.571Z</time>
      </trkpt>
      <trkpt lat="47.25151" lon="-1.58522">
        <ele>15.555214</ele>
        <time>2025-09-02T20:02:42.169Z</time>
      </trkpt>
      <trkpt lat="47.25177" lon="-1.58556">
        <ele>15.876468</ele>
        <time>2025-09-02T20:02:51.684Z</time>
      </trkpt>
      <trkpt lat="47.25189" lon="-1.5856">
        <ele>15.989958</ele>
        <time>2025-09-02T20:02:54.638Z</time>
      </trkpt>
      <trkpt lat="47.25202" lon="-1.58559">
        <ele>16.117723</ele>
        <time>2025-09-02T20:02:57.820Z</time>
      </trkpt>
      <trkpt lat="47.25236" lon="-1.58547">
        <ele>16.258509</ele>
        <time>2025-09-02T20:03:05.305Z</time>
      </trkpt>
      <trkpt lat="47.25275" lon="-1.58557">
        <ele>15.916219</ele>
        <time>2025-09-02T20:03:13.566Z</time>
      </trkpt>
      <trkpt lat="47.25314" lon="-1.58578">
        <ele>15.562405</ele>
        <time>2025-09-02T20:03:22.444Z</time>
      </trkpt>
      <trkpt lat="47.25318" lon="-1.58582">
        <ele>15.51618</ele>
        <time>2025-09-02T20:03:23.602Z</time>
      </trkpt>
      <trkpt lat="47.25323" lon="-1.58595">
        <ele>15.428608</ele>
        <time>2025-09-02T20:03:25.838Z</time>
      </trkpt>
      <trkpt lat="47.25324" lon="-1.58603">
        <ele>15.379292</ele>
        <time>2025-09-02T20:03:27.094Z</time>
      </trkpt>
      <trkpt lat="47.25323" lon="-1.58623">
        <ele>15.262511</ele>
        <time>2025-09-02T20:03:30.089Z</time>
      </trkpt>
      <trkpt lat="47.25316" lon="-1.58669">
        <ele>14.983407</ele>
        <time>2025-09-02T20:03:37.342Z</time>
      </trkpt>
      <trkpt lat="47.25309" lon="-1.58706">
        <ele>14.84733</ele>
        <time>2025-09-02T20:03:43.419Z</time>
      </trkpt>
      <trkpt lat="47.25289" lon="-1.58771">
        <ele>15.727627</ele>
        <time>2025-09-02T20:03:57.064Z</time>
      </trkpt>
      <trkpt lat="47.2529" lon="-1.58803">
        <ele>16.123645</ele>
        <time>2025-09-02T20:04:05.647Z</time>
      </trkpt>
      <trkpt lat="47.25292" lon="-1.58817">
        <ele>16.299591</ele>
        <time>2025-09-02T20:04:09.711Z</time>
      </trkpt>
      <trkpt lat="47.2529" lon="-1.58829">
        <ele>16.448329</ele>
        <time>2025-09-02T20:04:13.027Z</time>
      </trkpt>
      <trkpt lat="47.25289" lon="-1.58839">
        <ele>16.571422</ele>
        <time>2025-09-02T20:04:15.749Z</time>
      </trkpt>
      <trkpt lat="47.25285" lon="-1.58838">
        <ele>16.635595</ele>
        <time>2025-09-02T20:04:17.011Z</time>
      </trkpt>
      <trkpt lat="47.25277" lon="-1.58835">
        <ele>16.800746</ele>
        <time>2025-09-02T20:04:20.438Z</time>
      </trkpt>
      <trkpt lat="47.25267" lon="-1.5883">
        <ele>16.988193</ele>
        <time>2025-09-02T20:04:24.092Z</time>
      </trkpt>
      <trkpt lat="47.2525" lon="-1.58823">
        <ele>17.305802</ele>
        <time>2025-09-02T20:04:30.333Z</time>
      </trkpt>
      <trkpt lat="47.25244" lon="-1.58832">
        <ele>17.452304</ele>
        <time>2025-09-02T20:04:33.111Z</time>
      </trkpt>
      <trkpt lat="47.25224" lon="-1.58875">
        <ele>18.046498</ele>
        <time>2025-09-02T20:04:45.163Z</time>
      </trkpt>
      <trkpt lat="47.25224" lon="-1.58883">
        <ele>18.050184</ele>
        <time>2025-09-02T20:04:47.148Z</time>
      </trkpt>
      <trkpt lat="47.25226" lon="-1.58889">
        <ele>18.053203</ele>
        <time>2025-09-02T20:04:48.648Z</time>
      </trkpt>
      <trkpt lat="47.25249" lon="-1.58912">
        <ele>18.071544</ele>
        <time>2025-09-02T20:04:58.193Z</time>
      </trkpt>
      <trkpt lat="47.25274" lon="-1.58945">
        <ele>18.094074</ele>
        <time>2025-09-02T20:05:09.016Z</time>
      </trkpt>
      <trkpt lat="47.2533" lon="-1.59005">
        <ele>18.140616</ele>
        <time>2025-09-02T20:05:25.021Z</time>
      </trkpt>
      <trkpt lat="47.25346" lon="-1.59027">
        <ele>18.155024</ele>
        <time>2025-09-02T20:05:29.531Z</time>
      </trkpt>
      <trkpt lat="47.25354" lon="-1.59048">
        <ele>18.121986</ele>
        <time>2025-09-02T20:05:32.940Z</time>
      </trkpt>
      <trkpt lat="47.2537" lon="-1.59063">
        <ele>17.721157</ele>
        <time>2025-09-02T20:05:36.685Z</time>
      </trkpt>
      <trkpt lat="47.25416" lon="-1.59077">
        <ele>16.707463</ele>
        <time>2025-09-02T20:05:46.226Z</time>
      </trkpt>
      <trkpt lat="47.25438" lon="-1.59069">
        <ele>16.231833</ele>
        <time>2025-09-02T20:05:50.713Z</time>
      </trkpt>
      <trkpt lat="47.25445" lon="-1.5906">
        <ele>16.026322</ele>
        <time>2025-09-02T20:05:52.654Z</time>
      </trkpt>
      <trkpt lat="47.25458" lon="-1.59023">
        <ele>15.418394</ele>
        <time>2025-09-02T20:05:58.459Z</time>
      </trkpt>
      <trkpt lat="47.25467" lon="-1.59024">
        <ele>15.208624</ele>
        <time>2025-09-02T20:06:00.468Z</time>
      </trkpt>
      <trkpt lat="47.2547" lon="-1.5903">
        <ele>15.111893</ele>
        <time>2025-09-02T20:06:01.404Z</time>
      </trkpt>
      <trkpt lat="47.25482" lon="-1.59015">
        <ele>14.7613</ele>
        <time>2025-09-02T20:06:04.758Z</time>
      </trkpt>
      <trkpt lat="47.25504" lon="-1.59007">
        <ele>14.290993</ele>
        <time>2025-09-02T20:06:09.251Z</time>
      </trkpt>
      <trkpt lat="47.25522" lon="-1.58993">
        <ele>14.043481</ele>
        <time>2025-09-02T20:06:13.439Z</time>
      </trkpt>
      <trkpt lat="47.25531" lon="-1.5893">
        <ele>13.522091</ele>
        <time>2025-09-02T20:06:22.389Z</time>
      </trkpt>
      <trkpt lat="47.25539" lon="-1.58878">
        <ele>13.089965</ele>
        <time>2025-09-02T20:06:30.171Z</time>
      </trkpt>
      <trkpt lat="47.25553" lon="-1.58836">
        <ele>12.70993</ele>
        <time>2025-09-02T20:06:37.398Z</time>
      </trkpt>
      <trkpt lat="47.2556" lon="-1.58827">
        <ele>12.598206</ele>
        <time>2025-09-02T20:06:39.559Z</time>
      </trkpt>
      <trkpt lat="47.25567" lon="-1.58828">
        <ele>12.521491</ele>
        <time>2025-09-02T20:06:41.045Z</time>
      </trkpt>
      <trkpt lat="47.25585" lon="-1.58824">
        <ele>12.302171</ele>
        <time>2025-09-02T20:06:45.359Z</time>
      </trkpt>
      <trkpt lat="47.25607" lon="-1.5883">
        <ele>12.283997</ele>
        <time>2025-09-02T20:06:50.945Z</time>
      </trkpt>
      <trkpt lat="47.25616" lon="-1.58827">
        <ele>12.404039</ele>
        <time>2025-09-02T20:06:53.215Z</time>
      </trkpt>
      <trkpt lat="47.25621" lon="-1.58822">
        <ele>12.484739</ele>
        <time>2025-09-02T20:06:55.529Z</time>
      </trkpt>
      <trkpt lat="47.25625" lon="-1.5882">
        <ele>12.548363</ele>
        <time>2025-09-02T20:06:56.825Z</time>
      </trkpt>
      <trkpt lat="47.25629" lon="-1.58822">
        <ele>12.604879</ele>
        <time>2025-09-02T20:06:57.953Z</time>
      </trkpt>
      <trkpt lat="47.25651" lon="-1.5886">
        <ele>13.066292</ele>
        <time>2025-09-02T20:07:08.288Z</time>
      </trkpt>
      <trkpt lat="47.25668" lon="-1.58879">
        <ele>13.349647</ele>
        <time>2025-09-02T20:07:15.652Z</time>
      </trkpt>
      <trkpt lat="47.25672" lon="-1.58889">
        <ele>13.456265</ele>
        <time>2025-09-02T20:07:18.540Z</time>
      </trkpt>
      <trkpt lat="47.25668" lon="-1.58899">
        <ele>13.563142</ele>
        <time>2025-09-02T20:07:21.610Z</time>
      </trkpt>
      <trkpt lat="47.2565" lon="-1.58907">
        <ele>13.820442</ele>
        <time>2025-09-02T20:07:28.836Z</time>
      </trkpt>
      <trkpt lat="47.25645" lon="-1.58922">
        <ele>13.972296</ele>
        <time>2025-09-02T20:07:32.882Z</time>
      </trkpt>
      <trkpt lat="47.25637" lon="-1.58929">
        <ele>14.096381</ele>
        <time>2025-09-02T20:07:35.917Z</time>
      </trkpt>
      <trkpt lat="47.25638" lon="-1.58935">
        <ele>14.155019</ele>
        <time>2025-09-02T20:07:37.387Z</time>
      </trkpt>
      <trkpt lat="47.25641" lon="-1.58947">
        <ele>14.276015</ele>
        <time>2025-09-02T20:07:40.262Z</time>
      </trkpt>
      <trkpt lat="47.25666" lon="-1.58993">
        <ele>14.748953</ele>
        <time>2025-09-02T20:07:53.126Z</time>
      </trkpt>
      <trkpt lat="47.25677" lon="-1.59028">
        <ele>15.004034</ele>
        <time>2025-09-02T20:08:04.619Z</time>
      </trkpt>
      <trkpt lat="47.25692" lon="-1.59052">
        <ele>15.22042</ele>
        <time>2025-09-02T20:08:14.380Z</time>
      </trkpt>
      <trkpt lat="47.25724" lon="-1.59072">
        <ele>15.557312</ele>
        <time>2025-09-02T20:08:29.802Z</time>
      </trkpt>
      <trkpt lat="47.25727" lon="-1.59079">
        <ele>15.614615</ele>
        <time>2025-09-02T20:08:32.270Z</time>
      </trkpt>
      <trkpt lat="47.25729" lon="-1.59097">
        <ele>15.732935</ele>
        <time>2025-09-02T20:08:37.352Z</time>
      </trkpt>
      <trkpt lat="47.25727" lon="-1.59114">
        <ele>15.845044</ele>
        <time>2025-09-02T20:08:42.047Z</time>
      </trkpt>
      <trkpt lat="47.25744" lon="-1.59136">
        <ele>16.063319</ele>
        <time>2025-09-02T20:08:50.633Z</time>
      </trkpt>
      <trkpt lat="47.25774" lon="-1.59171">
        <ele>16.253597</ele>
        <time>2025-09-02T20:09:00.509Z</time>
      </trkpt>
      <trkpt lat="47.25804" lon="-1.59213">
        <ele>16.000086</ele>
        <time>2025-09-02T20:09:10.491Z</time>
      </trkpt>
      <trkpt lat="47.25842" lon="-1.59259">
        <ele>15.699406</ele>
        <time>2025-09-02T20:09:22.056Z</time>
      </trkpt>
      <trkpt lat="47.25851" lon="-1.59265">
        <ele>15.640632</ele>
        <time>2025-09-02T20:09:24.172Z</time>
      </trkpt>
      <trkpt lat="47.2587" lon="-1.59271">
        <ele>15.521977</ele>
        <time>2025-09-02T20:09:28.395Z</time>
      </trkpt>
      <trkpt lat="47.25878" lon="-1.59267">
        <ele>15.468288</ele>
        <time>2025-09-02T20:09:30.258Z</time>
      </trkpt>
      <trkpt lat="47.2589" lon="-1.59257">
        <ele>15.384075</ele>
        <time>2025-09-02T20:09:33.204Z</time>
      </trkpt>
      <trkpt lat="47.25906" lon="-1.5923">
        <ele>15.233655</ele>
        <time>2025-09-02T20:09:38.504Z</time>
      </trkpt>
      <trkpt lat="47.25915" lon="-1.59211">
        <ele>15.164625</ele>
        <time>2025-09-02T20:09:41.863Z</time>
      </trkpt>
      <trkpt lat="47.25927" lon="-1.59198">
        <ele>15.098923</ele>
        <time>2025-09-02T20:09:45.287Z</time>
      </trkpt>
      <trkpt lat="47.25932" lon="-1.59197">
        <ele>15.077095</ele>
        <time>2025-09-02T20:09:46.413Z</time>
      </trkpt>
      <trkpt lat="47.25938" lon="-1.59197">
        <ele>15.052363</ele>
        <time>2025-09-02T20:09:47.713Z</time>
      </trkpt>
      <trkpt lat="47.25967" lon="-1.59203">
        <ele>14.928021</ele>
        <time>2025-09-02T20:09:54.474Z</time>
      </trkpt>
      <trkpt lat="47.26003" lon="-1.59217">
        <ele>14.769645</ele>
        <time>2025-09-02T20:10:03.485Z</time>
      </trkpt>
      <trkpt lat="47.26014" lon="-1.59224">
        <ele>14.719783</ele>
        <time>2025-09-02T20:10:06.367Z</time>
      </trkpt>
      <trkpt lat="47.26015" lon="-1.5923">
        <ele>14.701157</ele>
        <time>2025-09-02T20:10:07.479Z</time>
      </trkpt>
      <trkpt lat="47.26029" lon="-1.59307">
        <ele>14.470802</ele>
        <time>2025-09-02T20:10:20.798Z</time>
      </trkpt>
      <trkpt lat="47.26027" lon="-1.5932">
        <ele>14.457741</ele>
        <time>2025-09-02T20:10:23.126Z</time>
      </trkpt>
      <trkpt lat="47.26001" lon="-1.5938">
        <ele>14.473506</ele>
        <time>2025-09-02T20:10:35.367Z</time>
      </trkpt>
      <trkpt lat="47.25969" lon="-1.59445">
        <ele>14.491742</ele>
        <time>2025-09-02T20:10:50.132Z</time>
      </trkpt>
      <trkpt lat="47.25968" lon="-1.59462">
        <ele>14.495535</ele>
        <time>2025-09-02T20:10:53.122Z</time>
      </trkpt>
      <trkpt lat="47.2598" lon="-1.59511">
        <ele>14.507206</ele>
        <time>2025-09-02T20:11:02.003Z</time>
      </trkpt>
      <trkpt lat="47.25976" lon="-1.59538">
        <ele>14.513362</ele>
        <time>2025-09-02T20:11:06.472Z</time>
      </trkpt>
      <trkpt lat="47.25979" lon="-1.59585">
        <ele>14.231101</ele>
        <time>2025-09-02T20:11:13.661Z</time>
      </trkpt>
      <trkpt lat="47.25996" lon="-1.59625">
        <ele>13.877757</ele>
        <time>2025-09-02T20:11:20.599Z</time>
      </trkpt>
      <trkpt lat="47.26007" lon="-1.59641">
        <ele>13.703138</ele>
        <time>2025-09-02T20:11:24.001Z</time>
      </trkpt>
      <trkpt lat="47.26019" lon="-1.59653">
        <ele>13.544761</ele>
        <time>2025-09-02T20:11:27.092Z</time>
      </trkpt>
      <trkpt lat="47.26077" lon="-1.59698">
        <ele>12.811</ele>
        <time>2025-09-02T20:11:40.969Z</time>
      </trkpt>
      <trkpt lat="47.26197" lon="-1.5973">
        <ele>12.828262</ele>
        <time>2025-09-02T20:12:09.477Z</time>
      </trkpt>
      <trkpt lat="47.26214" lon="-1.59745">
        <ele>12.892147</ele>
        <time>2025-09-02T20:12:15.399Z</time>
      </trkpt>
      <trkpt lat="47.26246" lon="-1.59789">
        <ele>13.032989</ele>
        <time>2025-09-02T20:12:28.621Z</time>
      </trkpt>
      <trkpt lat="47.26248" lon="-1.59793">
        <ele>13.043483</ele>
        <time>2025-09-02T20:12:29.499Z</time>
      </trkpt>
      <trkpt lat="47.26249" lon="-1.59795">
        <ele>13.049452</ele>
        <time>2025-09-02T20:12:30.036Z</time>
      </trkpt>
      <trkpt lat="47.26255" lon="-1.59806">
        <ele>13.079793</ele>
        <time>2025-09-02T20:12:32.771Z</time>
      </trkpt>
      <trkpt lat="47.26256" lon="-1.5983">
        <ele>13.259891</ele>
        <time>2025-09-02T20:12:38.146Z</time>
      </trkpt>
      <trkpt lat="47.26249" lon="-1.5993">
        <ele>14.273598</ele>
        <time>2025-09-02T20:13:02.487Z</time>
      </trkpt>
      <trkpt lat="47.26235" lon="-1.59965">
        <ele>14.68601</ele>
        <time>2025-09-02T20:13:13.017Z</time>
      </trkpt>
      <trkpt lat="47.26203" lon="-1.60032">
        <ele>15.518354</ele>
        <time>2025-09-02T20:13:29.314Z</time>
      </trkpt>
      <trkpt lat="47.26196" lon="-1.60052">
        <ele>15.742407</ele>
        <time>2025-09-02T20:13:33.120Z</time>
      </trkpt>
      <trkpt lat="47.26194" lon="-1.60075">
        <ele>15.891039</ele>
        <time>2025-09-02T20:13:37.300Z</time>
      </trkpt>
      <trkpt lat="47.26204" lon="-1.60091">
        <ele>16.007117</ele>
        <time>2025-09-02T20:13:42.895Z</time>
      </trkpt>
      <trkpt lat="47.26214" lon="-1.60099">
        <ele>16.101726</ele>
        <time>2025-09-02T20:13:47.474Z</time>
      </trkpt>
      <trkpt lat="47.26223" lon="-1.60101">
        <ele>16.180087</ele>
        <time>2025-09-02T20:13:51.320Z</time>
      </trkpt>
      <trkpt lat="47.2625" lon="-1.6009">
        <ele>16.405265</ele>
        <time>2025-09-02T20:14:02.245Z</time>
      </trkpt>
      <trkpt lat="47.26259" lon="-1.60091">
        <ele>16.483399</ele>
        <time>2025-09-02T20:14:06.057Z</time>
      </trkpt>
      <trkpt lat="47.26264" lon="-1.60095">
        <ele>16.531804</ele>
        <time>2025-09-02T20:14:08.332Z</time>
      </trkpt>
      <trkpt lat="47.26298" lon="-1.6016">
        <ele>16.990134</ele>
        <time>2025-09-02T20:14:29.957Z</time>
      </trkpt>
      <trkpt lat="47.26314" lon="-1.60186">
        <ele>17.183701</ele>
        <time>2025-09-02T20:14:39.520Z</time>
      </trkpt>
      <trkpt lat="47.2634" lon="-1.60219">
        <ele>17.534305</ele>
        <time>2025-09-02T20:14:56.614Z</time>
      </trkpt>
      <trkpt lat="47.26348" lon="-1.60241">
        <ele>17.713334</ele>
        <time>2025-09-02T20:15:05.408Z</time>
      </trkpt>
      <trkpt lat="47.26324" lon="-1.60332">
        <ele>18.430068</ele>
        <time>2025-09-02T20:15:38.276Z</time>
      </trkpt>
      <trkpt lat="47.26307" lon="-1.60379">
        <ele>18.818522</ele>
        <time>2025-09-02T20:15:53.082Z</time>
      </trkpt>
      <trkpt lat="47.26295" lon="-1.6047">
        <ele>18.817236</ele>
        <time>2025-09-02T20:16:14.548Z</time>
      </trkpt>
      <trkpt lat="47.26295" lon="-1.60496">
        <ele>18.56992</ele>
        <time>2025-09-02T20:16:20.069Z</time>
      </trkpt>
      <trkpt lat="47.26306" lon="-1.60533">
        <ele>18.187752</ele>
        <time>2025-09-02T20:16:28.617Z</time>
      </trkpt>
      <trkpt lat="47.26313" lon="-1.60589">
        <ele>17.644232</ele>
        <time>2025-09-02T20:16:40.878Z</time>
      </trkpt>
      <trkpt lat="47.26326" lon="-1.60646">
        <ele>17.062802</ele>
        <time>2025-09-02T20:16:54.548Z</time>
      </trkpt>
      <trkpt lat="47.26358" lon="-1.60679">
        <ele>16.666607</ele>
        <time>2025-09-02T20:17:02.954Z</time>
      </trkpt>
      <trkpt lat="47.26362" lon="-1.60683">
        <ele>16.666281</ele>
        <time>2025-09-02T20:17:04.951Z</time>
      </trkpt>
      <trkpt lat="47.26364" lon="-1.60692">
        <ele>16.665886</ele>
        <time>2025-09-02T20:17:07.485Z</time>
      </trkpt>
      <trkpt lat="47.26322" lon="-1.60861">
        <ele>16.657972</ele>
        <time>2025-09-02T20:17:57.509Z</time>
      </trkpt>
      <trkpt lat="47.26328" lon="-1.60861">
        <ele>16.657564</ele>
        <time>2025-09-02T20:17:58.958Z</time>
      </trkpt>
      <trkpt lat="47.26332" lon="-1.60857">
        <ele>16.657256</ele>
        <time>2025-09-02T20:18:00.059Z</time>
      </trkpt>
      <trkpt lat="47.2635" lon="-1.6083">
        <ele>16.633928</ele>
        <time>2025-09-02T20:18:05.888Z</time>
      </trkpt>
      <trkpt lat="47.26367" lon="-1.60814">
        <ele>16.36544</ele>
        <time>2025-09-02T20:18:10.190Z</time>
      </trkpt>
      <trkpt lat="47.26378" lon="-1.60805">
        <ele>16.20663</ele>
        <time>2025-09-02T20:18:14.079Z</time>
      </trkpt>
      <trkpt lat="47.26382" lon="-1.60802">
        <ele>16.137055</ele>
        <time>2025-09-02T20:18:15.781Z</time>
      </trkpt>
      <trkpt lat="47.26402" lon="-1.60858">
        <ele>15.56001</ele>
        <time>2025-09-02T20:18:29.355Z</time>
      </trkpt>
      <trkpt lat="47.26464" lon="-1.60974">
        <ele>14.248697</ele>
        <time>2025-09-02T20:19:03.274Z</time>
      </trkpt>
      <trkpt lat="47.2647" lon="-1.60993">
        <ele>14.286066</ele>
        <time>2025-09-02T20:19:08.481Z</time>
      </trkpt>
      <trkpt lat="47.26472" lon="-1.61019">
        <ele>14.332231</ele>
        <time>2025-09-02T20:19:14.933Z</time>
      </trkpt>
      <trkpt lat="47.26472" lon="-1.61112">
        <ele>14.49831</ele>
        <time>2025-09-02T20:19:38.976Z</time>
      </trkpt>
      <trkpt lat="47.26462" lon="-1.61144">
        <ele>14.561437</ele>
        <time>2025-09-02T20:19:48.580Z</time>
      </trkpt>
      <trkpt lat="47.26439" lon="-1.61202">
        <ele>14.679304</ele>
        <time>2025-09-02T20:20:07.185Z</time>
      </trkpt>
      <trkpt lat="47.26408" lon="-1.61237">
        <ele>15.270109</ele>
        <time>2025-09-02T20:20:24.070Z</time>
      </trkpt>
      <trkpt lat="47.26385" lon="-1.61269">
        <ele>15.929705</ele>
        <time>2025-09-02T20:20:37.701Z</time>
      </trkpt>
      <trkpt lat="47.2638" lon="-1.61285">
        <ele>16.180833</ele>
        <time>2025-09-02T20:20:43.268Z</time>
      </trkpt>
      <trkpt lat="47.26372" lon="-1.61327">
        <ele>16.788896</ele>
        <time>2025-09-02T20:20:57.163Z</time>
      </trkpt>
      <trkpt lat="47.26361" lon="-1.61416">
        <ele>18.069195</ele>
        <time>2025-09-02T20:21:28.530Z</time>
      </trkpt>
      <trkpt lat="47.2636" lon="-1.61425">
        <ele>18.198899</ele>
        <time>2025-09-02T20:21:31.772Z</time>
      </trkpt>
      <trkpt lat="47.26364" lon="-1.61443">
        <ele>18.476701</ele>
        <time>2025-09-02T20:21:36.838Z</time>
      </trkpt>
      <trkpt lat="47.26371" lon="-1.61465">
        <ele>18.95055</ele>
        <time>2025-09-02T20:21:45.142Z</time>
      </trkpt>
      <trkpt lat="47.26379" lon="-1.61484">
        <ele>19.389632</ele>
        <time>2025-09-02T20:21:52.994Z</time>
      </trkpt>
      <trkpt lat="47.26417" lon="-1.61518">
        <ele>20.66295</ele>
        <time>2025-09-02T20:22:16.241Z</time>
      </trkpt>
      <trkpt lat="47.26424" lon="-1.61529">
        <ele>20.957301</ele>
        <time>2025-09-02T20:22:21.695Z</time>
      </trkpt>
      <trkpt lat="47.26437" lon="-1.61555">
        <ele>21.603396</ele>
        <time>2025-09-02T20:22:33.715Z</time>
      </trkpt>
      <trkpt lat="47.26449" lon="-1.61568">
        <ele>22.028987</ele>
        <time>2025-09-02T20:22:41.306Z</time>
      </trkpt>
      <trkpt lat="47.26523" lon="-1.61602">
        <ele>23.86684</ele>
        <time>2025-09-02T20:23:20.484Z</time>
      </trkpt>
      <trkpt lat="47.26531" lon="-1.6161">
        <ele>23.959112</ele>
        <time>2025-09-02T20:23:25.546Z</time>
      </trkpt>
      <trkpt lat="47.26539" lon="-1.61623">
        <ele>24.06497</ele>
        <time>2025-09-02T20:23:31.327Z</time>
      </trkpt>
      <trkpt lat="47.26552" lon="-1.61656">
        <ele>24.29877</ele>
        <time>2025-09-02T20:23:43.657Z</time>
      </trkpt>
      <trkpt lat="47.26582" lon="-1.61721">
        <ele>24.777183</ele>
        <time>2025-09-02T20:24:05.557Z</time>
      </trkpt>
      <trkpt lat="47.26595" lon="-1.61742">
        <ele>24.9539</ele>
        <time>2025-09-02T20:24:12.719Z</time>
      </trkpt>
      <trkpt lat="47.26618" lon="-1.61758">
        <ele>25.184811</ele>
        <time>2025-09-02T20:24:21.699Z</time>
      </trkpt>
      <trkpt lat="47.26678" lon="-1.61792">
        <ele>25.008603</ele>
        <time>2025-09-02T20:24:43.428Z</time>
      </trkpt>
      <trkpt lat="47.26719" lon="-1.61809">
        <ele>24.761547</ele>
        <time>2025-09-02T20:24:58.023Z</time>
      </trkpt>
      <trkpt lat="47.2675" lon="-1.61843">
        <ele>24.541712</ele>
        <time>2025-09-02T20:25:11.623Z</time>
      </trkpt>
      <trkpt lat="47.26754" lon="-1.61853">
        <ele>24.49792</ele>
        <time>2025-09-02T20:25:14.438Z</time>
      </trkpt>
      <trkpt lat="47.26754" lon="-1.61871">
        <ele>24.425062</ele>
        <time>2025-09-02T20:25:19.289Z</time>
      </trkpt>
      <trkpt lat="47.26746" lon="-1.61893">
        <ele>24.331942</ele>
        <time>2025-09-02T20:25:25.640Z</time>
      </trkpt>
      <trkpt lat="47.26742" lon="-1.61959">
        <ele>24.107716</ele>
        <time>2025-09-02T20:25:42.955Z</time>
      </trkpt>
      <trkpt lat="47.2674" lon="-1.62034">
        <ele>23.868969</ele>
        <time>2025-09-02T20:26:02.602Z</time>
      </trkpt>
      <trkpt lat="47.26741" lon="-1.62054">
        <ele>23.807738</ele>
        <time>2025-09-02T20:26:07.477Z</time>
      </trkpt>
      <trkpt lat="47.26747" lon="-1.62069">
        <ele>23.750716</ele>
        <time>2025-09-02T20:26:11.922Z</time>
      </trkpt>
      <trkpt lat="47.26754" lon="-1.62161">
        <ele>23.457034</ele>
        <time>2025-09-02T20:26:33.123Z</time>
      </trkpt>
      <trkpt lat="47.26754" lon="-1.62242">
        <ele>23.560583</ele>
        <time>2025-09-02T20:26:51.330Z</time>
      </trkpt>
      <trkpt lat="47.2676" lon="-1.62259">
        <ele>23.596366</ele>
        <time>2025-09-02T20:26:55.559Z</time>
      </trkpt>
      <trkpt lat="47.26771" lon="-1.62264">
        <ele>23.628271</ele>
        <time>2025-09-02T20:26:59.451Z</time>
      </trkpt>
      <trkpt lat="47.2677" lon="-1.62281">
        <ele>23.659153</ele>
        <time>2025-09-02T20:27:03.431Z</time>
      </trkpt>
      <trkpt lat="47.26764" lon="-1.62293">
        <ele>23.689169</ele>
        <time>2025-09-02T20:27:07.406Z</time>
      </trkpt>
      <trkpt lat="47.26763" lon="-1.62316">
        <ele>23.733388</ele>
        <time>2025-09-02T20:27:13.611Z</time>
      </trkpt>
      <trkpt lat="47.26783" lon="-1.62363">
        <ele>23.839935</ele>
        <time>2025-09-02T20:27:30.627Z</time>
      </trkpt>
      <trkpt lat="47.26793" lon="-1.62372">
        <ele>23.872208</ele>
        <time>2025-09-02T20:27:36.379Z</time>
      </trkpt>
      <trkpt lat="47.26799" lon="-1.62369">
        <ele>23.889817</ele>
        <time>2025-09-02T20:27:38.516Z</time>
      </trkpt>
      <trkpt lat="47.26806" lon="-1.6237">
        <ele>23.90888</ele>
        <time>2025-09-02T20:27:41.182Z</time>
      </trkpt>
      <trkpt lat="47.26847" lon="-1.6241">
        <ele>24.239282</ele>
        <time>2025-09-02T20:27:59.524Z</time>
      </trkpt>
      <trkpt lat="47.26871" lon="-1.62428">
        <ele>24.449123</ele>
        <time>2025-09-02T20:28:07.860Z</time>
      </trkpt>
      <trkpt lat="47.26897" lon="-1.62435">
        <ele>24.64552</ele>
        <time>2025-09-02T20:28:14.545Z</time>
      </trkpt>
      <trkpt lat="47.269" lon="-1.62433">
        <ele>24.668494</ele>
        <time>2025-09-02T20:28:15.258Z</time>
      </trkpt>
      <trkpt lat="47.26876" lon="-1.62425">
        <ele>24.854736</ele>
        <time>2025-09-02T20:28:20.788Z</time>
      </trkpt>
      <trkpt lat="47.26858" lon="-1.62409">
        <ele>25.008533</ele>
        <time>2025-09-02T20:28:24.937Z</time>
      </trkpt>
      <trkpt lat="47.26844" lon="-1.62388">
        <ele>25.160809</ele>
        <time>2025-09-02T20:28:29.005Z</time>
      </trkpt>
      <trkpt lat="47.2682" lon="-1.62332">
        <ele>26.280164</ele>
        <time>2025-09-02T20:28:39.729Z</time>
      </trkpt>
      <trkpt lat="47.26811" lon="-1.62322">
        <ele>26.666892</ele>
        <time>2025-09-02T20:28:42.686Z</time>
      </trkpt>
      <trkpt lat="47.26792" lon="-1.62311">
        <ele>27.383606</ele>
        <time>2025-09-02T20:28:48.822Z</time>
      </trkpt>
      <trkpt lat="47.26771" lon="-1.6231">
        <ele>28.13717</ele>
        <time>2025-09-02T20:28:56.033Z</time>
      </trkpt>
      <trkpt lat="47.26749" lon="-1.62309">
        <ele>28.911337</ele>
        <time>2025-09-02T20:29:05.325Z</time>
      </trkpt>
      <trkpt lat="47.26733" lon="-1.62304">
        <ele>29.469592</ele>
        <time>2025-09-02T20:29:12.528Z</time>
      </trkpt>
      <trkpt lat="47.26733" lon="-1.62304">
        <ele>29.469592</ele>
        <time>2025-09-02T20:29:12.528Z</time>
      </trkpt>
      <trkpt lat="47.26718" lon="-1.62288">
        <ele>30.115397</ele>
        <time>2025-09-02T20:29:21.567Z</time>
      </trkpt>
      <trkpt lat="47.26709" lon="-1.62269">
        <ele>30.684523</ele>
        <time>2025-09-02T20:29:30.465Z</time>
      </trkpt>
      <trkpt lat="47.26701" lon="-1.6223">
        <ele>31.690767</ele>
        <time>2025-09-02T20:29:47.066Z</time>
      </trkpt>
      <trkpt lat="47.26698" lon="-1.62201">
        <ele>32.962664</ele>
        <time>2025-09-02T20:29:59.720Z</time>
      </trkpt>
      <trkpt lat="47.26693" lon="-1.62186">
        <ele>33.726278</ele>
        <time>2025-09-02T20:30:08.733Z</time>
      </trkpt>
      <trkpt lat="47.26667" lon="-1.62164">
        <ele>35.621956</ele>
        <time>2025-09-02T20:30:29.290Z</time>
      </trkpt>
      <trkpt lat="47.26655" lon="-1.62157">
        <ele>36.453883</ele>
        <time>2025-09-02T20:30:37.915Z</time>
      </trkpt>
      <trkpt lat="47.26613" lon="-1.62144">
        <ele>39.23662</ele>
        <time>2025-09-02T20:31:06.983Z</time>
      </trkpt>
      <trkpt lat="47.26557" lon="-1.62143">
        <ele>42.813995</ele>
        <time>2025-09-02T20:31:44.565Z</time>
      </trkpt>
      <trkpt lat="47.26531" lon="-1.62144">
        <ele>44.506188</ele>
        <time>2025-09-02T20:32:02.462Z</time>
      </trkpt>
      <trkpt lat="47.26438" lon="-1.62162">
        <ele>50.418806</ele>
        <time>2025-09-02T20:33:07.227Z</time>
      </trkpt>
      <trkpt lat="47.26424" lon="-1.62164">
        <ele>51.305602</ele>
        <time>2025-09-02T20:33:16.949Z</time>
      </trkpt>
      <trkpt lat="47.26415" lon="-1.62171">
        <ele>51.946818</ele>
        <time>2025-09-02T20:33:23.996Z</time>
      </trkpt>
      <trkpt lat="47.26412" lon="-1.62176">
        <ele>52.248915</ele>
        <time>2025-09-02T20:33:27.305Z</time>
      </trkpt>
      <trkpt lat="47.26359" lon="-1.62244">
        <ele>55.940579</ele>
        <time>2025-09-02T20:34:15.749Z</time>
      </trkpt>
      <trkpt lat="47.26306" lon="-1.623">
        <ele>58.639069</ele>
        <time>2025-09-02T20:34:58.007Z</time>
      </trkpt>
      <trkpt lat="47.2623" lon="-1.62429">
        <ele>62.047674</ele>
        <time>2025-09-02T20:35:53.982Z</time>
      </trkpt>
      <trkpt lat="47.26193" lon="-1.62468">
        <ele>62.098805</ele>
        <time>2025-09-02T20:36:10.793Z</time>
      </trkpt>
      <trkpt lat="47.26165" lon="-1.62482">
        <ele>62.131224</ele>
        <time>2025-09-02T20:36:20.937Z</time>
      </trkpt>
      <trkpt lat="47.2616" lon="-1.62484">
        <ele>62.137624</ele>
        <time>2025-09-02T20:36:22.947Z</time>
      </trkpt>
      <trkpt lat="47.26154" lon="-1.62472">
        <ele>62.148794</ele>
        <time>2025-09-02T20:36:24.986Z</time>
      </trkpt>
      <trkpt lat="47.26144" lon="-1.62478">
        <ele>62.160729</ele>
        <time>2025-09-02T20:36:32.364Z</time>
      </trkpt>
      <trkpt lat="47.26132" lon="-1.62461">
        <ele>62.179662</ele>
        <time>2025-09-02T20:36:44.082Z</time>
      </trkpt>
      <trkpt lat="47.26113" lon="-1.62447">
        <ele>62.202945</ele>
        <time>2025-09-02T20:36:58.454Z</time>
      </trkpt>
      <trkpt lat="47.26113" lon="-1.62402">
        <ele>62.065069</ele>
        <time>2025-09-02T20:37:04.801Z</time>
      </trkpt>
      <trkpt lat="47.26105" lon="-1.62414">
        <ele>61.992227</ele>
        <time>2025-09-02T20:37:07.312Z</time>
      </trkpt>
      <trkpt lat="47.26098" lon="-1.62423">
        <ele>61.93686</ele>
        <time>2025-09-02T20:37:09.298Z</time>
      </trkpt>
      <trkpt lat="47.26034" lon="-1.62487">
        <ele>61.469727</ele>
        <time>2025-09-02T20:37:26.180Z</time>
      </trkpt>
      <trkpt lat="47.25914" lon="-1.6259">
        <ele>60.688849</ele>
        <time>2025-09-02T20:37:55.941Z</time>
      </trkpt>
      <trkpt lat="47.25902" lon="-1.62592">
        <ele>60.622258</ele>
        <time>2025-09-02T20:37:58.572Z</time>
      </trkpt>
      <trkpt lat="47.25851" lon="-1.6257">
        <ele>60.336979</ele>
        <time>2025-09-02T20:38:09.974Z</time>
      </trkpt>
      <trkpt lat="47.25826" lon="-1.62493">
        <ele>60.232833</ele>
        <time>2025-09-02T20:38:22.849Z</time>
      </trkpt>
      <trkpt lat="47.25821" lon="-1.62462">
        <ele>60.298638</ele>
        <time>2025-09-02T20:38:28.016Z</time>
      </trkpt>
      <trkpt lat="47.25817" lon="-1.62456">
        <ele>60.315211</ele>
        <time>2025-09-02T20:38:29.329Z</time>
      </trkpt>
      <trkpt lat="47.258" lon="-1.62489">
        <ele>60.399971</ele>
        <time>2025-09-02T20:38:35.885Z</time>
      </trkpt>
      <trkpt lat="47.25784" lon="-1.62517">
        <ele>60.474315</ele>
        <time>2025-09-02T20:38:41.799Z</time>
      </trkpt>
      <trkpt lat="47.25721" lon="-1.62632">
        <ele>60.838262</ele>
        <time>2025-09-02T20:39:07.835Z</time>
      </trkpt>
      <trkpt lat="47.25698" lon="-1.62676">
        <ele>61.048531</ele>
        <time>2025-09-02T20:39:17.996Z</time>
      </trkpt>
      <trkpt lat="47.25658" lon="-1.62748">
        <ele>61.394891</ele>
        <time>2025-09-02T20:39:33.861Z</time>
      </trkpt>
      <trkpt lat="47.25623" lon="-1.62796">
        <ele>61.659605</ele>
        <time>2025-09-02T20:39:45.537Z</time>
      </trkpt>
      <trkpt lat="47.25614" lon="-1.62805">
        <ele>61.687754</ele>
        <time>2025-09-02T20:39:47.931Z</time>
      </trkpt>
      <trkpt lat="47.2558" lon="-1.62835">
        <ele>61.659224</ele>
        <time>2025-09-02T20:39:56.631Z</time>
      </trkpt>
      <trkpt lat="47.25578" lon="-1.62837">
        <ele>61.657178</ele>
        <time>2025-09-02T20:39:57.249Z</time>
      </trkpt>
      <trkpt lat="47.25571" lon="-1.62843">
        <ele>61.651449</ele>
        <time>2025-09-02T20:39:58.982Z</time>
      </trkpt>
      <trkpt lat="47.25558" lon="-1.62853">
        <ele>61.640897</ele>
        <time>2025-09-02T20:40:02.142Z</time>
      </trkpt>
      <trkpt lat="47.2553" lon="-1.62873">
        <ele>61.618842</ele>
        <time>2025-09-02T20:40:08.645Z</time>
      </trkpt>
      <trkpt lat="47.25483" lon="-1.62905">
        <ele>61.581414</ele>
        <time>2025-09-02T20:40:19.863Z</time>
      </trkpt>
      <trkpt lat="47.25473" lon="-1.62922">
        <ele>61.570423</ele>
        <time>2025-09-02T20:40:23.323Z</time>
      </trkpt>
      <trkpt lat="47.25472" lon="-1.62931">
        <ele>61.566015</ele>
        <time>2025-09-02T20:40:24.801Z</time>
      </trkpt>
      <trkpt lat="47.25465" lon="-1.62949">
        <ele>61.576779</ele>
        <time>2025-09-02T20:40:28.040Z</time>
      </trkpt>
      <trkpt lat="47.25453" lon="-1.62959">
        <ele>61.601839</ele>
        <time>2025-09-02T20:40:31.289Z</time>
      </trkpt>
      <trkpt lat="47.25445" lon="-1.62959">
        <ele>61.614314</ele>
        <time>2025-09-02T20:40:32.837Z</time>
      </trkpt>
      <trkpt lat="47.25448" lon="-1.62974">
        <ele>61.632492</ele>
        <time>2025-09-02T20:40:35.287Z</time>
      </trkpt>
      <trkpt lat="47.25447" lon="-1.62978">
        <ele>61.638614</ele>
        <time>2025-09-02T20:40:36.049Z</time>
      </trkpt>
      <trkpt lat="47.25441" lon="-1.62989">
        <ele>61.655119</ele>
        <time>2025-09-02T20:40:39.713Z</time>
      </trkpt>
      <trkpt lat="47.25439" lon="-1.62999">
        <ele>61.667288</ele>
        <time>2025-09-02T20:40:42.331Z</time>
      </trkpt>
      <trkpt lat="47.25444" lon="-1.63036">
        <ele>61.71171</ele>
        <time>2025-09-02T20:40:52.356Z</time>
      </trkpt>
      <trkpt lat="47.25443" lon="-1.63061">
        <ele>61.742671</ele>
        <time>2025-09-02T20:40:59.414Z</time>
      </trkpt>
      <trkpt lat="47.25428" lon="-1.63102">
        <ele>61.797149</ele>
        <time>2025-09-02T20:41:11.645Z</time>
      </trkpt>
      <trkpt lat="47.25456" lon="-1.63226">
        <ele>61.573541</ele>
        <time>2025-09-02T20:41:44.490Z</time>
      </trkpt>
      <trkpt lat="47.2548" lon="-1.63315">
        <ele>61.114242</ele>
        <time>2025-09-02T20:42:07.456Z</time>
      </trkpt>
      <trkpt lat="47.25504" lon="-1.63356">
        <ele>60.854028</ele>
        <time>2025-09-02T20:42:20.159Z</time>
      </trkpt>
      <trkpt lat="47.25515" lon="-1.63374">
        <ele>60.740334</ele>
        <time>2025-09-02T20:42:25.643Z</time>
      </trkpt>
      <trkpt lat="47.25525" lon="-1.63398">
        <ele>60.597065</ele>
        <time>2025-09-02T20:42:32.218Z</time>
      </trkpt>
      <trkpt lat="47.25529" lon="-1.63433">
        <ele>60.31197</ele>
        <time>2025-09-02T20:42:40.204Z</time>
      </trkpt>
      <trkpt lat="47.25526" lon="-1.63449">
        <ele>60.172463</ele>
        <time>2025-09-02T20:42:44.089Z</time>
      </trkpt>
      <trkpt lat="47.2553" lon="-1.63485">
        <ele>59.876968</ele>
        <time>2025-09-02T20:42:52.338Z</time>
      </trkpt>
      <trkpt lat="47.25543" lon="-1.63566">
        <ele>59.190245</ele>
        <time>2025-09-02T20:43:11.484Z</time>
      </trkpt>
      <trkpt lat="47.25546" lon="-1.63603">
        <ele>58.880649</ele>
        <time>2025-09-02T20:43:20.156Z</time>
      </trkpt>
      <trkpt lat="47.2553" lon="-1.63622">
        <ele>58.632212</ele>
        <time>2025-09-02T20:43:27.162Z</time>
      </trkpt>
      <trkpt lat="47.25483" lon="-1.63651">
        <ele>58.126404</ele>
        <time>2025-09-02T20:43:44.683Z</time>
      </trkpt>
      <trkpt lat="47.25461" lon="-1.63665">
        <ele>57.910068</ele>
        <time>2025-09-02T20:43:53.164Z</time>
      </trkpt>
      <trkpt lat="47.25409" lon="-1.6369">
        <ele>57.417091</ele>
        <time>2025-09-02T20:44:12.771Z</time>
      </trkpt>
      <trkpt lat="47.25396" lon="-1.63689">
        <ele>57.297471</ele>
        <time>2025-09-02T20:44:17.480Z</time>
      </trkpt>
      <trkpt lat="47.25357" lon="-1.63664">
        <ele>56.918971</ele>
        <time>2025-09-02T20:44:32.062Z</time>
      </trkpt>
      <trkpt lat="47.25317" lon="-1.63634">
        <ele>56.175848</ele>
        <time>2025-09-02T20:44:47.158Z</time>
      </trkpt>
      <trkpt lat="47.25314" lon="-1.63632">
        <ele>56.110065</ele>
        <time>2025-09-02T20:44:48.304Z</time>
      </trkpt>
      <trkpt lat="47.25309" lon="-1.63629">
        <ele>56.004179</ele>
        <time>2025-09-02T20:44:50.099Z</time>
      </trkpt>
      <trkpt lat="47.253" lon="-1.63725">
        <ele>54.747604</ele>
        <time>2025-09-02T20:45:03.405Z</time>
      </trkpt>
      <trkpt lat="47.25296" lon="-1.6378">
        <ele>54.029338</ele>
        <time>2025-09-02T20:45:10.908Z</time>
      </trkpt>
      <trkpt lat="47.25292" lon="-1.63789">
        <ele>53.880456</ele>
        <time>2025-09-02T20:45:12.474Z</time>
      </trkpt>
      <trkpt lat="47.25277" lon="-1.63802">
        <ele>53.548551</ele>
        <time>2025-09-02T20:45:15.974Z</time>
      </trkpt>
      <trkpt lat="47.25258" lon="-1.63817">
        <ele>53.22953</ele>
        <time>2025-09-02T20:45:20.418Z</time>
      </trkpt>
      <trkpt lat="47.2523" lon="-1.63825">
        <ele>52.905824</ele>
        <time>2025-09-02T20:45:26.432Z</time>
      </trkpt>
      <trkpt lat="47.25188" lon="-1.63797">
        <ele>52.379591</ele>
        <time>2025-09-02T20:45:36.513Z</time>
      </trkpt>
      <trkpt lat="47.25175" lon="-1.63794">
        <ele>52.229061</ele>
        <time>2025-09-02T20:45:39.504Z</time>
      </trkpt>
      <trkpt lat="47.25135" lon="-1.63815">
        <ele>51.74752</ele>
        <time>2025-09-02T20:45:49.275Z</time>
      </trkpt>
      <trkpt lat="47.25121" lon="-1.63828">
        <ele>51.553557</ele>
        <time>2025-09-02T20:45:53.253Z</time>
      </trkpt>
      <trkpt lat="47.25102" lon="-1.63869">
        <ele>51.295146</ele>
        <time>2025-09-02T20:46:01.034Z</time>
      </trkpt>
      <trkpt lat="47.25084" lon="-1.63893">
        <ele>51.260709</ele>
        <time>2025-09-02T20:46:06.477Z</time>
      </trkpt>
      <trkpt lat="47.25021" lon="-1.63946">
        <ele>51.157079</ele>
        <time>2025-09-02T20:46:23.365Z</time>
      </trkpt>
      <trkpt lat="47.24996" lon="-1.63961">
        <ele>51.119652</ele>
        <time>2025-09-02T20:46:29.774Z</time>
      </trkpt>
      <trkpt lat="47.24988" lon="-1.63923">
        <ele>51.081161</ele>
        <time>2025-09-02T20:46:36.847Z</time>
      </trkpt>
      <trkpt lat="47.24944" lon="-1.63804">
        <ele>52.112321</ele>
        <time>2025-09-02T20:47:05.041Z</time>
      </trkpt>
      <trkpt lat="47.24908" lon="-1.63707">
        <ele>53.16754</ele>
        <time>2025-09-02T20:47:30.473Z</time>
      </trkpt>
      <trkpt lat="47.24871" lon="-1.6361">
        <ele>53.363935</ele>
        <time>2025-09-02T20:47:55.274Z</time>
      </trkpt>
      <trkpt lat="47.24851" lon="-1.63559">
        <ele>53.17078</ele>
        <time>2025-09-02T20:48:06.330Z</time>
      </trkpt>
      <trkpt lat="47.24845" lon="-1.63538">
        <ele>53.094614</ele>
        <time>2025-09-02T20:48:10.204Z</time>
      </trkpt>
      <trkpt lat="47.24829" lon="-1.63539">
        <ele>53.020735</ele>
        <time>2025-09-02T20:48:13.772Z</time>
      </trkpt>
      <trkpt lat="47.2481" lon="-1.63528">
        <ele>52.919032</ele>
        <time>2025-09-02T20:48:18.395Z</time>
      </trkpt>
      <trkpt lat="47.24788" lon="-1.6351">
        <ele>52.799653</ele>
        <time>2025-09-02T20:48:26.465Z</time>
      </trkpt>
      <trkpt lat="47.24739" lon="-1.6353">
        <ele>50.916149</ele>
        <time>2025-09-02T20:48:41.949Z</time>
      </trkpt>
      <trkpt lat="47.24593" lon="-1.63551">
        <ele>42.920785</ele>
        <time>2025-09-02T20:49:22.951Z</time>
      </trkpt>
      <trkpt lat="47.24593" lon="-1.63551">
        <ele>42.920785</ele>
        <time>2025-09-02T20:49:22.965Z</time>
      </trkpt>
      <trkpt lat="47.24511" lon="-1.63569">
        <ele>37.268819</ele>
        <time>2025-09-02T20:49:45.561Z</time>
      </trkpt>
      <trkpt lat="47.245" lon="-1.63583">
        <ele>36.303521</ele>
        <time>2025-09-02T20:49:49.437Z</time>
      </trkpt>
      <trkpt lat="47.24499" lon="-1.63601">
        <ele>35.510054</ele>
        <time>2025-09-02T20:49:52.602Z</time>
      </trkpt>
      <trkpt lat="47.24478" lon="-1.63628">
        <ele>33.652226</ele>
        <time>2025-09-02T20:50:00.062Z</time>
      </trkpt>
      <trkpt lat="47.2444" lon="-1.63657">
        <ele>30.763462</ele>
        <time>2025-09-02T20:50:11.795Z</time>
      </trkpt>
      <trkpt lat="47.2443" lon="-1.63694">
        <ele>30.019236</ele>
        <time>2025-09-02T20:50:19.522Z</time>
      </trkpt>
      <trkpt lat="47.24431" lon="-1.63723">
        <ele>29.496357</ele>
        <time>2025-09-02T20:50:25.185Z</time>
      </trkpt>
      <trkpt lat="47.24414" lon="-1.63738">
        <ele>28.980079</ele>
        <time>2025-09-02T20:50:30.933Z</time>
      </trkpt>
      <trkpt lat="47.24405" lon="-1.63733">
        <ele>28.714707</ele>
        <time>2025-09-02T20:50:37.820Z</time>
      </trkpt>
      <trkpt lat="47.24402" lon="-1.63756">
        <ele>28.280625</ele>
        <time>2025-09-02T20:50:40.646Z</time>
      </trkpt>
      <trkpt lat="47.24403" lon="-1.63788">
        <ele>27.70397</ele>
        <time>2025-09-02T20:50:47.612Z</time>
      </trkpt>
      <trkpt lat="47.2442" lon="-1.63862">
        <ele>26.276549</ele>
        <time>2025-09-02T20:51:06.059Z</time>
      </trkpt>
      <trkpt lat="47.24497" lon="-1.64076">
        <ele>26.915939</ele>
        <time>2025-09-02T20:52:13.504Z</time>
      </trkpt>
      <trkpt lat="47.24546" lon="-1.6417">
        <ele>27.590034</ele>
        <time>2025-09-02T20:52:47.466Z</time>
      </trkpt>
      <trkpt lat="47.24589" lon="-1.64262">
        <ele>28.296352</ele>
        <time>2025-09-02T20:53:19.531Z</time>
      </trkpt>
      <trkpt lat="47.24606" lon="-1.64325">
        <ele>28.719785</ele>
        <time>2025-09-02T20:53:38.556Z</time>
      </trkpt>
      <trkpt lat="47.2463" lon="-1.6438">
        <ele>28.900235</ele>
        <time>2025-09-02T20:53:56.370Z</time>
      </trkpt>
      <trkpt lat="47.24644" lon="-1.64401">
        <ele>28.964485</ele>
        <time>2025-09-02T20:54:04.398Z</time>
      </trkpt>
      <trkpt lat="47.24648" lon="-1.64446">
        <ele>29.061058</ele>
        <time>2025-09-02T20:54:16.357Z</time>
      </trkpt>
      <trkpt lat="47.24691" lon="-1.64519">
        <ele>29.269494</ele>
        <time>2025-09-02T20:54:42.016Z</time>
      </trkpt>
      <trkpt lat="47.24708" lon="-1.64529">
        <ele>29.326256</ele>
        <time>2025-09-02T20:54:48.789Z</time>
      </trkpt>
      <trkpt lat="47.24724" lon="-1.64547">
        <ele>29.452257</ele>
        <time>2025-09-02T20:54:55.871Z</time>
      </trkpt>
      <trkpt lat="47.2473" lon="-1.64557">
        <ele>29.531002</ele>
        <time>2025-09-02T20:54:59.127Z</time>
      </trkpt>
      <trkpt lat="47.24733" lon="-1.6457">
        <ele>29.607814</ele>
        <time>2025-09-02T20:55:02.309Z</time>
      </trkpt>
      <trkpt lat="47.24737" lon="-1.64574">
        <ele>29.650253</ele>
        <time>2025-09-02T20:55:03.997Z</time>
      </trkpt>
      <trkpt lat="47.24756" lon="-1.6457">
        <ele>29.808559</ele>
        <time>2025-09-02T20:55:10.596Z</time>
      </trkpt>
      <trkpt lat="47.24766" lon="-1.64574">
        <ele>29.891341</ele>
        <time>2025-09-02T20:55:14.167Z</time>
      </trkpt>
      <trkpt lat="47.24778" lon="-1.64587">
        <ele>30.016802</ele>
        <time>2025-09-02T20:55:19.642Z</time>
      </trkpt>
      <trkpt lat="47.248" lon="-1.64592">
        <ele>30.199102</ele>
        <time>2025-09-02T20:55:28.050Z</time>
      </trkpt>
      <trkpt lat="47.24804" lon="-1.64597">
        <ele>30.243993</ele>
        <time>2025-09-02T20:55:30.205Z</time>
      </trkpt>
      <trkpt lat="47.24804" lon="-1.64604">
        <ele>30.282546</ele>
        <time>2025-09-02T20:55:31.993Z</time>
      </trkpt>
      <trkpt lat="47.24814" lon="-1.64618">
        <ele>30.402999</ele>
        <time>2025-09-02T20:55:37.975Z</time>
      </trkpt>
      <trkpt lat="47.24816" lon="-1.64646">
        <ele>30.563723</ele>
        <time>2025-09-02T20:55:46.227Z</time>
      </trkpt>
      <trkpt lat="47.24953" lon="-1.64628">
        <ele>35.339511</ele>
        <time>2025-09-02T20:56:41.217Z</time>
      </trkpt>
      <trkpt lat="47.24985" lon="-1.64618">
        <ele>36.792784</ele>
        <time>2025-09-02T20:56:59.387Z</time>
      </trkpt>
      <trkpt lat="47.25011" lon="-1.64602">
        <ele>37.992809</ele>
        <time>2025-09-02T20:57:14.622Z</time>
      </trkpt>
      <trkpt lat="47.25022" lon="-1.64592">
        <ele>38.576341</ele>
        <time>2025-09-02T20:57:21.556Z</time>
      </trkpt>
      <trkpt lat="47.25091" lon="-1.64522">
        <ele>40.442237</ele>
        <time>2025-09-02T20:57:57.049Z</time>
      </trkpt>
      <trkpt lat="47.25095" lon="-1.64535">
        <ele>40.650593</ele>
        <time>2025-09-02T20:58:00.201Z</time>
      </trkpt>
      <trkpt lat="47.25102" lon="-1.64611">
        <ele>41.78195</ele>
        <time>2025-09-02T20:58:14.776Z</time>
      </trkpt>
      <trkpt lat="47.25101" lon="-1.64635">
        <ele>42.143389</ele>
        <time>2025-09-02T20:58:18.328Z</time>
      </trkpt>
      <trkpt lat="47.25093" lon="-1.64703">
        <ele>42.711803</ele>
        <time>2025-09-02T20:58:27.543Z</time>
      </trkpt>
      <trkpt lat="47.25078" lon="-1.64813">
        <ele>43.129429</ele>
        <time>2025-09-02T20:58:44.731Z</time>
      </trkpt>
      <trkpt lat="47.25144" lon="-1.64863">
        <ele>43.540935</ele>
        <time>2025-09-02T20:59:19.276Z</time>
      </trkpt>
      <trkpt lat="47.25153" lon="-1.64871">
        <ele>43.58639</ele>
        <time>2025-09-02T20:59:24.286Z</time>
      </trkpt>
      <trkpt lat="47.25159" lon="-1.64881">
        <ele>43.626475</ele>
        <time>2025-09-02T20:59:28.854Z</time>
      </trkpt>
      <trkpt lat="47.25175" lon="-1.64965">
        <ele>43.880582</ele>
        <time>2025-09-02T20:59:56.782Z</time>
      </trkpt>
      <trkpt lat="47.25174" lon="-1.64974">
        <ele>43.908744</ele>
        <time>2025-09-02T20:59:59.601Z</time>
      </trkpt>
      <trkpt lat="47.2517" lon="-1.65034">
        <ele>44.085775</ele>
        <time>2025-09-02T21:00:15.632Z</time>
      </trkpt>
      <trkpt lat="47.25172" lon="-1.65115">
        <ele>44.320867</ele>
        <time>2025-09-02T21:00:34.320Z</time>
      </trkpt>
      <trkpt lat="47.25156" lon="-1.65181">
        <ele>42.802909</ele>
        <time>2025-09-02T21:00:49.406Z</time>
      </trkpt>
      <trkpt lat="47.25148" lon="-1.65203">
        <ele>42.250835</ele>
        <time>2025-09-02T21:00:54.695Z</time>
      </trkpt>
      <trkpt lat="47.25149" lon="-1.65216">
        <ele>41.971375</ele>
        <time>2025-09-02T21:00:57.362Z</time>
      </trkpt>
      <trkpt lat="47.25156" lon="-1.65234">
        <ele>41.505813</ele>
        <time>2025-09-02T21:01:01.768Z</time>
      </trkpt>
      <trkpt lat="47.25158" lon="-1.65246">
        <ele>41.252054</ele>
        <time>2025-09-02T21:01:04.151Z</time>
      </trkpt>
      <trkpt lat="47.25158" lon="-1.65264">
        <ele>40.845083</ele>
        <time>2025-09-02T21:01:07.950Z</time>
      </trkpt>
      <trkpt lat="47.25155" lon="-1.65298">
        <ele>40.08701</ele>
        <time>2025-09-02T21:01:14.971Z</time>
      </trkpt>
      <trkpt lat="47.25126" lon="-1.654">
        <ele>37.723059</ele>
        <time>2025-09-02T21:01:36.904Z</time>
      </trkpt>
      <trkpt lat="47.25107" lon="-1.65435">
        <ele>36.818973</ele>
        <time>2025-09-02T21:01:45.636Z</time>
      </trkpt>
      <trkpt lat="47.25095" lon="-1.65527">
        <ele>34.898392</ele>
        <time>2025-09-02T21:02:04.703Z</time>
      </trkpt>
      <trkpt lat="47.25084" lon="-1.65563">
        <ele>34.083018</ele>
        <time>2025-09-02T21:02:13.256Z</time>
      </trkpt>
      <trkpt lat="47.25076" lon="-1.65588">
        <ele>33.512656</ele>
        <time>2025-09-02T21:02:16.988Z</time>
      </trkpt>
      <trkpt lat="47.25064" lon="-1.6566">
        <ele>33.996537</ele>
        <time>2025-09-02T21:02:29.029Z</time>
      </trkpt>
      <trkpt lat="47.25109" lon="-1.65683">
        <ele>35.228936</ele>
        <time>2025-09-02T21:02:45.659Z</time>
      </trkpt>
      <trkpt lat="47.25145" lon="-1.65694">
        <ele>36.153949</ele>
        <time>2025-09-02T21:03:00.566Z</time>
      </trkpt>
      <trkpt lat="47.25178" lon="-1.657">
        <ele>37.01369</ele>
        <time>2025-09-02T21:03:15.597Z</time>
      </trkpt>
      <trkpt lat="47.25181" lon="-1.65728">
        <ele>37.506674</ele>
        <time>2025-09-02T21:03:24.317Z</time>
      </trkpt>
      <trkpt lat="47.25215" lon="-1.65842">
        <ele>39.863453</ele>
        <time>2025-09-02T21:04:00.245Z</time>
      </trkpt>
      <trkpt lat="47.25224" lon="-1.6587">
        <ele>40.442619</ele>
        <time>2025-09-02T21:04:07.944Z</time>
      </trkpt>
      <trkpt lat="47.2525" lon="-1.65955">
        <ele>42.221646</ele>
        <time>2025-09-02T21:04:38.958Z</time>
      </trkpt>
      <trkpt lat="47.25312" lon="-1.66078">
        <ele>42.073668</ele>
        <time>2025-09-02T21:05:18.574Z</time>
      </trkpt>
      <trkpt lat="47.25322" lon="-1.66099">
        <ele>41.943499</ele>
        <time>2025-09-02T21:05:22.365Z</time>
      </trkpt>
      <trkpt lat="47.25323" lon="-1.66112">
        <ele>41.876314</ele>
        <time>2025-09-02T21:05:24.272Z</time>
      </trkpt>
      <trkpt lat="47.2532" lon="-1.66195">
        <ele>41.458056</ele>
        <time>2025-09-02T21:05:35.808Z</time>
      </trkpt>
      <trkpt lat="47.25321" lon="-1.66291">
        <ele>40.803725</ele>
        <time>2025-09-02T21:05:48.956Z</time>
      </trkpt>
      <trkpt lat="47.25324" lon="-1.66322">
        <ele>40.582946</ele>
        <time>2025-09-02T21:05:53.214Z</time>
      </trkpt>
      <trkpt lat="47.25325" lon="-1.66483">
        <ele>39.559712</ele>
        <time>2025-09-02T21:06:18.779Z</time>
      </trkpt>
      <trkpt lat="47.25326" lon="-1.66514">
        <ele>39.883772</ele>
        <time>2025-09-02T21:06:25.192Z</time>
      </trkpt>
      <trkpt lat="47.25334" lon="-1.66593">
        <ele>40.724602</ele>
        <time>2025-09-02T21:06:43.275Z</time>
      </trkpt>
      <trkpt lat="47.25335" lon="-1.66856">
        <ele>43.058358</ele>
        <time>2025-09-02T21:07:45.684Z</time>
      </trkpt>
      <trkpt lat="47.2534" lon="-1.66976">
        <ele>43.881056</ele>
        <time>2025-09-02T21:08:07.089Z</time>
      </trkpt>
      <trkpt lat="47.25345" lon="-1.67078">
        <ele>43.514838</ele>
        <time>2025-09-02T21:08:31.852Z</time>
      </trkpt>
      <trkpt lat="47.25345" lon="-1.67078">
        <ele>43.514838</ele>
        <time>2025-09-02T21:08:31.857Z</time>
      </trkpt>
      <trkpt lat="47.25368" lon="-1.67317">
        <ele>42.137974</ele>
        <time>2025-09-02T21:09:26.470Z</time>
      </trkpt>
      <trkpt lat="47.25379" lon="-1.67367">
        <ele>42.220812</ele>
        <time>2025-09-02T21:09:39.256Z</time>
      </trkpt>
      <trkpt lat="47.25383" lon="-1.67391">
        <ele>42.260217</ele>
        <time>2025-09-02T21:09:45.705Z</time>
      </trkpt>
      <trkpt lat="47.25379" lon="-1.67407">
        <ele>42.285995</ele>
        <time>2025-09-02T21:09:50.065Z</time>
      </trkpt>
      <trkpt lat="47.25363" lon="-1.67429">
        <ele>42.337335</ele>
        <time>2025-09-02T21:09:59.058Z</time>
      </trkpt>
      <trkpt lat="47.2536" lon="-1.67445">
        <ele>42.364623</ele>
        <time>2025-09-02T21:10:04.027Z</time>
      </trkpt>
      <trkpt lat="47.25347" lon="-1.67462">
        <ele>42.40297</ele>
        <time>2025-09-02T21:10:11.227Z</time>
      </trkpt>
      <trkpt lat="47.25341" lon="-1.67486">
        <ele>42.444114</ele>
        <time>2025-09-02T21:10:19.120Z</time>
      </trkpt>
      <trkpt lat="47.25339" lon="-1.67529">
        <ele>42.750339</ele>
        <time>2025-09-02T21:10:32.402Z</time>
      </trkpt>
      <trkpt lat="47.25331" lon="-1.67543">
        <ele>42.969305</ele>
        <time>2025-09-02T21:10:37.999Z</time>
      </trkpt>
      <trkpt lat="47.25285" lon="-1.67589">
        <ele>43.990477</ele>
        <time>2025-09-02T21:11:04.116Z</time>
      </trkpt>
      <trkpt lat="47.25322" lon="-1.67715">
        <ele>45.695752</ele>
        <time>2025-09-02T21:11:33.962Z</time>
      </trkpt>
      <trkpt lat="47.25319" lon="-1.67738">
        <ele>46.164081</ele>
        <time>2025-09-02T21:11:39.049Z</time>
      </trkpt>
      <trkpt lat="47.2528" lon="-1.67781">
        <ele>47.742015</ele>
        <time>2025-09-02T21:11:56.710Z</time>
      </trkpt>
      <trkpt lat="47.25233" lon="-1.67823">
        <ele>49.557827</ele>
        <time>2025-09-02T21:12:19.413Z</time>
      </trkpt>
      <trkpt lat="47.2522" lon="-1.67838">
        <ele>50.091107</ele>
        <time>2025-09-02T21:12:26.357Z</time>
      </trkpt>
      <trkpt lat="47.25214" lon="-1.67852">
        <ele>50.455523</ele>
        <time>2025-09-02T21:12:31.200Z</time>
      </trkpt>
      <trkpt lat="47.2521" lon="-1.67867">
        <ele>50.822336</ele>
        <time>2025-09-02T21:12:36.007Z</time>
      </trkpt>
      <trkpt lat="47.25201" lon="-1.67947">
        <ele>52.814067</ele>
        <time>2025-09-02T21:12:59.852Z</time>
      </trkpt>
      <trkpt lat="47.25174" lon="-1.67938">
        <ele>53.880033</ele>
        <time>2025-09-02T21:13:15.777Z</time>
      </trkpt>
      <trkpt lat="47.25061" lon="-1.67837">
        <ele>58.955082</ele>
        <time>2025-09-02T21:14:30.469Z</time>
      </trkpt>
      <trkpt lat="47.25045" lon="-1.67829">
        <ele>59.456204</ele>
        <time>2025-09-02T21:14:39.781Z</time>
      </trkpt>
      <trkpt lat="47.25025" lon="-1.6784">
        <ele>60.085864</ele>
        <time>2025-09-02T21:14:51.325Z</time>
      </trkpt>
      <trkpt lat="47.24956" lon="-1.67856">
        <ele>62.189482</ele>
        <time>2025-09-02T21:15:28.391Z</time>
      </trkpt>
      <trkpt lat="47.24904" lon="-1.67872">
        <ele>63.775459</ele>
        <time>2025-09-02T21:15:54.613Z</time>
      </trkpt>
      <trkpt lat="47.24901" lon="-1.67895">
        <ele>64.115798</ele>
        <time>2025-09-02T21:16:02.085Z</time>
      </trkpt>
      <trkpt lat="47.24907" lon="-1.67964">
        <ele>64.716699</ele>
        <time>2025-09-02T21:16:24.077Z</time>
      </trkpt>
      <trkpt lat="47.24897" lon="-1.68045">
        <ele>65.428293</ele>
        <time>2025-09-02T21:16:48.855Z</time>
      </trkpt>
      <trkpt lat="47.24901" lon="-1.68095">
        <ele>65.857737</ele>
        <time>2025-09-02T21:17:02.983Z</time>
      </trkpt>
      <trkpt lat="47.24903" lon="-1.68164">
        <ele>66.258483</ele>
        <time>2025-09-02T21:17:21.532Z</time>
      </trkpt>
      <trkpt lat="47.24896" lon="-1.6825">
        <ele>66.048976</ele>
        <time>2025-09-02T21:17:42.934Z</time>
      </trkpt>
      <trkpt lat="47.24899" lon="-1.68256">
        <ele>66.030607</ele>
        <time>2025-09-02T21:17:44.777Z</time>
      </trkpt>
      <trkpt lat="47.24916" lon="-1.68263">
        <ele>65.967771</ele>
        <time>2025-09-02T21:17:51.032Z</time>
      </trkpt>
      <trkpt lat="47.24918" lon="-1.68277">
        <ele>65.933573</ele>
        <time>2025-09-02T21:17:54.422Z</time>
      </trkpt>
      <trkpt lat="47.24917" lon="-1.68347">
        <ele>65.762638</ele>
        <time>2025-09-02T21:18:11.228Z</time>
      </trkpt>
      <trkpt lat="47.24913" lon="-1.68402">
        <ele>65.576192</ele>
        <time>2025-09-02T21:18:24.309Z</time>
      </trkpt>
      <trkpt lat="47.24914" lon="-1.6846">
        <ele>65.17833</ele>
        <time>2025-09-02T21:18:38.270Z</time>
      </trkpt>
      <trkpt lat="47.24917" lon="-1.68499">
        <ele>64.917495</ele>
        <time>2025-09-02T21:18:47.431Z</time>
      </trkpt>
      <trkpt lat="47.24915" lon="-1.68591">
        <ele>64.294599</ele>
        <time>2025-09-02T21:19:09.068Z</time>
      </trkpt>
      <trkpt lat="47.24904" lon="-1.68662">
        <ele>63.768363</ele>
        <time>2025-09-02T21:19:25.848Z</time>
      </trkpt>
      <trkpt lat="47.24904" lon="-1.68678">
        <ele>63.623802</ele>
        <time>2025-09-02T21:19:29.290Z</time>
      </trkpt>
      <trkpt lat="47.24907" lon="-1.68705">
        <ele>63.365695</ele>
        <time>2025-09-02T21:19:32.941Z</time>
      </trkpt>
      <trkpt lat="47.24914" lon="-1.68764">
        <ele>62.794383</ele>
        <time>2025-09-02T21:19:41.024Z</time>
      </trkpt>
      <trkpt lat="47.24908" lon="-1.68816">
        <ele>62.301708</ele>
        <time>2025-09-02T21:19:48.088Z</time>
      </trkpt>
      <trkpt lat="47.24906" lon="-1.68858">
        <ele>61.900594</ele>
        <time>2025-09-02T21:19:53.889Z</time>
      </trkpt>
      <trkpt lat="47.2484" lon="-1.68876">
        <ele>61.083742</ele>
        <time>2025-09-02T21:20:07.817Z</time>
      </trkpt>
      <trkpt lat="47.24787" lon="-1.6891">
        <ele>60.518379</ele>
        <time>2025-09-02T21:20:20.077Z</time>
      </trkpt>
      <trkpt lat="47.24671" lon="-1.68991">
        <ele>58.998278</ele>
        <time>2025-09-02T21:20:46.715Z</time>
      </trkpt>
      <trkpt lat="47.2464" lon="-1.69019">
        <ele>58.36912</ele>
        <time>2025-09-02T21:20:53.977Z</time>
      </trkpt>
      <trkpt lat="47.24634" lon="-1.69026">
        <ele>58.230876</ele>
        <time>2025-09-02T21:20:55.553Z</time>
      </trkpt>
      <trkpt lat="47.24632" lon="-1.69032">
        <ele>58.165381</ele>
        <time>2025-09-02T21:20:56.291Z</time>
      </trkpt>
      <trkpt lat="47.2462" lon="-1.69035">
        <ele>57.946561</ele>
        <time>2025-09-02T21:20:58.662Z</time>
      </trkpt>
      <trkpt lat="47.24601" lon="-1.69042">
        <ele>57.617708</ele>
        <time>2025-09-02T21:21:02.181Z</time>
      </trkpt>
      <trkpt lat="47.24544" lon="-1.69074">
        <ele>56.562364</ele>
        <time>2025-09-02T21:21:13.339Z</time>
      </trkpt>
      <trkpt lat="47.24517" lon="-1.69104">
        <ele>55.767153</ele>
        <time>2025-09-02T21:21:19.470Z</time>
      </trkpt>
      <trkpt lat="47.24506" lon="-1.69114">
        <ele>55.447457</ele>
        <time>2025-09-02T21:21:21.819Z</time>
      </trkpt>
      <trkpt lat="47.24482" lon="-1.69121">
        <ele>54.860596</ele>
        <time>2025-09-02T21:21:26.128Z</time>
      </trkpt>
      <trkpt lat="47.24479" lon="-1.69133">
        <ele>54.652437</ele>
        <time>2025-09-02T21:21:27.649Z</time>
      </trkpt>
      <trkpt lat="47.24471" lon="-1.69137">
        <ele>54.444928</ele>
        <time>2025-09-02T21:21:29.165Z</time>
      </trkpt>
      <trkpt lat="47.24466" lon="-1.69133">
        <ele>54.30189</ele>
        <time>2025-09-02T21:21:30.199Z</time>
      </trkpt>
      <trkpt lat="47.24463" lon="-1.69125">
        <ele>54.161367</ele>
        <time>2025-09-02T21:21:31.230Z</time>
      </trkpt>
      <trkpt lat="47.24455" lon="-1.69128">
        <ele>53.953204</ele>
        <time>2025-09-02T21:21:32.751Z</time>
      </trkpt>
      <trkpt lat="47.24443" lon="-1.69138">
        <ele>53.622569</ele>
        <time>2025-09-02T21:21:35.160Z</time>
      </trkpt>
      <trkpt lat="47.24407" lon="-1.69173">
        <ele>52.564235</ele>
        <time>2025-09-02T21:21:42.890Z</time>
      </trkpt>
      <trkpt lat="47.24372" lon="-1.69208">
        <ele>51.513241</ele>
        <time>2025-09-02T21:21:50.461Z</time>
      </trkpt>
      <trkpt lat="47.24379" lon="-1.69278">
        <ele>50.314176</ele>
        <time>2025-09-02T21:22:05.534Z</time>
      </trkpt>
      <trkpt lat="47.24389" lon="-1.69454">
        <ele>47.351467</ele>
        <time>2025-09-02T21:22:43.706Z</time>
      </trkpt>
      <trkpt lat="47.24384" lon="-1.69475">
        <ele>47.044011</ele>
        <time>2025-09-02T21:22:48.477Z</time>
      </trkpt>
      <trkpt lat="47.24377" lon="-1.6954">
        <ele>46.128402</ele>
        <time>2025-09-02T21:23:02.732Z</time>
      </trkpt>
      <trkpt lat="47.2437" lon="-1.69574">
        <ele>45.633497</ele>
        <time>2025-09-02T21:23:10.433Z</time>
      </trkpt>
      <trkpt lat="47.24321" lon="-1.69736">
        <ele>43.811733</ele>
        <time>2025-09-02T21:23:50.353Z</time>
      </trkpt>
      <trkpt lat="47.24319" lon="-1.69745">
        <ele>43.791851</ele>
        <time>2025-09-02T21:23:52.475Z</time>
      </trkpt>
      <trkpt lat="47.24224" lon="-1.70035">
        <ele>43.139452</ele>
        <time>2025-09-02T21:25:15.252Z</time>
      </trkpt>
      <trkpt lat="47.24275" lon="-1.70194">
        <ele>42.430794</ele>
        <time>2025-09-02T21:25:57.913Z</time>
      </trkpt>
      <trkpt lat="47.24255" lon="-1.70206">
        <ele>41.978236</ele>
        <time>2025-09-02T21:26:05.011Z</time>
      </trkpt>
      <trkpt lat="47.24136" lon="-1.70312">
        <ele>38.989269</ele>
        <time>2025-09-02T21:26:49.005Z</time>
      </trkpt>
      <trkpt lat="47.2413" lon="-1.70311">
        <ele>38.765218</ele>
        <time>2025-09-02T21:26:51.063Z</time>
      </trkpt>
      <trkpt lat="47.24115" lon="-1.70512">
        <ele>34.195685</ele>
        <time>2025-09-02T21:27:17.139Z</time>
      </trkpt>
      <trkpt lat="47.24112" lon="-1.70595">
        <ele>32.382433</ele>
        <time>2025-09-02T21:27:28.007Z</time>
      </trkpt>
      <trkpt lat="47.24102" lon="-1.7069">
        <ele>30.471421</ele>
        <time>2025-09-02T21:27:40.592Z</time>
      </trkpt>
      <trkpt lat="47.24093" lon="-1.70723">
        <ele>29.760269</ele>
        <time>2025-09-02T21:27:45.328Z</time>
      </trkpt>
      <trkpt lat="47.24079" lon="-1.70754">
        <ele>29.018757</ele>
        <time>2025-09-02T21:27:50.297Z</time>
      </trkpt>
      <trkpt lat="47.24065" lon="-1.7081">
        <ele>27.827841</ele>
        <time>2025-09-02T21:27:58.337Z</time>
      </trkpt>
      <trkpt lat="47.24069" lon="-1.70895">
        <ele>27.154307</ele>
        <time>2025-09-02T21:28:10.076Z</time>
      </trkpt>
      <trkpt lat="47.24067" lon="-1.70946">
        <ele>26.774119</ele>
        <time>2025-09-02T21:28:17.547Z</time>
      </trkpt>
      <trkpt lat="47.24036" lon="-1.70979">
        <ele>26.357484</ele>
        <time>2025-09-02T21:28:25.495Z</time>
      </trkpt>
      <trkpt lat="47.23988" lon="-1.71054">
        <ele>25.910726</ele>
        <time>2025-09-02T21:28:42.200Z</time>
      </trkpt>
      <trkpt lat="47.23966" lon="-1.71074">
        <ele>26.08238</ele>
        <time>2025-09-02T21:28:49.521Z</time>
      </trkpt>
      <trkpt lat="47.23958" lon="-1.71079">
        <ele>26.143468</ele>
        <time>2025-09-02T21:28:52.233Z</time>
      </trkpt>
      <trkpt lat="47.23945" lon="-1.71108">
        <ele>26.303648</ele>
        <time>2025-09-02T21:28:59.921Z</time>
      </trkpt>
      <trkpt lat="47.23931" lon="-1.71152">
        <ele>26.526236</ele>
        <time>2025-09-02T21:29:10.521Z</time>
      </trkpt>
      <trkpt lat="47.23911" lon="-1.71238">
        <ele>26.943814</ele>
        <time>2025-09-02T21:29:28.293Z</time>
      </trkpt>
      <trkpt lat="47.23887" lon="-1.71294">
        <ele>26.334173</ele>
        <time>2025-09-02T21:29:38.743Z</time>
      </trkpt>
      <trkpt lat="47.23872" lon="-1.71302">
        <ele>26.038825</ele>
        <time>2025-09-02T21:29:42.122Z</time>
      </trkpt>
      <trkpt lat="47.23863" lon="-1.71318">
        <ele>25.773681</ele>
        <time>2025-09-02T21:29:45.072Z</time>
      </trkpt>
      <trkpt lat="47.23851" lon="-1.71412">
        <ele>24.550492</ele>
        <time>2025-09-02T21:29:58.045Z</time>
      </trkpt>
      <trkpt lat="47.23849" lon="-1.71438">
        <ele>24.22537</ele>
        <time>2025-09-02T21:30:01.390Z</time>
      </trkpt>
      <trkpt lat="47.23822" lon="-1.71585">
        <ele>22.699305</ele>
        <time>2025-09-02T21:30:22.066Z</time>
      </trkpt>
      <trkpt lat="47.23811" lon="-1.71653">
        <ele>22.08541</ele>
        <time>2025-09-02T21:30:32.679Z</time>
      </trkpt>
      <trkpt lat="47.23795" lon="-1.71691">
        <ele>21.686748</ele>
        <time>2025-09-02T21:30:40.029Z</time>
      </trkpt>
      <trkpt lat="47.23778" lon="-1.7175">
        <ele>21.184128</ele>
        <time>2025-09-02T21:30:51.157Z</time>
      </trkpt>
      <trkpt lat="47.23758" lon="-1.71805">
        <ele>20.832433</ele>
        <time>2025-09-02T21:31:01.892Z</time>
      </trkpt>
      <trkpt lat="47.23722" lon="-1.71842">
        <ele>20.466215</ele>
        <time>2025-09-02T21:31:12.531Z</time>
      </trkpt>
      <trkpt lat="47.23684" lon="-1.71936">
        <ele>19.847144</ele>
        <time>2025-09-02T21:31:28.481Z</time>
      </trkpt>
      <trkpt lat="47.2365" lon="-1.72014">
        <ele>18.486211</ele>
        <time>2025-09-02T21:31:40.974Z</time>
      </trkpt>
      <trkpt lat="47.23607" lon="-1.72059">
        <ele>17.264092</ele>
        <time>2025-09-02T21:31:51.398Z</time>
      </trkpt>
      <trkpt lat="47.23584" lon="-1.72078">
        <ele>16.66022</ele>
        <time>2025-09-02T21:31:56.595Z</time>
      </trkpt>
      <trkpt lat="47.23512" lon="-1.72094">
        <ele>15.668585</ele>
        <time>2025-09-02T21:32:11.580Z</time>
      </trkpt>
      <trkpt lat="47.23444" lon="-1.72124">
        <ele>15.720161</ele>
        <time>2025-09-02T21:32:28.268Z</time>
      </trkpt>
      <trkpt lat="47.23414" lon="-1.72108">
        <ele>15.743164</ele>
        <time>2025-09-02T21:32:37.389Z</time>
      </trkpt>
      <trkpt lat="47.2341" lon="-1.72105">
        <ele>15.746481</ele>
        <time>2025-09-02T21:32:38.804Z</time>
      </trkpt>
      <trkpt lat="47.23406" lon="-1.72065">
        <ele>15.766704</ele>
        <time>2025-09-02T21:32:47.482Z</time>
      </trkpt>
      <trkpt lat="47.23405" lon="-1.72045">
        <ele>15.776389</ele>
        <time>2025-09-02T21:32:51.889Z</time>
      </trkpt>
      <trkpt lat="47.23402" lon="-1.71958">
        <ele>15.778014</ele>
        <time>2025-09-02T21:33:12.795Z</time>
      </trkpt>
      <trkpt lat="47.23394" lon="-1.71943">
        <ele>15.778014</ele>
        <time>2025-09-02T21:33:17.011Z</time>
      </trkpt>
      <trkpt lat="47.23394" lon="-1.71901">
        <ele>15.778014</ele>
        <time>2025-09-02T21:33:26.767Z</time>
      </trkpt>
      <trkpt lat="47.23395" lon="-1.71883">
        <ele>15.778014</ele>
        <time>2025-09-02T21:33:30.849Z</time>
      </trkpt>
      <trkpt lat="47.23404" lon="-1.71858">
        <ele>15.778014</ele>
        <time>2025-09-02T21:33:36.834Z</time>
      </trkpt>
      <trkpt lat="47.23495" lon="-1.71858">
        <ele>15.778014</ele>
        <time>2025-09-02T21:34:01.168Z</time>
      </trkpt>
      <trkpt lat="47.23497" lon="-1.71859">
        <ele>15.778014</ele>
        <time>2025-09-02T21:34:01.807Z</time>
      </trkpt>
    </trkseg>
  </trk>
</gpx>